     2              OBSERVATION DATA    GPS                 RINEX VERSION / TYPE
teqc 1997Jul24 19970813                                     PGM / RUN BY / DATE
                                                            COMMENT
Original Marker Name: MACA                                  COMMENT
Campaign Name: southern california 1988                     COMMENT
4-Character Station Name: MACA                              COMMENT
6-Character Antenna Code: TI4100                            COMMENT
Vertical Measurement Point: PAE                             COMMENT
Vertical Offset to Rinex Ref. Point: 0.0000                 COMMENT
Radial Measurement Point: PAE                               COMMENT
Radial Offset to Rinex Ref. Point: 0.0842                   COMMENT
Antenna Height from Field Measurement: 0.9180 m             COMMENT
Original XYZ: -2389980.9522 -4822592.6425 3414477.9157      COMMENT
New XYZ position is based on association with SCEC monument COMMENT
E1C8W4X6+0011. Position of that monument is believed to be  COMMENT
valid to within 1 m horizontally; vertical accuracy         COMMENT
should be no worse than 3-times this value.                 COMMENT
                                                            COMMENT
Revised Rinex header created by UCSD GPS archive for        COMMENT
GSAC on 01-Jun-1999 (1999:152) 23:45:21 GMT                 COMMENT
For assistance contact dagnew@ucsd.edu or hjohnson@ucsd.edu COMMENT
                                                            COMMENT
CUYUMACA                                                    MARKER NAME
SZ NATIONAL GEODETIC SURVEY                                 OBSERVER / AGENCY
UN02 TI 4100 1.5                                            REC # / TYPE / VERS
UN02 TI 4100                                                ANT # / TYPE
 -2400251.0000 -4791784.0000  3450067.0000                  APPROX POSITION XYZ
        0.9141        0.0000        0.0000                  ANTENNA: DELTA H/E/N
     1     1     0                                          WAVELENGTH FACT L1/2
     4    P1    P2    L1    L2                              # / TYPES OF OBSERV
    30                                                      INTERVAL
  1988     3    21     3    21   29.000000                  TIME OF FIRST OBS
  1988     3    21     8    35   59.000000                  TIME OF LAST OBS
     0                                                      # OF SATELLITES
                                                            END OF HEADER
 88  3 21  3 21 29.0800000  0  4G 6G 8G11G 9
                  21412676.115       36617.206 9
  20482126.778    20482129.259       75078.546 9    207560.968 7
                  22628139.777      -37500.746 8
  24115676.658    24115688.539      -19790.654 8    208535.750 9
 88  3 21  3 21 59.0800000  0  4G 6G 8G11G 9
  21402274.977    21402279.632      -18148.367 9    273565.568 9
  20476158.912    20476162.140       43731.238 9    183134.512 7
  22609592.989    22609599.202     -134961.036 9    188377.603 8
  24099012.648    24099018.813     -107358.450 8    140301.747 8
 88  3 21  3 22 29.0800000  0  4G 6G 8G11G 9
  21391880.068    21391883.415      -72772.892 9    231001.032 9
  20470323.320    20470328.911       13069.722 9    159242.452 7
  22591105.367    22591109.912     -232112.540 9    112675.168 8
  24082339.152    24082343.673     -194987.177 8     72019.754 9
 88  3 21  3 22 59.0800000  0  4G 6G 8G11G 9
  21381512.342    21381516.193     -127255.223 9    188547.269 9
  20464620.385    20464623.451      -16904.816 8    135885.693 8
  22572677.690    22572681.642     -328952.414 9     37215.545 8
  24065651.561    24065657.839     -282675.384 8      3691.384 9
 88  3 21  3 23 29.0800000  0  4G 6G 8G11G 9
  21371172.179    21371175.638     -181593.090 9    146206.103 9
  20459049.195    20459051.718      -46191.309 9    113065.081 8
  22554310.379    22554315.485     -425477.670 9    -37998.901 9
  24048954.531    24048960.271     -370422.142 9    -64682.625 9
 88  3 21  3 23 59.0800000  0  4G 6G 8G11G 9
  21360859.312    21360864.024     -235784.484 9    103979.066 9
  20453605.338    20453609.967      -74788.572 9     90781.528 6
  22536001.310    22536007.910     -521685.298 9   -112965.837 9
  24032246.288    24032251.673     -458226.065 8   -133101.182 9
 88  3 21  3 24 29.0800000  0  4G 6G 8G11G 9
  21350575.985    21350578.735     -289828.182 9     61867.126 9
  20448296.573    20448298.777     -102696.497 9     69035.119 8
  22517755.076    22517761.229     -617573.668 9   -187683.995 8
  24015527.199    24015531.328     -546087.261 9   -201564.319 8
 88  3 21  3 24 59.0800000  0  4G 6G 8G11G 9
  21340320.449    21340323.137     -343722.440 9     19871.617 9
  20443117.249    20443119.192     -129914.419 9     47826.336 8
  22499570.773    22499575.362     -713140.082 9   -262151.315 8
  23998796.898    23998800.645     -634004.587 9   -270071.224 8
 88  3 21  3 25 29.0800000  0  4G 6G 8G11G 9
  21330092.239    21330096.502     -397465.343 9    -22005.976 9
  20438066.842    20438070.334     -156441.280 9     27156.058 8
  22481444.942    22481450.711     -808381.802 9   -336365.644 9
  23982055.633    23982061.175     -721977.131 9   -338621.154 8
 88  3 21  3 25 59.0800000  0  4G 6G 8G11G 9
  21319894.994    21319899.600     -451054.912 9    -63764.074 9
  20433150.962    20433155.116     -182277.024 9      7024.351 8
  22463383.007    22463388.979     -903296.596 8   -410325.204 8
  23965303.785    23965309.412     -810003.993 9   -407213.387 8
 88  3 21  3 26 29.0800000  0  4G 6G 8G11G 9
  21309727.859    21309730.761     -504488.994 9   -105401.010 8
  20428367.653    20428369.633     -207420.528 9    -12567.943 7
  22445385.795    22445391.182     -997881.167 9   -484027.416 8
  23948542.372    23948547.204     -898083.639 9   -475846.762 9
 88  3 21  3 26 59.0800000  0  4G 6G 8G11G 9
  21299588.936    21299592.200     -557765.834 9   -146915.405 9
  20423714.321    20423717.561     -231870.814 9    -31620.093 8
  22427450.146    22427454.444    -1092132.588 8   -557470.046 9
  23931772.180    23931776.483     -986215.384 9   -544520.731 8
 88  3 21  3 27 29.0800000  0  4G 6G 8G11G 9
  21289480.237    21289484.217     -610883.046 9   -188305.428 9
  20419193.093    20419197.008     -255627.350 9    -50131.662 8
  22409577.970    22409582.836    -1186048.373 9   -630651.161 8
  23914991.263    23914995.357    -1074397.866 9   -613234.258 9
 88  3 21  3 27 59.0800000  0  4G 6G 8G11G 9
  21279402.417    21279406.624     -663838.834 9   -229569.667 9
  20414804.981    20414808.062     -278689.567 9    -68102.206 8
  22391770.310    22391774.542    -1279625.760 9   -703568.576 8
  23898200.656    23898206.014    -1162630.032 9   -681986.494 9
 88  3 21  3 28 29.0800000  0  4G 6G 8G11G 9
  21269358.112    21269359.899     -716631.391 9   -270706.699 8
  20410549.316    20410550.350     -301057.191 9    -85531.487 8
  22374028.696    22374033.144    -1372862.435 9   -776220.499 8
  23881401.734    23881406.401    -1250911.222 9   -750776.934 8
 88  3 21  3 28 59.0800000  0  4G 6G 8G11G 9
  21259344.052    21259345.928     -769259.027 9   -311715.237 9
  20406425.482    20406425.925     -322729.921 9   -102419.320 9
  22356351.695    22356356.661    -1465756.219 9   -848605.258 8
  23864595.146    23864597.332    -1339240.496 9   -819604.828 8
 88  3 21  3 29 29.0800000  0  4G 6G 8G11G 9
  21249360.530    21249363.278     -821719.577 9   -352593.558 9
  20402431.208    20402434.870     -343706.847 9   -118764.954 8
  22338740.339    22338744.867    -1558304.027 9   -920720.402 9
  23847775.209    23847780.912    -1427616.426 9   -888469.093 8
 88  3 21  3 29 59.0800000  0  4G 6G 8G11G 9
  21239408.431    21239411.567     -874011.124 9   -393340.206 9
  20398572.235    20398576.670     -363987.725 9   -134568.225 8
  22321194.269    22321199.846    -1650503.687 9   -992564.256 9
  23830950.781    23830955.048    -1516038.083 9   -957368.961 8
 88  3 21  3 30 29.0800000  0  4G 6G 8G11G 9
  21229490.931    21229493.269     -926131.661 9   -433953.592 9
  20394845.391    20394849.774     -383572.132 8   -149828.771 8
  22303717.423    22303722.532    -1742352.606 9  -1064134.824 8
  23814116.828    23814118.946    -1604504.534 8  -1026303.760 8
 88  3 21  3 30 59.0800000  0  4G 6G 8G11G 9
  21219606.429    21219607.332     -978079.549 9   -474432.458 9
  20391251.755    20391254.808     -402459.886 9   -164546.482 8
  22286305.990    22286310.895    -1833848.163 9  -1135430.047 9
  23797271.440    23797276.798    -1693014.866 9  -1095272.760 9
 88  3 21  3 31 29.0800000  0  4G 6G 8G11G 9
  21209755.009    21209756.157    -1029852.393 9   -514774.923 8
  20387790.760    20387793.136     -420650.246 9   -178720.785 8
  22268961.896    22268968.595    -1924987.827 9  -1206447.943 9
  23780421.415    23780426.350    -1781567.625 9  -1164274.820 9
 88  3 21  3 31 59.0800000  0  4G 6G 8G11G 9
  21199937.019    21199939.006    -1081447.941 9   -554979.227 9
  20384461.109    20384465.587     -438143.147 9   -192351.606 8
  22251686.744    22251692.708    -2015768.936 9  -1277186.456 8
  23763562.147    23763566.732    -1870161.471 9  -1233308.891 8
 88  3 21  3 32 29.0800000  0  4G 6G 8G11G 9
  21190151.620    21190153.209    -1132864.691 9   -595044.218 9
  20381264.711    20381268.351     -454938.257 9   -205438.691 8
  22234480.452    22234484.702    -2106189.098 9  -1347643.704 9
  23746694.954    23746698.824    -1958795.631 9  -1302374.377 7
 88  3 21  3 32 59.0800000  0  4G 6G 8G11G 9
  21180401.765    21180403.284    -1184100.236 9   -634968.012 8
  20378202.809    20378204.693     -471035.137 9   -217981.693 7
  22217344.148    22217348.752    -2196245.598 9  -1417817.592 8
  23729820.754    23729824.640    -2047468.681 9  -1371470.143 7
 88  3 21  3 33 29.0800000  0  4G 6G 8G11G 9
  21170686.429    21170688.933    -1235152.807 9   -674749.221 9
  20375273.143    20375273.701     -486433.816 9   -229980.645 7
  22200277.049    22200278.900    -2285936.567 8  -1487706.642 8
  23712940.584    23712943.840    -2136179.758 7  -1440595.572 7
 88  3 21  3 33 59.0800000  0  4G 6G 8G11G 9
  21161007.090    21161008.724    -1286020.040 9   -714386.009 9
  20372475.413    20372477.322     -501133.869 9   -241435.196 7
  22183279.183    22183282.706    -2375259.222 9  -1557308.686 9
  23696051.393    23696054.942    -2224927.174 9  -1509749.309 7
 88  3 21  3 34 29.0800000  0  4G 6G 8G11G 9
  21151362.380    21151366.260    -1336699.955 9   -753876.848 9
  20369810.773    20369813.177     -515135.208 9   -252345.309 8
  22166352.457    22166355.648    -2464210.623 9  -1626621.457 8
  23679157.266    23679161.166    -2313709.947 8  -1578930.620 8
 88  3 21  3 34 59.0800000  0  4G 6G 8G11G 9
  21141754.306    21141758.141    -1387190.706 9   -793220.271 9
  20367279.365    20367282.719     -528437.811 9   -262710.965 8
  22149495.851    22149501.138    -2552788.624 9  -1695643.265 8
  23662255.819    23662260.179    -2402527.006 9  -1648138.628 8
 88  3 21  3 35 29.0800000  0  4G 6G 8G11G 9
  21132182.974    21132185.964    -1437489.890 9   -832414.429 9
  20364881.782    20364883.791     -541041.905 9   -272532.324 7
  22132712.048    22132716.817    -2640990.821 9  -1764372.245 8
  23645349.477    23645352.568    -2491376.926 8  -1717372.232 9
 88  3 21  3 35 59.0800000  0  4G 6G 8G11G 9
  21122648.648    21122651.506    -1487595.735 9   -871457.947 9
  20362615.882    20362618.158     -552947.106 9   -281809.083 7
  22116000.017    22116005.134    -2728814.597 9  -1832806.349 9
  23628434.260    23628438.931    -2580258.622 8  -1786630.628 9
 88  3 21  3 36 29.0800000  0  4G 6G 8G11G 9
  21113150.977    21113153.397    -1537506.035 9   -910349.070 9
  20360481.888    20360486.066     -564153.632 9   -290541.437 8
  22099359.194    22099364.809    -2816257.952 9  -1900944.020 9
  23611514.002    23611520.392    -2669170.897 8  -1855912.845 9
 88  3 21  3 36 59.0800000  0  4G 6G 8G11G 9
  21103691.288    21103693.087    -1587219.126 9   -949086.530 9
  20358482.672    20358485.201     -574661.997 9   -298729.741 8
  22082792.799    22082797.587    -2903318.470 9  -1968783.357 8
  23594589.987    23594595.476    -2758112.663 9  -1925218.040 9
 88  3 21  3 37 29.0800000  0  4G 6G 8G11G 9
  21094269.918    21094271.233    -1636732.467 9   -987668.339 9
  20356615.922    20356620.110     -584471.790 9   -306373.731 7
  22066299.381    22066303.433    -2989993.492 9  -2036322.324 8
  23577660.273    23577664.242    -2847082.398 8  -1994545.026 9
 88  3 21  3 37 59.0800000  0  4G 6G 8G11G 9
  21084885.521    21084887.252    -1686043.902 9  -1026092.813 9
  20354882.820    20354886.569     -593582.699 9   -313473.138 8
  22049878.860    22049884.203    -3076280.677 9  -2103559.064 8
  23560724.761    23560727.789    -2936078.650 9  -2063892.682 8
 88  3 21  3 38 29.0800000  0  4G 6G 8G11G 9
  21075540.418    21075542.222    -1735151.414 9  -1064358.398 9
  20353282.931    20353284.977     -601995.388 9   -320028.459 8
  22033533.287    22033539.706    -3162177.813 9  -2170491.901 8
  23543783.543    23543786.981    -3025100.432 9  -2133260.208 8
 88  3 21  3 38 59.0800000  0  4G 6G 8G11G 9
  21066235.267    21066237.486    -1784053.009 9  -1102463.524 9
  20351813.028    20351817.168     -609710.057 9   -326039.861 7
  22017262.440    22017267.923    -3247682.384 9  -2237118.825 9
  23526838.620    23526842.383    -3114146.273 9  -2202646.493 9
 88  3 21  3 39 29.0800000  0  4G 6G 8G11G 9
  21056968.491    21056971.199    -1832746.260 9  -1140406.314 9
  20350478.230    20350479.821     -616726.624 9   -331507.295 6
  22001065.493    22001070.834    -3332791.999 9  -2303437.994 9
  23509889.398    23509893.464    -3203214.637 9  -2272050.360 9
 88  3 21  3 39 59.0800000  0  4G 6G 8G11G 9
  21047742.097    21047744.990    -1881229.104 9  -1178185.138 8
  20349274.865    20349278.808     -623045.043 9   -336430.689 7
  21984945.254    21984950.014    -3417504.470 9  -2369447.705 8
  23492935.068    23492940.452    -3292304.257 9  -2341470.772 9
 88  3 21  3 40 29.0800000  0  4G 6G 8G11G 9
  21038556.658    21038560.063    -1929499.341 9  -1215798.297 9
  20348207.225    20348209.691     -628666.174 9   -340810.783 8
  21968901.040    21968905.094    -3501817.320 9  -2435146.003 8
  23475978.011    23475982.633    -3381413.804 8  -2410906.727 8
 88  3 21  3 40 59.0800000  0  4G 6G 8G11G 9
  21029412.085    21029414.461    -1977555.056 9  -1253244.319 9
  20347269.294    20347272.294     -633590.394 9   -344647.828 8
  21952934.485    21952937.358    -3585728.161 9  -2500531.045 9
  23459018.229    23459022.728    -3470541.973 9  -2480357.170 8
 88  3 21  3 41 29.0800000  0  4G 6G 8G11G 9
  21020308.175    21020311.325    -2025394.175 9  -1290521.529 9
  20346464.625    20346468.849     -637817.845 8   -347941.925 7
  21937043.427    21937048.026    -3669235.125 9  -2565601.390 8
  23442055.161    23442057.942    -3559687.442 9  -2549821.128 9
 88  3 21  3 41 59.0800000  0  4G 6G 8G11G 9
  21011245.652    21011248.386    -2073014.211 9  -1327628.045 9
  20345792.778    20345796.528     -641348.824 9   -350693.314 6
  21921230.049    21921234.491    -3752335.547 9  -2630354.959 8
  23425087.947    23425092.959    -3648848.879 9  -2619297.517 9
 88  3 21  3 42 29.0800000  0  4G 6G 8G11G 9
  21002225.511    21002229.546    -2120413.219 9  -1364562.335 9
  20345253.771    20345256.401     -644183.739 9   -352902.317 8
  21905494.048    21905498.593    -3835027.129 9  -2694789.937 8
  23408119.745    23408122.793    -3738024.645 8  -2688785.061 8
 88  3 21  3 42 59.0800000  0  4G 6G 8G11G 9
  20993249.642    20993252.262    -2167588.691 9  -1401322.440 9
  20344846.316    20344849.120     -646323.316 9   -354569.491 9
  21889836.454    21889841.281    -3917307.663 9  -2758904.627 8
  23391146.057    23391149.843    -3827213.212 9  -2758282.574 8
 88  3 21  3 43 29.0800000  0  4G 6G 8G11G 9
  20984314.556    20984318.391    -2214538.932 9  -1437907.029 9
  20344571.239    20344574.134     -647768.206 9   -355695.353 8
  21874255.461    21874261.129    -3999175.485 9  -2822697.720 8
  23374172.076    23374176.618    -3916413.394 9  -2827789.117 9
 88  3 21  3 43 59.0800000  0  4G 6G 8G11G 9
  20975424.459    20975426.935    -2261261.605 9  -1474314.298 9
  20344429.176    20344432.014     -648518.349 9   -356279.857 8
  21858755.124    21858763.555    -4080628.180 8  -2886167.330 8
  23357195.180    23357199.739    -4005623.885 9  -2897303.714 8
 88  3 21  3 44 29.0800000  0  4G 6G 8G11G 9
  20966576.401    20966580.590    -2307754.454 9  -1510542.485 9
  20344419.878    20344420.078     -648574.212 9   -356323.383 8
  21843336.618    21843341.560    -4161663.322 9  -2949311.550 9
  23340217.826    23340222.046    -4094843.056 9  -2966825.083 8
 88  3 21  3 44 59.0800000  0  4G 6G 8G11G 9
  20957772.671    20957778.122    -2354015.359 9  -1546589.920 9
  20344539.716    20344540.970     -647936.744 9   -355826.670 7
  21827996.186    21828000.853    -4242278.533 9  -3012128.590 8
  23323237.321    23323242.762    -4184069.525 9  -3036352.145 8
 88  3 21  3 45 29.0800000  0  4G 6G 8G11G 9
  20949015.017    20949017.210    -2400042.058 9  -1582454.871 8
  20344790.612    20344795.462     -646606.559 9   -354790.149 8
  21812734.532    21812740.106    -4322472.027 9  -3074616.998 7
  23306257.690    23306263.180    -4273301.519 9  -3105883.520 9
 88  3 21  3 45 59.0800000  0  4G 6G 8G11G 9
  20940301.723    20940304.095    -2445832.213 9  -1618135.513 9
  20345176.582    20345180.608     -644584.548 9   -353214.550 8
  21797556.873    21797560.687    -4402241.632 9  -3136775.118 8
  23289277.188    23289282.290    -4362537.792 9  -3175418.221 8
 88  3 21  3 46 29.0800000  0  4G 6G 8G11G 9
  20931633.530    20931636.865    -2491384.020 9  -1653630.411 8
  20345693.255    20345696.985     -641871.268 9   -351100.281 8
  21782458.357    21782463.323    -4481585.221 9  -3198601.278 8
  23272294.806    23272299.197    -4451777.150 9  -3244955.312 9
 88  3 21  3 46 59.0800000  0  4G 6G 8G11G 9
  20923011.155    20923013.577    -2536695.131 9  -1688937.766 9
  20346340.335    20346343.435     -638467.251 8   -348447.774 7
  21767439.673    21767444.681    -4560500.463 9  -3260093.656 8
  23255313.233    23255316.998    -4541017.746 9  -3314493.374 8
 88  3 21  3 47 29.0800000  0  4G 6G 8G11G 9
  20914433.799    20914438.034    -2581762.843 9  -1724055.457 9
  20347121.062    20347122.979     -634373.011 9   -345257.454 9
  21752506.012    21752509.286    -4638984.959 9  -3321250.372 7
  23238331.837    23238334.432    -4630257.556 8  -3384030.825 8
 88  3 21  3 47 59.0800000  0  4G 6G 8G11G 9
  20905904.233    20905907.585    -2626585.198 9  -1758981.952 9
  20348030.815    20348032.317     -629589.802 9   -341530.279 8
  21737653.296    21737656.871    -4717036.515 9  -3382069.753 8
  23221351.052    23221353.914    -4719495.449 9  -3453566.777 9
 88  3 21  3 48 29.0800000  0  4G 6G 8G11G 9
  20897422.751    20897425.501    -2671160.183 9  -1793715.681 8
  20349071.683    20349074.826     -624118.519 9   -337266.928 7
  21722882.024    21722886.677    -4794653.784 9  -3442550.732 8
  23204370.070    23204372.272    -4808729.958 8  -3523100.101 8
 88  3 21  3 48 59.0800000  0  4G 6G 8G11G 9
  20888989.172    20888991.597    -2715485.509 9  -1828254.909 9
  20350244.290    20350247.195     -617960.000 9   -332468.081 8
  21708194.405    21708200.782    -4871834.759 9  -3502691.727 8
  23187388.769    23187393.806    -4897959.319 9  -3592629.430 9
 88  3 21  3 49 29.0800000  0  4G 6G 8G11G 9
  20880601.584    20880605.288    -2759558.850 9  -1862597.757 9
  20351546.345    20351548.081     -611114.986 9   -327134.284 7
  21693591.596    21693597.817    -4948576.971 9  -3562490.827 9
  23170410.557    23170414.690    -4987182.283 9  -3662153.761 9
 88  3 21  3 49 59.0800000  0  4G 6G 8G11G 9
  20872263.447    20872265.437    -2803377.750 9  -1896742.358 9
  20352978.550    20352981.297     -603584.521 9   -321266.378 8
  21679073.328    21679076.775    -5024878.461 9  -3621946.492 8
  23153433.181    23153437.206    -5076396.777 9  -3731671.495 9
 88  3 21  3 50 29.0800000  0  4G 6G 8G11G 9
  20863973.591    20863977.026    -2846940.121 9  -1930687.065 9
  20354542.266    20354543.754     -595369.572 9   -314865.109 7
  21664636.557    21664641.389    -5100737.117 9  -3681057.113 8
  23136458.593    23136462.346    -5165601.287 9  -3801181.456 8
 88  3 21  3 50 59.0800000  0  4G 6G 8G11G 9
  20855731.669    20855737.694    -2890243.755 9  -1964430.133 9
  20356235.883    20356239.315     -586470.787 9   -307930.976 9
  21650285.764    21650290.529    -5176150.820 9  -3739820.993 8
  23119485.875    23119488.689    -5254794.269 9  -3870682.432 8
 88  3 21  3 51 29.0800000  0  4G 6G 8G11G 9
  20847542.978    20847546.458    -2933285.541 9  -1997969.168 9
  20358058.890    20358063.784     -576888.404 9   -300464.186 9
  21636020.748    21636025.496    -5251116.907 9  -3798236.088 8
  23102514.941    23102518.734    -5343973.338 8  -3940172.568 9
 88  3 21  3 51 59.0800000  0  4G 6G 8G11G 9
  20839402.339    20839405.187    -2976064.247 9  -2031303.216 9
  20360011.362    20360016.205     -566624.615 9   -292466.410 8
  21621840.823    21621845.218    -5325634.791 9  -3856301.906 8
  23085548.077    23085552.076    -5433137.851 9  -4009651.354 9
 88  3 21  3 52 29.0800000  0  4G 6G 8G11G 9
  20831312.697    20831314.455    -3018577.753 9  -2064430.607 9
  20362094.981    20362097.914     -555680.630 9   -283938.631 9
  21607745.360    21607749.657    -5399702.393 9  -3914016.899 8
  23068584.066    23068587.960    -5522286.172 9  -4079117.536 8
 88  3 21  3 52 59.0800000  0  4G 6G 8G11G 9
  20823272.364    20823275.742    -3060823.283 9  -2097349.190 9
  20364307.619    20364310.180     -544056.860 8   -274881.151 8
  21593737.433    21593741.943    -5473316.985 9  -3971378.902 7
  23051623.294    23051626.866    -5611416.005 9  -4148569.289 9
 88  3 21  3 53 29.0800000  0  4G 6G 8G11G 9
  20815284.571    20815287.607    -3102798.639 9  -2130057.256 9
  20366648.009    20366650.189     -531754.826 9   -265295.150 8
  21579815.580    21579820.384    -5546477.276 9  -4028386.890 8
  23034666.199    23034671.372    -5700525.852 9  -4218005.489 8
 88  3 21  3 53 59.0800000  0  4G 6G 8G11G 9
  20807349.327    20807352.034    -3144501.482 9  -2162552.962 9
  20369116.926    20369120.708     -518775.385 8   -255181.273 8
  21565981.156    21565983.756    -5619181.014 9  -4085039.125 8
  23017711.564    23017717.743    -5789613.910 9  -4287424.720 8
 88  3 21  3 54 29.0800000  0  4G 6G 8G11G 9
  20799464.623    20799467.740    -3185929.645 9  -2194834.649 9
  20371715.484    20371719.247     -505119.830 9   -244540.547 8
  21552232.760    21552236.950    -5691426.160 9  -4141334.025 9
  23000763.979    23000767.610    -5878678.788 9  -4356825.856 8
 88  3 21  3 54 59.0800000  0  4G 6G 8G11G 9
  20791635.350    20791637.942    -3227080.971 9  -2226900.603 9
  20374443.071    20374445.517     -490789.616 9   -233374.146 8
  21538571.812    21538576.887    -5763211.333 9  -4197270.488 8
  22983820.500    22983824.909    -5967718.550 9  -4426207.438 9
 88  3 21  3 55 29.0800000  0  4G 6G 8G11G 9
  20783858.451    20783860.024    -3267953.140 9  -2258749.026 9
  20377299.197    20377301.258     -475786.054 9   -221683.043 8
  21524999.629    21525002.426    -5834534.508 9  -4252846.962 8
  22966881.333    22966885.752    -6056731.480 9  -4495568.110 9
 88  3 21  3 55 59.0800000  0  4G 6G 8G11G 9
  20776132.545    20776134.548    -3308543.956 9  -2290378.213 9
  20380280.177    20380283.751     -460110.444 9   -209468.281 8
  21511516.236    21511519.774    -5905393.826 9  -4308061.994 8
  22949948.900    22949952.618    -6145715.997 9  -4564906.649 8
 88  3 21  3 56 29.0800000  0  4G 6G 8G11G 9
  20768463.139    20768465.613    -3348850.741 9  -2321786.102 9
  20383391.028    20383395.513     -443763.512 8   -196730.406 8
  21498120.152    21498124.734    -5975787.493 9  -4362914.199 8
  22933021.171    22933025.760    -6234670.018 9  -4634221.423 9
 88  3 21  3 56 59.0800000  0  4G 6G 8G11G 9
  20760847.817    20760847.769    -3388871.189 9  -2352970.857 8
  20386629.846    20386632.021     -426746.730 9   -183470.562 8
  21484812.374    21484818.769    -6045713.220 9  -4417401.731 8
  22916099.167    22916104.568    -6323591.572 9  -4703510.894 8
 88  3 21  3 57 29.0800000  0  4G 6G 8G11G 9
  20753285.353    20753287.612    -3428603.271 9  -2383930.915 8
  20389994.884    20389998.361     -409061.800 9   -169690.094 9
  21471595.069    21471600.409    -6115169.817 9  -4471523.716 8
  22899184.849    22899189.365    -6412479.161 9  -4772773.914 9
 88  3 21  3 57 59.0800000  0  4G 6G 8G11G 9
  20745780.356    20745783.084    -3468044.963 9  -2414664.695 9
  20393488.395    20393490.317     -390709.987 9   -155389.980 8
  21458468.664    21458473.089    -6184155.924 9  -4525279.107 8
  22882277.226    22882281.505    -6501331.263 9  -4842009.269 9
 88  3 21  3 58 29.0800000  0  4G 6G 8G11G 9
  20738331.451    20738332.194    -3507193.855 9  -2445170.323 9
  20397106.711    20397109.530     -371693.019 9   -140571.565 8
  21445432.602    21445435.028    -6252669.428 9  -4578666.241 7
  22865376.490    22865379.246    -6590146.023 9  -4911215.540 9
 88  3 21  3 58 59.0800000  0  4G 6G 8G11G 9
  20730937.749    20730940.655    -3546047.518 9  -2475445.891 8
  20400851.301    20400854.444     -352012.312 9   -125235.941 8
  21432483.470    21432486.991    -6320708.640 9  -4631683.807 8
  22848482.985    22848487.056    -6678921.275 9  -4980391.031 8
 88  3 21  3 59 29.0800000  0  4G 6G 8G11G 9
  20723600.912    20723603.391    -3584603.794 9  -2505489.737 9
  20404722.504    20404726.912     -331669.545 9   -109384.431 8
  21419626.445    21419630.566    -6388271.822 9  -4684330.401 8
  22831596.198    22831600.738    -6767655.255 9  -5049534.325 8
 88  3 21  3 59 59.0800000  0  4G 6G 8G11G 9
  20716320.600    20716322.931    -3622860.434 9  -2535300.104 9
  20408718.401    20408721.903     -310665.889 9    -93017.932 7
  21406861.458    21406865.664    -6455357.271 9  -4736604.729 9
  22814719.098    22814723.184    -6856346.385 9  -5118644.265 9
 88  3 21  4  0 29.0800000  0  4G 6G 8G11G 9
  20709097.894    20709099.840    -3660814.865 9  -2564874.992 9
  20412840.902    20412843.624     -289002.972 9    -76137.716 7
  21394187.877    21394191.583    -6521963.458 9  -4788505.609 7
  22797851.018    22797854.846    -6944992.603 9  -5187719.179 9
 88  3 21  4  0 59.0800000  0  4G 6G 8G11G 9
  20701932.685    20701936.559    -3698465.029 9  -2594212.782 9
  20417089.027    20417091.173     -266682.982 8    -58745.484 7
  21381603.054    21381607.301    -6588088.819 9  -4840031.833 9
  22780991.972    22780994.877    -7033591.990 9  -5256757.629 9
 88  3 21  4  1 29.0800000  0  4G 6G 8G11G 9
  20694826.082    20694829.628    -3735808.698 9  -2623311.742 8
  20421460.444    20421462.162     -243707.087 8    -40842.198 7
  21369112.003    21369115.739    -6653731.609 9  -4891182.029 8
  22764140.638    22764143.624    -7122142.707 9  -5325758.144 8
 88  3 21  4  1 59.0800000  0  4G 6G 8G11G 9
  20687778.722    20687781.270    -3772843.696 9  -2652170.172 9
  20425956.650    20425961.228     -220077.391 8    -22429.460 8
  21356712.073    21356716.120    -6718890.494 9  -4941955.176 8
  22747299.415    22747303.716    -7210643.071 9  -5394719.437 8
 88  3 21  4  2 29.0800000  0  4G 6G 8G11G 9
  20680790.746    20680793.792    -3809567.522 9  -2680786.150 8
  20430577.368    20430581.370     -195795.188 9     -3508.263 8
  21344404.497    21344410.644    -6783563.867 9  -4992350.009 7
  22730469.213    22730472.512    -7299090.937 8  -5463639.817 8
 88  3 21  4  2 59.0800000  0  4G 6G 8G11G 9
  20673861.778    20673864.426    -3845977.875 9  -2709157.842 8
  20435322.271    20435326.956     -170862.144 9     15920.093 9
  21332190.896    21332196.520    -6847749.991 9  -5042365.126 8
  22713647.940    22713651.162    -7387484.404 9  -5532517.804 8
 88  3 21  4  3 29.0800000  0  4G 6G 8G11G 9
  20666992.627    20666995.570    -3882072.227 9  -2737283.300 8
  20440190.342    20440195.283     -145279.936 9     35854.302 9
  21320069.879    21320074.585    -6911447.030 9  -5091999.133 8
  22696838.713    22696841.667    -7475821.149 9  -5601351.591 9
 88  3 21  4  3 59.0800000  0  4G 6G 8G11G 9
  20660185.400    20660187.464    -3917848.388 9  -2765160.826 9
  20445183.271    20445186.088     -119050.487 9     56292.855 9
  21308041.793    21308046.136    -6974653.697 9  -5141251.048 8
  22680039.477    22680043.076    -7564099.480 9  -5670139.865 8
 88  3 21  4  4 29.0800000  0  4G 6G 8G11G 9
  20653437.989    20653441.651    -3953304.293 9  -2792788.798 9
  20450297.322    20450300.031      -92175.659 9     77234.270 8
  21296107.861    21296112.552    -7037368.680 9  -5190119.872 8
  22663252.371    22663256.321    -7652317.692 9  -5738881.284 8
 88  3 21  4  4 59.0800000  0  4G 6G 8G11G 9
  20646752.279    20646755.872    -3988437.395 9  -2820165.241 9
  20455533.359    20455536.736      -64657.043 9     98677.361 8
  21284266.770    21284272.526    -7099590.548 9  -5238604.404 8
  22646475.858    22646481.021    -7740473.483 9  -5807574.080 9
 88  3 21  4  5 29.0800000  0  4G 6G 8G11G 9
  20640130.220    20640133.638    -4023238.941 9  -2847283.321 9
  20460892.628    20460895.851      -36489.966 9    120625.745 8
  21272521.660    21272527.031    -7161311.184 9  -5286698.378 9
  22629713.905    22629717.619    -7828558.302 9  -5876211.557 9
 88  3 21  4  5 59.0800000  0  4G 6G 8G11G 9
  20633571.376    20633574.352    -4057710.482 9  -2874144.256 9
  20466376.089    20466377.903       -7679.950 9    143075.132 8
  21260871.076    21260876.209    -7222532.853 9  -5334403.554 8
  22612964.999    22612968.202    -7916574.095 9  -5944795.260 8
 88  3 21  4  6 29.0800000  0  4G 6G 8G11G 9
  20627073.000    20627078.438    -4091853.307 9  -2900749.065 9
  20471978.180    20471982.095       21767.189 9    166020.968 8
  21249315.753    21249320.431    -7283257.833 9  -5381721.678 8
  22596229.397    22596233.098    -8004522.325 9  -6013326.311 9
 88  3 21  4  6 59.0800000  0  4G 6G 8G11G 9
  20620639.590    20620642.463    -4125664.098 9  -2927095.135 9
  20477703.394    20477707.563       51850.496 8    189462.513 8
  21237855.570    21237861.019    -7343483.658 9  -5428650.878 9
  22579506.781    22579510.624    -8092400.102 9  -6081802.473 8
 88  3 21  4  7 29.0800000  0  4G 6G 8G11G 9
  20614270.087    20614272.343    -4159140.680 9  -2953180.777 9
  20483548.541    20483552.113       82568.176 9    213398.347 8
  21226490.764    21226495.281    -7403208.948 9  -5475190.023 8
  22562798.052    22562800.546    -8180205.200 9  -6150222.008 9
 88  3 21  4  7 59.0800000  0  4G 6G 8G11G 9
  20607964.286    20607965.358    -4192281.068 9  -2979004.438 8
  20489512.987    20489517.461      113917.800 8    237826.625 8
  21215220.467    21215225.218    -7462432.678 9  -5521338.349 8
  22546104.405    22546106.154    -8267936.126 9  -6218583.747 8
 88  3 21  4  8 29.0800000  0  4G 6G 8G11G 9
  20601721.873    20601723.588    -4225083.037 9  -3004564.399 9
  20495597.884    20495602.825      145897.511 9    262745.885 8
  21204046.138    21204051.720    -7521153.569 8  -5567094.835 8
  22529423.366    22529427.355    -8355590.670 9  -6286885.974 9
 88  3 21  4  8 59.0800000  0  4G 6G 8G11G 9
  20595544.455    20595545.899    -4257544.670 9  -3029859.178 9
  20501805.839    20501808.121      178504.891 8    288154.232 8
  21192967.644    21192972.583    -7579370.811 9  -5612458.876 8
  22512759.167    22512762.461    -8443167.293 9  -6355127.459 9
 88  3 21  4  9 29.0800000  0  4G 6G 8G11G 9
  20589431.001    20589432.301    -4319524.002 9  -3054892.682 8
  20508128.317    20508131.331      211730.380 9    359881.230 8
  21181983.007    21181988.937    -7661766.390 9  -5657435.165 8
  22496106.552    22496109.710    -8530671.183 9  -6356174.281 9
 88  3 21  4  9 59.0800000  0  4G 6G 8G11G 9
  20583381.563    20583385.356    -4351306.106 9  -3079657.962 8
  20514569.454    20514570.542      245578.612 9    386256.475 9
  21171096.255    21171100.089    -7718980.375 9  -5702017.458 8
  22479470.924    22479473.680    -8618093.561 9  -6424295.591 8
 88  3 21  4 10 29.0800000  0  4G 6G 8G11G 9
  20577400.206    20577403.933    -4382740.384 9  -3104152.201 8
  20521129.334    20521131.585      280048.713 9    413116.298 9
  21160305.974    21160310.595    -7775686.456 9  -5746203.972 8
  22462850.206    22462853.450    -8705431.007 9  -6492350.709 8
 88  3 21  4 10 59.0800000  0  4G 6G 8G11G 9
  20571484.270    20571487.897    -4413824.877 9  -3128373.881 9
  20527805.494    20527809.345      315138.136 9    440458.690 8
  21149610.478    21149616.439    -7831883.324 9  -5789993.710 8
  22446247.504    22446249.889    -8792681.646 9  -6560338.197 9
 88  3 21  4 11 29.0800000  0  4G 6G 8G11G 9
  20565637.543    20565641.188    -4444556.936 9  -3152320.936 9
  20534599.449    20534603.485      350845.504 9    468282.615 9
  21139014.780    21139020.354    -7887569.335 9  -5833385.388 8
  22429662.171    22429664.534    -8879842.817 9  -6628255.977 8
 88  3 21  4 11 59.0800000  0  4G 6G 8G11G 9
  20559855.694    20559860.856    -4474934.143 9  -3175991.475 9
  20541511.992    20541515.397      387168.250 9    496586.060 8
  21128515.193    21128521.228    -7942743.709 9  -5876378.383 9
  22413092.286    22413095.618    -8966912.641 9  -6696102.558 8
 88  3 21  4 12 29.0800000  0  4G 6G 8G11G 9
  20554143.300    20554147.438    -4504954.405 9  -3199383.892 9
  20548540.359    20548544.656      424104.148 9    525367.283 9
  21118113.859    21118117.576    -7997404.887 9  -5918971.463 8
  22396540.964    22396544.576    -9053888.729 9  -6763876.101 9
 88  3 21  4 12 59.0800000  0  4G 6G 8G11G 9
  20548498.265    20548503.419    -4534615.473 9  -3222496.443 9
  20555686.634    20555688.239      461651.277 9    554624.807 8
  21107810.750    21107813.842    -8051552.088 9  -5961164.043 7
  22380008.419    22380011.252    -9140769.111 8  -6831575.082 8
 88  3 21  4 13 29.0800000  0  4G 6G 8G11G 9
  20542923.250    20542927.246    -4563915.158 9  -3245327.365 9
  20562948.355    20562950.341      499807.260 9    584356.754 8
  21097604.507    21097608.568    -8105184.389 9  -6002955.404 8
  22363493.338    22363497.067    -9227551.470 9  -6899197.649 8
 88  3 21  4 13 59.0800000  0  4G 6G 8G11G 9
  20537417.530    20537420.862    -4592851.017 8  -3267874.778 8
  20570323.255    20570326.989      538569.891 9    614561.400 8
  21087496.752    21087501.157    -8158300.523 9  -6044344.578 8
  22346998.680    22347003.016    -9314233.803 9  -6966742.297 9
 88  3 21  4 14 29.0800000  0  4G 6G 8G11G 9
  20531981.067    20531983.407    -4621420.989 9  -3290137.091 7
  20577813.609    20577816.857      577936.749 9    645236.880 8
  21077488.298    21077491.695    -8210899.175 9  -6085330.512 8
  22330523.694    22330527.621    -9400813.637 9  -7034207.059 9
 88  3 21  4 14 59.0800000  0  4G 6G 8G11G 9
  20526615.596    20526617.102    -4649622.762 9  -3312112.495 9
  20585419.352    20585422.671      617905.551 9    676381.414 9
  21067577.167    21067580.906    -8262979.589 9  -6125912.627 9
  22314068.139    22314071.588    -9487288.949 9  -7101590.407 9
 88  3 21  4 15 29.0800000  0  4G 6G 8G11G 9
  20521318.819    20521321.697    -4677454.040 9  -3333799.199 8
  20593138.963    20593143.228      658473.745 9    707992.996 9
  21057765.160    21057768.292    -8314540.517 8  -6166089.931 8
  22297633.358    22297633.821    -9573657.348 9  -7168890.457 8
 88  3 21  4 15 59.0800000  0  4G 6G 8G11G 9
  20516093.807    20516097.191    -4704912.425 9  -3355195.320 8
  20600971.961    20600976.242      699639.034 8    740069.848 9
  21048052.879    21048058.378    -8365580.653 8  -6205861.448 8
  22281217.783    22281220.128    -9659916.557 9  -7236105.399 9
 88  3 21  4 16 29.0800000  0  4G 6G 8G11G 9
  20510939.329    20510941.798    -4731995.977 9  -3376299.385 9
  20608920.701    20608923.214      741399.293 8    772610.318 9
  21038438.212    21038445.233    -8416099.537 9  -6245226.780 8
  22264824.440    22264826.511    -9746064.436 9  -7303233.580 9
 88  3 21  4 16 59.0800000  0  4G 6G 8G11G 9
  20505857.095    20505860.378    -4758702.392 9  -3397109.576 8
  20616980.153    20616983.759      783752.173 9    805612.558 8
  21028924.328    21028930.221    -8466096.192 9  -6284185.183 8
  22248453.011    22248454.137    -9832098.597 9  -7370273.171 9
 88  3 21  4 17 29.0800000  0  4G 6G 8G11G 9
  20500847.198    20500849.766    -4785029.378 9  -3417624.105 8
  20625152.826    20625154.399      826695.248 9    839074.677 9
  21019511.858    21019515.321    -8515569.546 9  -6322735.839 7
  22232103.608    22232107.287    -9918016.889 9  -7437222.457 7
 88  3 21  4 17 59.0800000  0  4G 6G 8G11G 9
  20495909.046    20495913.251    -4810974.842 9  -3437841.344 9
  20633436.564    20633438.599      870225.709 9    872994.530 9
  21010196.535    21010201.200    -8564518.528 9  -6360877.877 8
  22215776.006    22215778.954   -10003817.127 9  -7504079.778 9
 88  3 21  4 18 29.0800000  0  4G 6G 8G11G 9
  20491045.829    20491049.731    -4836536.492 9  -3457759.515 8
  20641829.997    20641832.745      914341.547 9    907370.518 8
  21000980.803    21000985.039    -8612942.278 9  -6398610.645 8
  22199471.419    22199474.810   -10089496.759 9  -7570843.103 9
 88  3 21  4 18 59.0800000  0  4G 6G 8G11G 9
  20486255.416    20486259.228    -4861711.779 8  -3477376.634 8
  20650335.472    20650339.106      959039.931 9    942200.440 9
  20991865.499    20991871.727    -8660839.875 8  -6435933.423 9
  22183191.130    22183193.787   -10175053.399 9  -7637510.596 9
 88  3 21  4 19 29.0800000  0  4G 6G 8G11G 9
  20481537.426    20481541.634    -4886498.741 9  -3496691.137 8
  20658954.132    20658955.532     1004318.401 9    977482.379 9
  20982850.766    20982856.598    -8708210.575 9  -6472845.628 8
  22166933.362    22166938.091   -10260484.728 9  -7704080.433 8
 88  3 21  4 19 59.0800000  0  4G 6G 8G11G 9
  20476894.769    20476899.535    -4910895.306 8  -3515701.428 8
  20667679.568    20667681.911     1050174.412 9   1013214.333 9
  20973936.210    20973942.707    -8755053.552 8  -6509346.596 8
  22150700.385    22150704.292   -10345788.627 9  -7770550.992 8
 88  3 21  4 20 29.0800000  0  4G 6G 8G11G 9
  20472327.169    20472331.154    -4934899.204 9  -3534405.764 8
  20676514.695    20676518.634     1096605.703 9   1049394.547 9
  20965124.318    20965130.082    -8801368.038 9  -6545435.795 8
  22134493.334    22134495.992   -10430962.526 9  -7836920.222 9
 88  3 21  4 20 59.0800000  0  4G 6G 8G11G 9
  20467835.465    20467838.348    -4958508.131 9  -3552802.330 9
  20685458.177    20685461.351     1143609.688 9   1086021.034 9
  20956412.041    20956416.311    -8847153.121 9  -6581112.458 9
  22118309.497    22118312.429   -10516004.117 9  -7903186.374 9
 88  3 21  4 21 29.0800000  0  4G 6G 8G11G 9
  20463416.756    20463420.380    -4981720.038 8  -3570889.542 8
  20694510.717    20694515.095     1191183.567 9   1123091.592 9
  20947800.610    20947804.597    -8892408.036 9  -6616376.002 8
  22102152.162    22102155.022   -10600910.908 9  -7969347.490 9
 88  3 21  4 21 59.0800000  0  4G 6G 8G11G 9
  20459076.063    20459079.894    -5004532.718 9  -3588665.632 9
  20703672.842    20703676.819     1239325.181 9   1160604.535 9
  20939288.456    20939293.284    -8937132.170 9  -6651225.960 8
  22086021.219    22086023.590   -10685680.704 9  -8035401.852 9
 88  3 21  4 22 29.0800000  0  4G 6G 8G11G 9
  20454813.544    20454816.446    -5026944.007 9  -3606128.972 9
  20712941.598    20712944.173     1288031.729 9   1198557.686 9
  20930878.275    20930884.695    -8981324.667 8  -6685661.647 8
  22069917.030    22069918.545   -10770311.105 8  -8101347.589 8
 88  3 21  4 22 59.0800000  0  4G 6G 8G11G 9
  20450623.648    20450627.615    -5048951.851 8  -3623277.941 9
  20722315.696    20722319.847     1337300.593 9   1236949.025 8
  20922570.685    20922576.452    -9024984.788 9  -6719682.494 8
  22053839.852    22053841.935   -10854799.731 9  -8167182.877 8
 88  3 21  4 23 29.0800000  0  4G 6G 8G11G 9
  20446513.333    20446517.256    -5070554.091 9  -3640110.881 8
  20731796.973    20731801.453     1387128.812 9   1275776.223 9
  20914363.614    20914369.066    -9068112.215 9  -6753288.268 8
  22037788.188    22037789.900   -10939144.365 9  -8232905.953 8
 88  3 21  4 23 59.0800000  0  4G 6G 8G11G 9
  20442479.618    20442483.643    -5091748.521 9  -3656626.025 8
  20741386.310    20741389.429     1437514.135 9   1315037.515 8
  20906258.539    20906264.350    -9110706.147 8  -6786478.309 8
  22021765.670    22021769.593   -11023341.952 9  -8298514.451 9
 88  3 21  4 24 29.0800000  0  4G 6G 8G11G 9
  20438524.356    20438529.357    -5112532.980 8  -3672821.719 9
  20751081.424    20751084.211     1488453.587 9   1354730.598 9
  20898255.651    20898259.759    -9152766.099 9  -6819252.270 8
  22005772.010    22005775.453   -11107390.665 9  -8364006.953 8
 88  3 21  4 24 59.0800000  0  4G 6G 8G11G 9
  20434647.930    20434653.400    -5132905.390 9  -3688696.333 9
  20760879.731    20760882.780     1539944.748 9   1394853.580 9
  20890353.039    20890357.392    -9194291.469 9  -6851609.690 8
  21989807.547    21989810.302   -11191288.022 9  -8429381.499 8
 88  3 21  4 25 29.0800000  0  4G 6G 8G11G 9
  20430849.571    20430852.945    -5152863.598 8  -3704248.172 9
  20770781.154    20770785.374     1591984.355 9   1435403.927 8
  20882553.529    20882557.441    -9235281.394 8  -6883549.879 8
  21973871.479    21973874.498   -11275031.385 9  -8494636.046 9
 88  3 21  4 25 59.0800000  0  4G 6G 8G11G 9
  20427132.052    20427135.345    -5172405.428 8  -3719475.580 9
  20780786.776    20780791.884     1644569.872 9   1476379.653 9
  20874855.167    20874859.850    -9275735.106 9  -6915072.230 9
  21957965.197    21957968.662   -11358618.132 9  -8559768.552 8
 88  3 21  4 26 29.0800000  0  4G 6G13G11G 9
  20423492.095    20423496.862    -5191528.798 9  -3734376.895 8
                  23851141.550   -23516883.743 9
  20867259.659    20867264.120    -9315652.143 8  -6946176.398 8
  21942088.246    21942092.433   -11442045.766 9  -8624777.073 9
 88  3 21  4 26 59.0800000  0  4G 6G13G11G 9
  20419934.189    20419937.829    -5210231.638 8  -3748950.548 9
  23830157.213    23830161.255   -23627297.392 8  29888343.682 8
  20859766.159    20859770.336    -9355032.375 9  -6976862.253 7
  21926244.301    21926247.023   -11525312.074 8  -8689659.895 9
 88  3 21  4 27 29.0800000  0  4G 6G13G11G 9
  20416454.728    20416459.991    -5228511.888 9  -3763194.901 9
  23809188.015    23809192.257   -23737491.396 9  29802478.262 8
  20852373.911    20852378.438    -9393874.930 8  -7007129.148 8
  21910431.321    21910434.097   -11608414.336 9  -8754414.880 9
 88  3 21  4 27 59.0800000  0  4G 6G13G11G 9
  20413056.359    20413062.245    -5246367.565 8  -3777108.413 9
  23788259.986    23788266.586   -23847463.973 9  29716785.369 7
  20845084.340    20845089.037    -9432179.908 8  -7036977.176 9
  21894648.619    21894651.095   -11691350.210 9  -8819040.232 9
 88  3 21  4 28 29.0800000  0  4G 6G13G11G 9
  20409741.348    20409744.395    -5263796.504 9  -3790689.403 9
  23767375.808    23767381.162   -23957212.839 9  29631266.796 8
  20837898.797    20837901.990    -9469946.798 9  -7066405.893 8
  21878899.668    21878902.050   -11774117.139 9  -8883533.916 9
 88  3 21  4 28 59.0800000  0  4G 6G13G11G 9
  20406507.794    20406509.089    -5280796.537 9  -3803936.180 9
  23746533.643    23746540.167   -24066735.309 9  29545924.639 8
  20830814.042    20830817.974    -9507175.191 9  -7095415.020 8
  21863181.421    21863184.360   -11856712.755 9  -8947894.123 8
 88  3 21  4 29 29.0800000  0  4G 6G13G11G 9
  20403353.140    20403355.690    -5297365.664 9  -3816847.170 9
  23725737.155    23725741.985   -24176028.983 9  29460760.774 7
  20823831.809    20823836.662    -9543864.229 8  -7124003.860 8
  21847497.522    21847499.261   -11939133.958 9  -9012118.421 8
 88  3 21  4 29 59.0800000  0  4G 6G13G11G 9
  20400281.462    20400283.673    -5313501.906 9  -3829420.854 9
  23704983.416    23704987.938   -24285091.247 8  29375777.226 8
  20816951.883    20816957.075    -9580013.575 8  -7152172.151 8
  21831846.379    21831849.334   -12021378.754 9  -9076205.262 8
 88  3 21  4 30 29.0800000  0  4G 6G13G11G 9
  20397293.566    20397296.991    -5329203.272 9  -3841655.704 9
  23684273.466    23684279.446   -24393920.245 8  29290975.438 9
  20810174.352    20810179.709    -9615623.193 8  -7179919.870 9
  21816229.607    21816231.950   -12103444.408 9  -9140152.496 8
 88  3 21  4 30 59.0800000  0  4G 6G13G11G 9
  20394388.800    20394392.758    -5344467.767 9  -3853550.128 9
  23663609.136    23663615.072   -24502513.029 9  29206357.717 8
  20803502.073    20803505.532    -9650692.648 8  -7207246.694 8
  21800646.776    21800648.962   -12185328.491 9  -9203958.272 8
 88  3 21  4 31 29.0800000  0  4G 6G13G11G 9
  20391568.667    20391571.575    -5359293.458 9  -3865102.614 8
  23642990.849    23642994.944   -24610867.930 8  29121925.338 8
  20796933.252    20796935.445    -9685221.999 8  -7234152.666 8
  21785100.071    21785103.235   -12267028.396 9  -9267620.526 8
 88  3 21  4 31 59.0800000  0  4G 6G13G11G 9
  20388831.145    20388833.039    -5373678.468 9  -3876311.719 8
  23622416.411    23622422.620   -24718982.440 9  29037680.270 9
  20790463.808    20790468.865    -9719210.729 8  -7260637.363 7
  21769590.039    21769592.258   -12348541.558 9  -9331137.247 8
 88  3 21  4 32 29.0800000  0  4G 6G13G11G 9
  20386176.466    20386181.420    -5387620.520 9  -3887175.659 9
  23601888.900    23601895.441   -24826854.054 8  28953624.510 8
  20784098.628    20784105.107    -9752658.398 9  -7286700.463 8
  21754114.355    21754117.382   -12429865.369 9  -9394506.430 9
 88  3 21  4 32 59.0800000  0  4G 6G13G11G 9
  20383609.427    20383612.946    -5401117.684 8  -3897692.939 8
  23581408.831    23581413.817   -24934480.306 8  28869759.930 8
  20777836.440    20777841.883    -9785565.191 8  -7312342.102 9
  21738675.004    21738677.248   -12510997.286 9  -9457726.094 9
 88  3 21  4 33 29.0800000  0  4G 6G13G11G 9
  20381126.415    20381129.558    -5414168.140 8  -3907862.130 8
  23560974.127    23560979.775   -25041859.072 9  28786088.202 9
  20771678.435    20771683.372    -9817930.696 8  -7337561.966 8
  21723273.900    21723275.246   -12591934.571 9  -9520794.079 9
 88  3 21  4 33 59.0800000  0  4G 6G13G11G 9
  20378726.254    20378730.239    -5426769.770 1  -3917681.594 1
  23540588.375    23540593.450   -25148987.797 9  28702611.308 9
  20765621.442    20765627.965    -9849754.599 8  -7362359.800 8
  21707909.136    21707911.279   -12672674.631 9  -9583708.408 8
 88  3 21  4 34 29.0800000  0  4G 6G13G11G 9
  20376415.497    20376420.567    -5438920.723 1  -3927149.874 1
  23520250.346    23520255.636   -25255863.619 9  28619331.491 9
  20759669.752    20759675.308    -9881036.726 9  -7386735.453 8
  21692581.503    21692585.104   -12753214.731 9  -9646466.906 8
 88  3 21  4 34 59.0800000  0  4G 6G13G11G 9
  20374191.367    20374192.495    -5450618.980 9  -3936265.391 9
  23499961.524    23499966.222   -25362485.149 9  28536249.818 9
  20753820.722    20753826.373    -9911777.223 8  -7410689.054 7
  21677294.679    21677297.207   -12833552.431 9  -9709067.703 9
 88  3 21  4 35 29.0800000  0  4G 6G13G11G 9
  20372050.614    20372052.801    -5461862.537 8  -3945026.618 9
  23479720.521    23479725.914   -25468849.406 8  28453368.622 8
  20748074.052    20748077.320    -9941975.527 9  -7434220.182 7
  21662045.202    21662047.703   -12913684.752 9  -9771508.464 8
 88  3 21  4 35 59.0800000  0  4G 6G13G11G 9
  20369995.344    20370000.575    -5472649.526 8  -3953432.087 9
  23459528.313    23459534.992   -25574954.753 9  28370689.153 8
  20742430.752    20742434.098    -9971631.562 9  -7457328.749 7
  21646837.709    21646839.608   -12993609.543 9  -9833787.528 9
 88  3 21  4 36 29.0800000  0  4G 6G13G11G 9
  20368030.736    20368035.435    -5482978.169 8  -3961480.386 9
  23439386.701    23439392.781   -25680798.267 9  28288213.700 8
  20736888.616    20736894.637   -10000745.481 8  -7480014.885 7
  21631666.215    21631670.793   -13073323.622 8  -9895902.383 9
 88  3 21  4 36 59.0800000  0  4G 6G13G11G 9
  20366152.543    20366157.954    -5492846.614 9  -3969170.089 9
  23419294.823    23419302.991   -25786378.153 8  28205943.684 7
  20731452.877    20731456.866   -10029317.151 9  -7502278.499 8
  21616537.023    21616542.285   -13152824.750 9  -9957851.303 9
 88  3 21  4 37 29.0800000  0  4G 6G13G11G 9
  20364362.865    20364368.794    -5502252.976 9  -3976499.718 9
  23399254.471    23399261.251   -25891692.047 9  28123880.938 9
  20726119.147    20726123.486   -10057346.721 9  -7524119.708 9
  21601449.755    21601454.917   -13232110.270 9 -10019632.225 9
 88  3 21  4 37 59.0800000  0  4G 6G13G11G 9
  20362662.895    20362664.762    -5511195.478 8  -3983467.898 8
  23379267.966    23379271.906   -25996737.874 9  28042027.079 8
  20720887.988    20720891.526   -10084834.210 8  -7545538.520 7
  21586405.558    21586408.171   -13311177.329 9 -10081242.885 9
 88  3 21  4 38 29.0800000  0  4G 6G13G11G 9
  20361050.176    20361052.986    -5519672.366 9  -3990073.263 9
  23359330.297    23359334.573   -26101513.004 9  27960384.141 9
  20715760.316    20715766.132   -10111779.727 8  -7566535.001 7
  21571401.169    21571404.070   -13390023.351 9 -10142681.336 8
 88  3 21  4 38 59.0800000  0  4G 6G13G11G 9
  20359525.866    20359530.173    -5527681.561 8  -3996314.202 9
  23339443.426    23339448.845   -26206014.900 9  27878954.088 9
  20710735.622    20710741.975   -10138183.156 7  -7587109.084 8
  21556438.993    21556442.521   -13468645.492 9 -10203945.339 9
 88  3 21  4 39 29.0800000  0  4G 6G13G11G 9
  20358090.359    20358093.266    -5535221.198 8  -4002189.261 9
  23319608.878    23319614.025   -26310241.606 8  27797738.513 9
  20705814.895    20705819.502   -10164044.738 8  -7607260.956 8
  21541521.061    21541524.688   -13547041.066 9 -10265032.800 8
 88  3 21  4 39 59.0800000  0  4G 6G13G11G 9
  20356745.877    20356748.183    -5542289.716 8  -4007697.209 9
  23299828.845    23299834.001   -26414190.963 9  27716739.052 9
  20700997.742    20701001.895   -10189364.341 9  -7626990.518 9
  21526647.857    21526650.255   -13625207.154 9 -10325941.436 9
 88  3 21  4 40 29.0800000  0  4G 6G13G11G 9
  20355489.775    20355493.780    -5548885.279 9  -4012836.614 9
  23280098.995    23280105.674   -26517861.210 9  27635957.080 8
  20696282.450    20696285.802   -10214141.917 8  -7646297.705 8
  21511817.151    21511819.553   -13703141.591 9 -10386669.564 8
 88  3 21  4 40 59.0800000  0  4G 6G13G11G 9
  20354326.119    20354329.343    -5555006.046 9  -4017606.064 9
  23260425.645    23260431.124   -26621249.324 8  27555394.952 8
  20691669.316    20691673.773   -10238378.111 9  -7665183.016 8
  21497030.004    21497033.922   -13780841.501 9 -10447214.935 9
 88  3 21  4 41 29.0800000  0  4G 6G13G11G 9
  20353251.595    20353254.859    -5560650.118 9  -4022004.054 8
  23240805.833    23240811.232   -26724352.859 9  27475054.562 8
  20687161.802    20687165.139   -10262072.972 9  -7683646.520 8
  21482290.392    21482293.723   -13858303.591 9 -10507574.985 8
 88  3 21  4 41 59.0800000  0  4G 6G13G11G 9
  20352268.936    20352271.062    -5565815.995 9  -4026029.431 8
  23221241.315    23221246.356   -26827170.412 9  27394937.017 8
  20682755.386    20682759.653   -10285226.544 8  -7701688.259 8
  21467596.629    21467598.041   -13935525.584 9 -10567747.947 8
 88  3 21  4 42 29.0800000  0  4G 6G13G11G 9
  20351377.057    20351379.397    -5570502.036 9  -4029680.901 9
  23201730.281    23201735.401   -26929699.718 9  27315044.073 8
  20678452.661    20678456.637   -10307839.111 8  -7719308.432 8
  21452948.168    21452948.893   -14012505.233 9 -10627732.075 9
 88  3 21  4 42 59.0800000  0  4G 6G13G11G 9
  20350576.276    20350580.543    -5574706.472 9  -4032957.104 9
  23182273.821    23182279.844   -27031938.297 9  27235377.660 8
  20674251.780    20674257.110   -10329910.970 8  -7736507.277 8
  21438345.666    21438346.808   -14089238.795 9 -10687524.444 8
 88  3 21  4 43 29.0800000  0  4G 6G13G11G 9
  20349867.939    20349872.344    -5578427.677 9  -4035856.737 8
  23162874.179    23162878.840   -27133884.890 9  27155938.789 8
  20670152.996    20670160.531   -10351442.570 7  -7753285.120 9
  21423790.042    21423791.740   -14165724.674 9 -10747123.816 8
 88  3 21  4 43 59.0800000  0  4G 6G13G11G 9
  20349252.772    20349255.955    -5581663.776 9  -4038378.388 9
  23143531.200    23143536.235   -27235537.065 9  27076729.328 8
  20666159.447    20666164.979   -10372434.011 8  -7769642.055 8
  21409283.469    21409285.999   -14241959.221 9 -10806527.362 8
 88  3 21  4 44 29.0800000  0  4G 6G13G11G 9
  20348730.770    20348732.920    -5584413.359 9  -4040520.902 9
  23124244.843    23124249.977   -27336891.722 9  26997751.706 8
  20662268.747    20662272.687   -10392885.685 8  -7785578.427 8
  21394825.119    21394827.433   -14317940.029 9 -10865733.170 9
 88  3 21  4 44 59.0800000  0  4G 6G13G11G 9
  20348299.520    20348303.207    -5586674.648 9  -4042282.957 9
  23105014.189    23105019.026   -27437947.456 9  26919007.032 9
  20658477.990    20658483.739   -10412797.960 8  -7801094.482 7
  21380415.019    21380417.678   -14393664.053 9 -10924738.880 8
 88  3 21  4 45 29.0800000  0  4G 6G13G11G 9
  20347963.830    20347965.150    -5588445.935 9  -4043663.171 9
  23085841.369    23085845.811   -27538701.829 9  26840497.163 9
  20654790.900    20654797.143   -10432170.868 8  -7816190.240 8
  21366055.089    21366056.615   -14469128.960 9 -10983542.702 8
 88  3 21  4 45 59.0800000  0  4G 6G13G11G 9
  20347719.101    20347722.029    -5589725.578 9  -4044660.322 8
  23066726.937    23066729.775   -27639152.605 9  26762223.862 8
  20651206.723    20651213.210   -10451004.887 8  -7830866.053 8
  21351742.436    21351747.009   -14544331.423 8 -11042142.015 9
 88  3 21  4 46 29.0800000  0  4G 6G13G11G 9
  20347569.444    20347572.731    -5590512.060 8  -4045273.188 8
  23047668.289    23047672.126   -27739298.203 9  26684188.342 8
  20647725.006    20647730.066   -10469300.546 8  -7845122.401 9
  21337484.615    21337486.154   -14619268.795 9 -11100534.755 8
 88  3 21  4 46 59.0800000  0  4G 6G13G11G 9
  20347515.091    20347516.432    -5590803.832 9  -4045500.537 8
  23028670.665    23028674.877   -27839136.011 9  26606392.673 7
  20644347.192    20644352.319   -10487058.411 8  -7858959.704 8
  21323274.099    21323276.413   -14693938.774 9 -11158719.150 9
 88  3 21  4 47 29.0800000  0  4G 6G13G11G 9
  20347552.177    20347555.724    -5590598.955 9  -4045340.895 8
  23009730.732    23009735.651   -27938663.969 9  26528838.443 8
  20641068.933    20641075.294   -10504278.486 9  -7872377.942 8
  21309116.155    21309119.201   -14768337.872 9 -11216692.450 8
 88  3 21  4 47 59.0800000  0  4G 6G13G11G 9
  20347686.376    20347688.965    -5589896.540 8  -4044793.588 9
  22990850.305    22990855.897   -28037880.731 9  26451526.703 8
  20637894.866    20637900.566   -10520961.687 8  -7885377.799 8
  21295011.271    21295012.886   -14842464.138 9 -11274453.160 8
 88  3 21  4 48 29.0800000  0  4G 6G13G11G 9
  20347914.271    20347918.300    -5588694.470 9  -4043856.934 8
  22972028.825    22972034.303   -28136783.597 8  26374459.573 8
  20634821.476    20634826.706   -10537108.299 8  -7897959.549 8
  21280959.244    21280961.401   -14916313.641 9 -11331998.216 9
 88  3 21  4 48 59.0800000  0  4G 6G13G11G 9
  20348239.583    20348242.929    -5586991.408 8  -4042529.899 8
  22953269.445    22953275.047   -28235370.742 9  26297638.458 8
  20631852.793    20631855.132   -10552718.916 7  -7910123.629 7
  21266958.702    21266961.032   -14989884.521 9 -11389326.163 8
 88  3 21  4 49 29.0800000  0  4G 6G13G11G 9
  20348659.666    20348662.056    -5584786.131 9  -4040811.507 8
  22934569.958    22934574.051   -28333639.550 9  26221065.408 9
  20628984.797    20628987.901   -10567793.957 7  -7921870.412 7
  21253011.361    21253014.078   -15063173.380 9 -11446434.366 8
 88  3 21  4 49 59.0800000  0  4G 6G13G11G 9
  20349174.539    20349177.545    -5582076.722 9  -4038700.282 8
  22915931.186    22915934.976   -28431588.517 9  26144741.559 9
  20626217.042    20626221.738   -10582333.831 8  -7933200.183 9
  21239120.401    21239122.472   -15136177.833 9 -11503320.958 8
 88  3 21  4 50 29.0800000  0  4G 6G13G11G 9
  20349786.474    20349790.367    -5578861.922 8  -4036195.259 9
  22897352.633    22897356.436   -28529215.288 9  26068668.771 8
  20623550.609    20623556.716   -10596339.175 8  -7944113.424 7
  21225280.752    21225284.853   -15208894.579 9 -11559983.354 8
 88  3 21  4 50 59.0800000  0  4G 6G13G11G 9
  20350494.928    20350499.312    -5575140.261 9  -4033295.253 8
  22878836.303    22878840.209   -28626518.292 9  25992848.264 8
  20620987.280    20620993.469   -10609810.890 9  -7954610.829 8
  21211498.597    21211502.041   -15281321.208 9 -11616419.681 9
 88  3 21  4 51 29.0800000  0  4G 6G13G11G 9
  20351299.850    20351303.814    -5570910.387 9  -4029999.267 9
  22860381.860    22860385.472   -28723495.238 9  25917281.817 8
  20618526.864    20618531.519   -10622749.512 8  -7964692.857 7
  21197770.702    21197775.721   -15353454.688 9 -11672627.592 9
 88  3 21  4 51 59.0800000  0  4G 6G13G11G 9
  20352201.669    20352204.715    -5566170.701 9  -4026306.006 9
  22841990.194    22841993.776   -28820144.178 9  25841970.976 8
  20616165.796    20616168.998   -10635155.658 9  -7974359.972 7
  21184100.531    21184106.481   -15425292.181 8 -11728604.842 8
 88  3 21  4 52 29.0800000  0  4G 6G13G11G 9
  20353200.381    20353202.745    -5560920.017 9  -4022214.575 9
  22823660.985    22823665.398   -28916463.616 9  25766916.898 8
  20613905.455    20613909.266   -10647030.038 9  -7983612.727 8
  21170488.970    21170492.315   -15496831.069 9 -11784349.414 8
 88  3 21  4 52 59.0800000  0  4G 6G13G11G 9
  20354298.704    20354299.486    -5555157.121 9  -4017724.024 9
  22805394.710    22805399.923   -29012451.445 8  25692121.203 9
  20611746.549    20611750.258   -10658373.321 9  -7992451.630 8
  21156931.985    21156936.761   -15568068.499 9 -11839859.107 9
 88  3 21  4 53 29.0800000  0  4G 6G13G11G 9
  20355492.457    20355493.620    -5548880.327 9  -4012833.024 9
  22787193.074    22787197.451   -29108105.383 9  25617585.705 9
  20609689.255    20609693.005   -10669186.128 8  -8000877.177 7
  21143434.812    21143437.528   -15639001.245 9 -11895131.347 8
 88  3 21  4 53 59.0800000  0  4G 6G13G11G 9
  20356784.072    20356788.442    -5542088.368 9  -4007540.602 9
  22769055.231    22769059.114   -29203423.588 9  25543311.795 9
  20607731.896    20607735.045   -10679469.388 8  -8008890.087 7
  21129995.563    21129998.237   -15709626.882 9 -11950164.311 9
 88  3 21  4 54 29.0800000  0  4G 6G13G11G 9
  20358175.568    20358179.265    -5534779.864 9  -4001845.680 9
  22750980.454    22750985.609   -29298403.966 9  25469301.129 8
  20605876.429    20605880.529   -10689223.651 9  -8016490.784 8
  21116613.751    21116618.199   -15779942.192 9 -12004955.462 9
 88  3 21  4 54 59.0800000  0  4G 6G13G11G 9
  20359664.296    20359667.838    -5526953.569 9  -3995747.274 9
  22732970.205    22732975.392   -29393044.263 9  25395555.462 9
  20604120.354    20604125.927   -10698449.416 8  -8023679.696 8
  21103291.838    21103296.872   -15849944.516 9 -12059502.718 8
 88  3 21  4 55 29.0800000  0  4G 6G13G11G 9
  20361251.425    20361255.917    -5518608.208 9  -3989244.404 9
  22715026.193    22715031.365   -29487343.538 9  25322075.538 8
  20602465.361    20602469.482   -10707147.487 9  -8030457.394 8
  21090032.312    21090035.614   -15919630.983 9 -12113803.853 8
 88  3 21  4 55 59.0800000  0  4G 6G13G11G 9
  20362938.031    20362942.552    -5509742.374 9  -3982335.995 9
  22697146.787    22697152.115   -29581299.242 9  25248863.324 9
  20600911.300    20600913.337   -10715319.086 8  -8036824.843 8
  21076832.885    21076836.187   -15988998.537 9 -12167856.492 8
 88  3 21  4 56 29.0800000  0  4G 6G13G11G 9
  20364725.027    20364728.469    -5500354.868 8  -3975021.066 8
  22679332.461    22679338.217   -29674909.287 9  25175920.433 8
  20599457.313    20599457.777   -10722965.219 8  -8042782.864 7
  21063693.126    21063696.858   -16058044.501 9 -12221658.531 8
 88  3 21  4 56 59.0800000  0  4G 6G13G11G 9
  20366611.121    20366613.354    -5490444.696 9  -3967298.857 8
  22661586.539    22661591.994   -29768172.703 9  25103247.678 9
  20598101.026    20598104.492   -10730086.380 8  -8048331.812 8
  21050616.384    21050619.201   -16126766.072 9 -12275207.803 9
 88  3 21  4 57 29.0800000  0  4G 6G13G11G 9
  20368597.034    20368600.030    -5480010.436 9  -3959168.260 9
  22643906.496    22643910.444   -29861087.082 9  25030846.876 8
  20596844.179    20596849.460   -10736683.521 8  -8053472.421 7
  21037600.632    21037604.277   -16195160.342 9 -12328502.041 9
 88  3 21  4 57 59.0800000  0  4G 6G13G11G 9
  20370683.391    20370685.417    -5469051.022 9  -3950628.469 9
  22626291.416    22626295.877   -29953650.713 9  24958719.395 8
  20595687.071    20595693.057   -10742757.268 8  -8058205.199 7
  21024649.813    21024652.944   -16263224.286 9 -12381538.859 9
 88  3 21  4 58 29.0800000  0  4G 6G13G11G 9
  20372869.016    20372870.744    -5457565.268 8  -3941678.545 9
  22608743.569    22608747.924   -30045861.610 9  24886866.783 9
  20594631.952    20594637.660   -10748308.942 8  -8062531.173 8
  21011760.321    21011762.968   -16330955.329 9 -12434316.291 9
 88  3 21  4 58 59.0800000  0  4G 6G13G11G 9
  20375155.730    20375157.821    -5445552.095 9  -3932317.640 9
  22591263.046    22591269.082   -30137717.812 9  24815290.554 9
  20593675.950    20593677.766   -10753339.536 8  -8066451.116 8
  20998935.882    20998939.256   -16398350.581 9 -12486832.062 9
 88  3 21  4 59 29.0800000  0  4G 6G13G11G 9
  20377540.465    20377544.483    -5433010.064 9  -3922544.628 8
  22573851.165    22573857.573   -30229217.746 9  24743991.938 8
  20592817.570    20592820.498   -10757849.778 9  -8069965.565 8
  20986175.663    20986178.864   -16465406.826 9 -12539083.666 9
 88  3 21  4 59 59.0800000  0  4G 6G13G11G 9
  20380028.065    20380032.801    -5419938.298 9  -3912358.861 9
  22556508.617    22556514.584   -30320360.077 8  24672971.973 9
  20592058.614    20592061.056   -10761840.505 8  -8073075.207 8
  20973478.717    20973482.232   -16532121.239 9 -12591068.927 8
 88  3 21  5  0 29.0800000  0  4G 6G13G11G 9
  20382616.699    20382621.373    -5406335.523 9  -3901759.314 8
  22539234.499    22539237.529   -30411142.474 9  24602232.453 8
  20591398.024    20591400.809   -10765312.704 8  -8075780.810 7
  20960849.654    20960853.326   -16598491.142 9 -12642785.710 9
 88  3 21  5  0 59.0800000  0  4G 6G13G11G 9
  20385307.534    20385309.919    -5392200.747 9  -3890745.219 8
  22522026.787    22522031.464   -30501562.695 9  24531775.137 9
  20590834.477    20590837.518   -10768267.493 8  -8078083.244 8
  20948286.069    20948288.985   -16664513.434 9 -12694231.639 9
 88  3 21  5  1 29.0800000  0  4G 6G13G11G 9
  20388097.798    20388100.663    -5377532.868 8  -3879315.729 8
  22504888.555    22504894.405   -30591619.355 9  24461601.117 8
  20590370.491    20590374.627   -10770705.842 7  -8079983.269 7
  20935788.737    20935791.854   -16730185.374 9 -12745404.586 9
 88  3 21  5  1 59.0800000  0  4G 6G13G11G 9
  20390990.373    20390994.295    -5362331.267 9  -3867470.344 9
  22487820.839    22487826.746   -30681311.303 9  24391711.312 8
  20590004.032    20590010.421   -10772628.869 8  -8081481.703 7
  20923359.803    20923362.276   -16795504.449 9 -12796302.555 9
 88  3 21  5  2 29.0800000  0  4G 6G13G11G 9
  20393985.268    20393988.470    -5346594.770 9  -3855208.156 9
  22470823.029    22470828.678   -30770636.503 9  24322107.304 8
  20589735.072    20589741.437   -10774038.008 9  -8082579.709 8
  20910996.777    20911000.051   -16860467.525 9 -12846923.126 8
 88  3 21  5  2 59.0800000  0  4G 6G13G11G 9
  20397081.759    20397085.127    -5330322.387 9  -3842528.387 9
  22453896.579    22453900.736   -30859592.665 9  24252790.858 8
  20589565.705    20589569.362   -10774934.243 8  -8083278.066 7
  20898703.952    20898706.081   -16925071.693 9 -12897264.038 9
 88  3 21  5  3 29.0800000  0  4G 6G13G11G 9
  20400279.304    20400283.905    -5313513.120 9  -3829430.276 9
  22437039.796    22437042.548   -30948178.979 9  24183762.574 8
  20589492.411    20589496.623   -10775318.460 8  -8083577.474 8
  20886479.782    20886482.212   -16989314.273 9 -12947323.194 9
 88  3 21  5  3 59.0800000  0  4G 6G13G11G 9
  20403581.194    20403585.543    -5296166.145 9  -3815913.166 8
  22420251.608    22420256.694   -31036393.719 9  24115023.825 9
  20589516.448    20589519.718   -10775192.063 8  -8083478.970 8
  20874324.811    20874325.613   -17053192.357 9 -12997098.312 8
 88  3 21  5  4 29.0800000  0  4G 6G13G11G 9
  20406985.104    20406988.784    -5278280.659 9  -3801976.447 9
  22403535.198    22403539.252   -31124235.049 9  24046576.039 8
  20589638.883    20589639.926   -10774556.549 9  -8082983.732 7
  20862237.896    20862240.268   -17116703.069 9 -13046587.176 8
 88  3 21  5  4 59.0800000  0  4G 6G13G11G 9
  20410492.643    20410495.130    -5259855.726 9  -3787619.384 9
  22386890.489    22386894.841   -31211701.369 8  23978420.486 7
  20589856.360    20589859.233   -10773412.893 8  -8082092.560 8
  20850222.555    20850225.299   -17179843.789 9 -13095787.736 8
 88  3 21  5  5 29.0800000  0  4G 6G13G11G 9
  20414101.689    20414103.861    -5240890.392 9  -3772841.226 8
  22370318.836    22370322.145   -31298791.289 9  23910558.277 8
  20590170.516    20590173.639   -10771762.032 8  -8080806.172 9
  20838278.703    20838280.788   -17242611.441 9 -13144697.584 8
 88  3 21  5  5 59.0800000  0  4G 6G13G11G 9
  20417812.282    20417816.083    -5221383.796 9  -3757641.303 9
  22353819.050    22353821.359   -31385502.774 9  23842990.899 8
  20590578.862    20590585.927   -10769604.878 8  -8079125.268 8
  20826405.509    20826407.236   -17305003.006 9 -13193314.393 8
 88  3 21  5  6 29.0800000  0  4G 6G13G11G 9
  20421629.247    20421632.560    -5201334.965 9  -3742018.857 8
  22337390.232    22337394.488   -31471834.446 9  23775719.463 8
  20591086.666    20591090.939   -10766942.860 9  -8077050.957 9
  20814604.003    20814607.306   -17367015.651 9 -13241635.931 9
 88  3 21  5  6 59.0800000  0  4G 6G13G11G 9
  20425547.091    20425549.026    -5180743.278 9  -3725973.391 9
  22321033.547    22321039.354   -31557784.260 9  23708745.592 9
  20591689.344    20591693.274   -10763777.511 9  -8074584.432 7
  20802875.877    20802878.965   -17428646.700 9 -13289660.115 8
 88  3 21  5  7 29.0800000  0  4G 6G13G11G 9
  20429566.582    20429571.149    -5159607.673 9  -3709504.111 8
  22304750.008    22304756.756   -31643351.268 9  23642070.034 9
  20592386.828    20592391.877   -10760109.959 7  -8071726.569 8
  20791221.987    20791225.416   -17489893.010 9 -13337384.509 8
 88  3 21  5  7 59.0800000  0  4G 6G13G11G 9
  20433694.113    20433696.648    -5137927.490 9  -3692610.481 8
  22288539.977    22288546.546   -31728533.688 9  23575694.140 8
  20593179.344    20593183.540   -10755941.601 8  -8068478.487 8
  20779640.640    20779643.185   -17550751.849 9 -13384806.994 8
 88  3 21  5  8 29.0800000  0  4G 6G13G11G 9
  20437921.116    20437924.922    -5115702.145 9  -3675292.034 9
  22272403.682    22272410.169   -31813329.894 9  23509619.183 8
  20594069.335    20594072.603   -10751273.346 9  -8064840.875 8
  20768132.018    20768137.365   -17611220.442 9 -13431925.369 8
 88  3 21  5  8 59.0800000  0  4G 6G13G11G 9
  20442256.130    20442259.850    -5092930.926 9  -3657548.237 9
  22256342.547    22256348.094   -31897738.593 9  23443846.204 8
  20595053.202    20595055.877   -10746106.671 8  -8060814.898 9
  20756701.839    20756704.711   -17671295.929 8 -13478737.410 8
 88  3 21  5  9 29.0800000  0  4G 6G13G11G 9
  20446693.338    20446696.557    -5069613.289 8  -3639378.654 8
  22240354.910    22240360.059   -31981758.307 9  23378376.309 9
  20596131.256    20596132.749   -10740443.433 9  -8056401.980 8
  20745343.087    20745348.722   -17730975.665 8 -13525241.097 8
 88  3 21  5  9 59.0800000  0  4G 6G13G11G 9
  20451233.969    20451237.984    -5045748.467 8  -3620782.711 9
  22224441.123    22224445.247   -32065386.942 9  23313211.138 8
  20597302.375    20597305.318   -10734284.409 9  -8051602.731 7
  20734064.784    20734068.331   -17790256.601 9 -13571434.019 8
 88  3 21  5 10 29.0800000  0  4G 6G13G11G 9
  20455880.231    20455883.834    -5021335.661 9  -3601759.754 9
  22208599.788    22208606.261   -32148623.492 9  23248351.479 8
  20598566.950    20598570.721   -10727630.945 8  -8046418.192 7
  20722859.087    20722863.047   -17849136.136 9 -13617314.184 9
 88  3 21  5 10 59.0800000  0  4G 6G13G11G 9
  20460630.155    20460634.171    -4996374.220 9  -3582309.291 9
  22192834.931    22192842.462   -32231466.104 8  23183798.840 9
  20599926.356    20599931.942   -10720484.828 8  -8040849.791 8
  20711731.716    20711735.705   -17907611.175 8 -13662879.133 9
 88  3 21  5 11 29.0800000  0  4G 6G13G11G 9
  20465483.478    20465487.904    -4970863.614 8  -3562430.921 9
  22177147.271    22177151.396   -32313913.656 9  23119554.050 8
  20601380.854    20601383.948   -10712847.234 7  -8034898.414 8
  20700681.416    20700683.917   -17965678.926 9 -13708126.740 8
 88  3 21  5 11 59.0800000  0  4G 6G13G11G 9
  20470444.119    20470447.091    -4944803.199 9  -3542124.124 9
  22161534.186    22161537.568   -32395964.841 9  23055618.060 9
  20602927.798    20602930.387   -10704719.614 8  -8028565.200 8
  20689709.900    20689713.975   -18023336.558 9 -13753054.755 8
 88  3 21  5 12 29.0800000  0  4G 6G13G11G 9
  20475510.152    20475510.076    -4918192.680 9  -3521388.652 9
  22145995.391    22146001.100   -32477618.382 9  22991991.949 9
  20604567.125    20604571.194   -10696103.471 9  -8021851.318 9
  20678818.091    20678819.216   -18080581.300 9 -13797661.042 9
 88  3 21  5 12 59.0800000  0  4G 6G13G11G 9
  20480678.563    20480677.166    -4891031.413 9  -3500224.023 8
  22130532.306    22130538.394   -32558872.084 9  22928677.382 9
  20606298.433    20606303.853   -10687000.314 8  -8014757.930 7
  20668002.631    20668007.019   -18137410.527 9 -13841943.550 9
 88  3 21  5 13 29.0800000  0  4G 6G13G11G 9
  20485950.483    20485953.666    -4863318.755 9  -3478629.778 9
  22115148.024    22115152.278   -32639725.521 9  22865674.740 9
  20608124.220    20608126.749   -10677411.571 8  -8007286.149 8
  20657268.021    20657271.061   -18193821.061 9 -13885899.812 8
 88  3 21  5 13 59.0800000  0  4G 6G13G11G 9
  20491328.313    20491332.252    -4835054.325 8  -3456605.605 9
  22099837.991    22099843.340   -32720176.902 9  22802985.359 8
  20610040.640    20610044.463   -10667338.967 9  -7999437.362 8
  20646612.654    20646617.730   -18249810.380 9 -13929527.866 8
 88  3 21  5 14 29.0800000  0  4G 6G13G11G 9
  20496813.100    20496815.515    -4806237.663 9  -3434151.097 9
  22084604.893    22084609.747   -32800224.352 9  22740610.734 8
  20612048.184    20612053.326   -10656783.576 9  -7991212.393 8
  20636040.423    20636043.940   -18305375.787 9 -13972825.581 9
 88  3 21  5 14 59.0800000  0  4G 6G13G11G 9
  20502401.285    20502404.283    -4776868.195 9  -3411265.796 8
  22069449.434    22069455.427   -32879866.891 9  22678551.644 8
  20614149.755    20614152.722   -10645747.111 8  -7982612.540 8
  20625546.836    20625552.012   -18360514.096 9 -14015790.498 8
 88  3 21  5 15 29.0800000  0  4G 6G13G11G 9
  20508094.588    20508098.092    -4746945.395 9  -3387949.338 8
  22054372.312    22054375.857   -32959103.292 9  22616809.015 8
  20616341.655    20616345.201   -10634230.843 8  -7973638.817 8
  20615137.930    20615140.360   -18415222.607 9 -14058420.509 9
 88  3 21  5 15 59.0800000  0  4G 6G13G11G 9
  20513895.402    20513898.598    -4716469.171 8  -3364201.656 9
  22039371.909    22039373.912   -33037932.639 9  22555383.573 8
  20618623.345    20618627.791   -10622236.611 9  -7964292.655 8
  20604808.698    20604813.774   -18469498.520 8 -14100713.437 7
 88  3 21  5 16 29.0800000  0  4G 6G13G11G 9
  20519799.871    20519801.763    -4685439.085 9  -3340022.401 9
  22024450.508    22024452.172   -33116352.972 9  22494276.824 8
  20620996.112    20621000.815   -10609765.875 9  -7954575.193 9
  20594561.945    20594567.336   -18523339.474 9 -14142667.420 9
 88  3 21  5 16 59.0800000  0  4G 6G13G11G 9
  20525809.442    20525812.680    -4653855.141 9  -3315411.554 9
  22009603.870    22009608.289   -33194363.618 9  22433489.336 8
  20623458.640    20623463.500   -10596820.864 8  -7944488.166 8
  20584399.272    20584403.847   -18576742.721 9 -14184280.336 8
 88  3 21  5 17 29.0800000  0  4G 6G13G11G 9
  20531923.172    20531928.628    -4621716.462 9  -3290368.446 9
  21994836.515    21994841.140   -33271963.015 9  22373022.313 9
  20626013.072    20626016.746   -10583402.523 8  -7934032.313 9
  20574321.538    20574326.743   -18629705.095 9 -14225549.734 9
 88  3 21  5 17 59.0800000  0  4G 6G13G11G 9
  20538146.275    20538150.315    -4589023.031 9  -3264893.074 9
  21980148.244    21980153.380   -33349149.760 9  22312876.806 9
  20628656.714    20628659.834   -10569512.648 8  -7923209.039 9
  20564329.233    20564331.633   -18682224.022 9 -14266473.546 8
 88  3 21  5 18 29.0800000  0  4G 6G13G11G 9
  20544474.446    20544477.439    -4555774.831 9  -3238985.379 9
  21965538.776    21965543.918   -33425923.017 9  22253053.502 9
  20631389.127    20631393.339   -10555153.316 9  -7912019.942 8
  20554419.745    20554423.391   -18734297.078 9 -14307049.958 8
 88  3 21  5 18 59.0800000  0  4G 6G13G11G 9
  20550906.829    20550910.003    -4521971.393 8  -3212645.060 8
  21951008.301    21951013.050   -33502281.748 9  22193553.222 8
  20634209.894    20634214.212   -10540325.765 8  -7900465.999 8
  20544595.687    20544599.074   -18785921.323 9 -14347276.632 9
 88  3 21  5 19 29.0800000  0  4G 6G13G11G 9
  20557444.486    20557448.587    -4487612.496 9  -3185871.904 8
  21936556.927    21936560.396   -33578224.567 9  22134377.022 8
  20637119.057    20637125.503   -10525031.948 8  -7888548.745 8
  20534858.256    20534861.311   -18837094.058 8 -14387151.491 8
 88  3 21  5 19 59.0800000  0  4G 6G13G11G 9
  20564089.240    20564092.338    -4452697.981 9  -3158665.820 9
  21922184.381    21922189.238   -33653750.187 9  22075525.885 8
  20640117.311    20640123.520   -10509273.054 8  -7876269.078 8
  20525204.730    20525208.721   -18887812.525 8 -14426672.358 8
 88  3 21  5 20 29.0800000  0  4G 6G13G11G 9
  20570839.697    20570842.578    -4417227.720 9  -3131026.670 9
  21907892.106    21907896.444   -33728857.727 9  22017000.539 9
  20643207.532    20643212.208   -10493051.014 9  -7863628.522 9
  20515641.183    20515644.327   -18938074.113 9 -14465837.235 9
 88  3 21  5 20 59.0800000  0  4G 6G13G11G 9
  20577694.849    20577697.488    -4381201.444 8  -3102954.291 8
  21893679.709    21893684.006   -33803545.960 9  21958801.950 8
  20646382.416    20646385.414   -10476367.756 9  -7850628.574 8
  20506163.151    20506167.437   -18987876.050 9 -14504643.944 8
 88  3 21  5 21 29.0800000  0  4G 6G13G11G 9
  20584656.574    20584659.664    -4344619.115 8  -3074448.589 9
  21879547.094    21879551.726   -33877813.709 9  21900930.987 8
  20649642.545    20649646.303   -10459224.985 9  -7837270.556 8
  20496774.805    20496778.509   -19037215.553 9 -14543090.301 8
 88  3 21  5 21 59.0800000  0  4G 6G13G11G 9
  20591722.603    20591726.456    -4307480.049 9  -3045509.089 9
  21865494.225    21865498.643   -33951658.877 9  21843389.327 9
  20652991.977    20652997.421   -10441623.566 8  -7823555.138 8
  20487475.920    20487478.365   -19086089.427 9 -14581173.837 8
 88  3 21  5 22 29.0800000  0  4G 6G13G11G 9
  20598896.030    20598899.225    -4269784.615 8  -3016136.016 8
  21851522.516    21851525.376   -34025081.425 9  21786176.992 8
  20656429.245    20656433.521   -10423565.719 9  -7809484.090 8
  20478263.923    20478266.623   -19134495.360 9 -14618892.759 8
 88  3 21  5 22 59.0800000  0  4G 6G13G11G 9
  20606176.742    20606179.327    -4231532.768 9  -2986329.386 9
  21837631.396    21837634.078   -34098080.090 9  21729294.936 8
  20659953.364    20659955.834   -10405053.235 9  -7795058.791 8
  20469142.644    20469144.758   -19182430.983 9 -14656245.183 8
 88  3 21  5 23 29.0800000  0  4G 6G13G11G 9
  20613561.131    20613563.952    -4192724.615 9  -2956089.331 9
  21823821.857    21823824.780   -34170653.912 9  21672743.908 8
  20663559.959    20663565.291   -10386088.042 8  -7780280.748 9
  20460110.369    20460113.026   -19229893.399 9 -14693228.884 8
 88  3 21  5 23 59.0800000  0  4G 6G13G11G 9
  20621051.602    20621054.458    -4153359.263 9  -2925415.066 8
  21810092.539    21810094.740   -34242801.075 9  21616525.343 8
  20667253.823    20667259.740   -10366671.173 8  -7765150.701 9
  20451169.561    20451173.074   -19276879.360 8 -14729841.323 8
 88  3 21  5 24 29.0800000  0  4G 6G13G11G 9
  20628648.534    20628651.007    -4113436.665 9  -2894306.594 9
  21796443.346    21796448.552   -34314521.214 9  21560639.567 8
  20671036.250    20671041.336   -10346804.967 8  -7749670.529 8
  20442320.184    20442323.601   -19323386.665 9 -14766080.773 9
 88  3 21  5 24 59.0800000  0  4G 6G13G11G 9
  20636352.705    20636354.423    -4072957.771 9  -2862764.611 9
  21782877.681    21782882.801   -34385813.273 9  21505087.329 7
  20674902.739    20674906.609   -10326491.262 9  -7733841.666 9
  20433561.015    20433564.631   -19369412.844 8 -14801945.324 8
 88  3 21  5 25 29.0800000  0  4G 6G13G11G 9
  20644160.180    20644164.921    -4031922.820 8  -2830789.351 9
  21769391.479    21769396.647   -34456676.216 8  21449869.473 9
  20678852.200    20678855.713   -10305731.787 8  -7717665.439 8
  20424894.570    20424896.882   -19414955.299 9 -14837432.946 7
 88  3 21  5 25 59.0800000  0  4G 6G13G11G 9
  20652075.646    20652078.671    -3990331.583 9  -2798380.637 8
  21755988.917    21755992.958   -34527109.311 9  21394986.556 9
  20682885.848    20682891.670   -10284528.608 8  -7701143.466 7
  20416320.702    20416322.574   -19460011.493 9 -14872541.668 8
 88  3 21  5 26 29.0800000  0  4G 6G13G11G 9
  20660096.054    20660097.633    -3948184.172 9  -2765538.532 9
  21742669.995    21742673.255   -34597111.760 9  21340439.201 8
  20687005.477    20687010.619   -10262883.733 8  -7684277.304 8
  20407837.385    20407841.848   -19504578.950 8 -14907269.568 8
 88  3 21  5 26 59.0800000  0  4G 6G13G11G 9
  20668221.306    20668224.061    -3905480.663 9  -2732263.094 9
  21729430.452    21729434.006   -34666682.273 9  21286228.408 8
  20691206.877    20691211.708   -10240798.656 8  -7667068.163 9
  20399450.825    20399454.960   -19548654.827 8 -14941614.381 8
 88  3 21  5 27 29.0800000  0  4G 6G13G11G 9
  20676452.141    20676456.184    -3862221.157 9  -2698554.418 9
  21716272.745    21716278.364   -34735819.658 9  21232355.152 8
  20695493.406    20695497.290   -10218275.405 9  -7649517.564 8
  20391158.796    20391161.095   -19592236.417 9 -14975574.072 9
 88  3 21  5 27 59.0800000  0  4G 6G13G11G 9
  20684790.318    20684794.499    -3818405.936 8  -2664412.702 9
  21703199.081    21703204.176   -34804523.290 9  21178819.883 8
  20699863.517    20699868.323   -10195315.833 8  -7631627.001 8
  20382959.459    20382962.545   -19635321.450 8 -15009146.825 9
 88  3 21  5 28 29.0800000  0  4G 6G13G11G 9
  20693234.653    20693237.722    -3774035.281 9  -2629838.188 8
  21690208.797    21690213.758   -34872792.329 9  21125623.252 8
  20704315.313    20704319.520   -10171922.112 8  -7613398.126 8
  20374857.083    20374858.607   -19677907.461 8 -15042330.713 8
 88  3 21  5 28 59.0800000  0  4G 6G13G11G 9
  20701783.483    20701787.681    -3729109.382 9  -2594831.027 9
  21677300.212    21677304.174   -34940626.189 9  21072765.709 8
  20708849.126    20708853.609   -10148095.767 8  -7594832.123 8
  20366848.658    20366849.582   -19719991.676 8 -15075123.614 8
 88  3 21  5 29 29.0800000  0  4G 6G13G11G 9
  20710437.473    20710442.199    -3683628.553 9  -2559391.438 9
  21664474.232    21664478.431   -35008024.342 9  21020247.663 9
  20713465.160    20713470.126   -10123838.912 8  -7575930.682 9
  20358936.047    20358937.749   -19761571.786 8 -15107523.679 8
 88  3 21  5 29 59.0800000  0  4G 6G13G11G 9
  20719199.195    20719202.114    -3637593.026 9  -2523519.620 9
  21651731.379    21651736.872   -35074985.190 9  20968070.391 8
  20718163.092    20718167.605   -10099153.423 8  -7556695.250 8
  20351119.425    20351120.994   -19802645.179 8 -15139528.924 7
 88  3 21  5 30 29.0800000  0  4G 6G13G11G 9
  20728063.810    20728068.134    -3591003.652 9  -2487216.234 8
  21639072.974    21639077.965   -35141508.891 9  20916233.781 8
  20722940.308    20722945.391   -10074041.704 8  -7537127.667 8
  20343398.329    20343403.751   -19843209.917 8 -15171137.825 8
 88  3 21  5 30 59.0800000  0  4G 6G13G11G 9
  20737035.194    20737038.891    -3543860.219 9  -2450481.097 9
  21626499.238    21626503.487   -35207593.764 9  20864739.090 8
  20727799.536    20727803.970   -10048505.077 9  -7517228.999 8
  20335778.230    20335781.932   -19883262.891 8 -15202347.935 8
 88  3 21  5 31 29.0800000  0  4G 6G13G11G 9
  20746111.438    20746115.572    -3496162.768 9  -2413314.284 9
  21614006.923    21614010.477   -35273238.997 9  20813586.938 8
  20732739.968    20732744.783   -10022545.489 8  -7497000.741 9
  20328253.858    20328256.773   -19922801.444 9 -15233157.201 8
 88  3 21  5 31 59.0800000  0  4G 6G13G11G 9
  20755292.614    20755297.664    -3447911.826 8  -2375716.182 9
  21601597.606    21601602.971   -35338443.856 9  20762777.967 8
  20737759.041    20737766.082    -9996165.078 8  -7476444.574 8
  20320828.132    20320831.694   -19961823.268 8 -15263563.820 7
 88  3 21  5 32 29.0800000  0  4G 6G13G11G 9
  20764581.528    20764583.591    -3399108.156 9  -2337687.379 8
  21589272.471    21589277.619   -35403207.960 9  20712312.457 8
  20742859.761    20742864.587    -9969365.811 8  -7455562.039 9
  20313500.971    20313504.443   -20000325.960 9 -15293565.930 8
 88  3 21  5 32 59.0800000  0  4G 6G13G11G 9
  20773972.731    20773976.888    -3349752.100 9  -2299228.119 8
  21577032.475    21577037.044   -35467530.251 9  20662191.217 8
  20748039.687    20748043.226    -9942149.529 9  -7434354.539 8
  20306274.744    20306276.445   -20038307.329 9 -15323161.803 7
 88  3 21  5 33 29.0800000  0  4G 6G13G11G 9
  20783470.486    20783472.873    -3299843.986 9  -2260338.719 9
  21564878.642    21564881.339   -35531410.743 9  20612414.215 9
  20753297.790    20753300.542    -9914518.634 8  -7412823.962 8
  20299147.196    20299148.466   -20075765.102 8 -15352349.686 8
 88  3 21  5 33 59.0800000  0  4G 6G13G11G 9
  20793072.772    20793076.475    -3249384.406 9  -2221019.587 9
  21552805.492    21552809.776   -35594848.258 9  20562982.402 9
  20758634.157    20758638.324    -9886475.227 9  -7390971.948 8
  20292117.951    20292122.867   -20112696.565 8 -15381127.443 8
 88  3 21  5 34 29.0800000  0  4G 6G13G11G 9
  20802779.858    20802782.792    -3198373.987 9  -2181271.206 8
  21540818.140    21540821.973   -35657842.204 9  20513896.221 7
  20764048.058    20764053.282    -9858021.130 9  -7368799.926 8
  20285191.815    20285193.957   -20149099.440 8 -15409493.317 8
 88  3 21  5 34 59.0800000  0  4G 6G13G11G 9
  20812591.684    20812594.817    -3146813.280 9  -2141094.030 9
  21528915.157    21528919.668   -35720392.665 9  20465155.632 9
  20769541.792    20769546.675    -9829158.629 9  -7346309.654 9
  20278364.417    20278368.032   -20184971.560 7 -15437445.630 9
 88  3 21  5 35 29.0800000  0  4G 6G13G11G 9
  20822507.570    20822510.257    -3094702.654 9  -2100488.383 8
  21517097.554    21517100.671   -35782497.877 9  20416761.969 9
  20775110.245    20775115.281    -9799889.187 8  -7323502.296 8
  20271640.416    20271643.189   -20220310.321 8 -15464982.318 9
 88  3 21  5 35 59.0800000  0  4G 6G13G11G 9
  20832528.771    20832532.350    -3042042.633 8  -2059454.625 9
  21505364.275    21505368.386   -35844157.396 9  20368715.594 9
  20780757.294    20780761.745    -9770215.151 9  -7300379.649 9
  20265017.580    20265019.807   -20255113.417 8 -15492101.625 8
 88  3 21  5 36 29.0800000  0  4G 6G13G11G 9
  20842652.280    20842655.610    -2988834.079 9  -2017993.426 9
  21493714.878    21493718.629   -35905371.459 9  20321016.355 8
  20786481.333    20786484.768    -9740138.355 9  -7276943.182 8
  20258496.425    20258501.102   -20289378.684 9 -15518801.826 9
 88  3 21  5 36 59.0800000  0  4G 6G13G11G 9
  20852881.525    20852886.320    -2935077.406 9  -1976105.149 9
  21482149.983    21482154.202   -35966139.138 9  20273664.951 8
  20792281.849    20792284.865    -9709661.229 8  -7253194.766 8
  20252080.089    20252082.967   -20323103.667 8 -15545081.035 8
 88  3 21  5 37 29.0800000  0  4G 6G13G11G 9
  20863217.643    20863220.538    -2880773.277 9  -1933790.279 8
  21470672.753    21470675.046   -36026459.808 9  20226661.845 8
  20798155.315    20798159.978    -9678785.688 8  -7229135.898 8
  20245763.507    20245768.475   -20356286.284 8 -15570937.616 8
 88  3 21  5 37 59.0800000  0  4G 6G13G11G 9
  20873655.579    20873657.891    -2825922.464 9  -1891049.417 8
  21459279.584    21459281.807   -36086333.213 9  20180007.249 7
  20804105.193    20804110.270    -9647513.910 9  -7204768.280 8
  20239554.110    20239558.318   -20388924.115 8 -15596369.696 9
 88  3 21  5 38 29.0800000  0  4G 6G13G11G 9
  20884196.690    20884200.737    -2770525.362 9  -1847882.891 9
  21447971.603    21447974.877   -36145758.276 9  20133702.009 9
  20810131.397    20810136.733    -9615847.685 9  -7180093.311 8
  20233447.127    20233451.580   -20421014.702 7 -15621375.343 9
 88  3 21  5 38 59.0800000  0  4G 6G13G11G 9
  20894842.030    20894846.139    -2714582.979 9  -1804291.465 8
  21436748.047    21436752.181   -36204734.497 9  20087746.559 9
  20816232.523    20816236.800    -9583789.285 8  -7155112.733 8
  20227445.772    20227448.162   -20452556.068 8 -15645953.035 7
 88  3 21  5 39 29.0800000  0  4G 6G13G11G 9
  20905591.054    20905592.724    -2658096.144 9  -1760275.769 8
  21425610.516    21425614.234   -36263261.373 9  20042141.230 8
  20822408.431    20822411.076    -9551340.716 9  -7129828.155 8
  20221548.428    20221551.937   -20483546.100 8 -15670101.123 7
 88  3 21  5 39 59.0800000  0  4G 6G13G11G 9
  20916442.812    20916446.927    -2601065.547 8  -1715836.366 8
  21414559.466    21414562.685   -36321339.062 9  19996885.920 9
  20828655.597    20828660.058    -9518504.192 9  -7104241.246 8
  20215756.425    20215760.487   -20513982.421 7 -15693817.705 8
 88  3 21  5 40 29.0800000  0  4G 6G13G11G 9
  20927397.762    20927402.949    -2543491.893 9  -1670973.826 8
  21403593.654    21403596.642   -36378966.775 9  19951981.209 9
  20834978.115    20834982.560    -9485281.960 9  -7078353.791 8
  20210069.578    20210072.727   -20543862.999 8 -15717101.298 8
 88  3 21  5 40 59.0800000  0  4G 6G13G11G 9
  20938458.452    20938462.034    -2485376.012 9  -1625688.734 8
  21392713.261    21392716.313   -36436144.402 9  19907427.226 8
  20841372.867    20841378.274    -9451675.970 8  -7052167.292 8
  20204490.237    20204494.022   -20573185.501 9 -15739950.003 9
 88  3 21  5 41 29.0800000  0  4G 6G13G11G 9
  20949621.066    20949624.056    -2426718.826 9  -1579981.853 9
  21381917.027    21381921.926   -36492871.118 9  19863224.610 8
  20847840.995    20847846.698    -9417688.365 9  -7025683.451 9
  20199018.177    20199020.347   -20601947.673 8 -15762362.096 8
 88  3 21  5 41 59.0800000  0  4G 6G13G11G 9
  20960886.328    20960890.003    -2367521.160 9  -1533853.837 9
  21371208.615    21371213.830   -36549146.584 9  19819373.608 8
  20854380.698    20854386.489    -9383321.392 8  -6998904.006 9
  20193650.670    20193653.500   -20630147.756 8 -15784336.198 8
 88  3 21  5 42 29.0800000  0  4G 6G13G11G 9
  20972254.642    20972256.925    -2307783.897 9  -1487305.352 8
  21360585.866    21360590.810   -36604970.319 9  19775874.620 8
  20860992.603    20860996.765    -9348576.819 8  -6971830.314 9
  20188392.614    20188395.522   -20657783.502 9 -15805870.554 8
 88  3 21  5 42 59.0800000  0  4G 6G13G11G 9
  20983722.194    20983726.166    -2247508.064 9  -1440337.201 8
  21350048.430    21350053.386   -36660342.354 9  19732727.597 9
  20867674.684    20867679.560    -9313457.438 8  -6944464.567 8
  20183241.797    20183242.765   -20684853.057 9 -15826963.687 7
 88  3 21  5 43 29.0800000  0  4G 6G13G11G 9
  20995295.942    20995298.884    -2186694.576 9  -1392950.093 8
  21339598.457    21339603.328   -36715262.269 9  19689932.872 8
  20874429.196    20874434.073    -9277965.217 8  -6916808.281 8
  20178198.880    20178201.015   -20711354.020 8 -15847613.805 8
 88  3 21  5 43 59.0800000  0  4G 6G13G11G 9
  21006970.479    21006974.142    -2125344.237 9  -1345144.651 9
  21329232.323    21329238.304   -36769730.042 9  19647490.458 8
  20881254.140    20881257.396    -9242102.123 8  -6888862.998 8
  20173263.864    20173266.940   -20737284.596 8 -15867819.449 7
 88  3 21  5 44 29.0800000  0  4G 6G13G11G 9
  21018747.762    21018750.870    -2063458.055 9  -1296921.676 9
  21318953.903    21318958.723   -36823745.198 9  19605400.745 8
  20888148.683    20888152.687    -9205870.162 8  -6860630.296 7
  20168437.427    20168440.956   -20762642.449 8 -15887578.833 8
 88  3 21  5 44 59.0800000  0  4G 6G13G11G 9
  21030625.409    21030629.764    -2001036.940 9  -1248281.872 9
  21308762.927    21308767.282   -36877307.004 9  19563664.282 8
  20895111.621    20895116.799    -9169271.841 7  -6832112.114 7
  20163722.366    20163725.140   -20787425.633 8 -15906890.401 7
 88  3 21  5 45 29.0800000  0  4G 6G13G11G 9
  21042604.966    21042608.670    -1938082.324 8  -1199226.368 8
  21298656.060    21298660.321   -36930416.190 9  19522280.497 9
  20902146.624    20902148.769    -9132309.365 9  -6803310.184 8
  20159115.545    20159117.491   -20811632.610 8 -15925752.983 7
 88  3 21  5 45 59.0800000  0  4G 6G13G11G 9
  21054687.346    21054691.045    -1874594.839 9  -1149755.633 8
  21288634.361    21288639.232   -36983071.711 9  19481250.231 8
  20909249.163    20909252.524    -9094984.774 9  -6774226.093 8
  20154618.338    20154622.761   -20835260.790 8 -15944164.549 8
 88  3 21  5 46 29.0800000  0  4G 6G13G11G 9
  21066870.377    21066872.002    -1810575.763 9  -1099870.659 9
  21278701.630    21278706.035   -37035273.704 9  19440573.366 8
  20916421.819    20916425.480    -9057300.437 9  -6744861.681 8
  20150231.103    20150236.555   -20858308.584 8 -15962123.894 8
 88  3 21  5 46 59.0800000  0  4G 6G13G11G 9
  21079152.059    21079156.385    -1746026.167 9  -1049572.306 8
  21268854.841    21268858.807   -37087022.102 9  19400249.965 8
  20923660.012    20923665.074    -9019258.370 8  -6715218.507 9
  20145958.055    20145962.154   -20880774.131 7 -15979629.522 9
 88  3 21  5 47 29.0800000  0  4G 6G13G11G 9
  21091537.187    21091540.945    -1680947.269 9   -998861.506 8
  21259092.031    21259096.724   -37138316.589 9  19360280.243 8
  20930966.686    20930970.775    -8980860.725 9  -6685298.254 8
  20141795.104    20141798.342   -20902655.338 7 -15996679.804 9
 88  3 21  5 47 59.0800000  0  4G 6G13G11G 9
  21104020.981    21104026.669    -1615340.064 8   -947739.010 9
  21249418.326    21249423.038   -37189156.537 9  19320664.712 8
  20938342.334    20938344.131    -8942109.480 9  -6655102.475 9
  20137743.143    20137745.644   -20923950.481 8 -16013273.403 9
 88  3 21  5 48 29.0800000  0  4G 6G13G11G 9
  21116605.830    21116611.122    -1549205.818 9   -896205.866 9
  21239830.618    21239834.408   -37239542.521 9  19281402.912 8
  20945782.485    20945785.201    -8903007.219 9  -6624633.188 8
  20133802.340    20133806.217   -20944657.565 7 -16029408.788 7
 88  3 21  5 48 59.0800000  0  4G 6G13G11G 9
  21129291.718    21129296.155    -1482545.692 9   -844262.933 8
  21230330.018    21230333.131   -37289474.136 9  19242495.174 8
  20953289.117    20953293.334    -8863556.176 9  -6593892.115 8
  20129972.938    20129976.811   -20964774.963 7 -16045084.680 8
 88  3 21  5 49 29.0800000  0  4G 6G13G11G 9
  21142075.090    21142079.434    -1415360.711 9   -791911.031 8
  21220914.733    21220918.253   -37338951.122 9  19203941.676 9
  20960861.198    20960866.447    -8823758.484 9  -6562880.927 8
  20126257.879    20126260.746   -20984300.597 8 -16060299.470 8
 88  3 21  5 49 59.0800000  0  4G 6G13G11G 9
  21154961.071    21154963.822    -1347652.486 9   -739151.407 8
  21211585.358    21211589.935   -37387974.078 9  19165742.001 9
  20968500.535    20968504.208    -8783616.431 9  -6531601.417 8
  20122653.384    20122658.644   -21003232.863 8 -16075051.910 8
 88  3 21  5 50 29.0800000  0  4G 6G13G11G 9
  21167944.103    21167948.600    -1279422.159 9   -685984.941 9
  21202341.944    21202346.378   -37436542.056 9  19127896.846 9
  20976204.319    20976209.024    -8743132.097 9  -6500055.182 8
  20119165.127    20119168.346   -21021569.918 8 -16089340.526 9
 88  3 21  5 50 59.0800000  0  4G 6G13G11G 9
  21181028.041    21181031.958    -1210670.582 9   -632412.298 9
  21193186.881    21193189.878   -37484655.197 9  19090406.123 8
  20983973.325    20983978.086    -8702307.697 9  -6468243.955 8
  20115789.255    20115791.912   -21039310.032 8 -16103163.998 8
 88  3 21  5 51 29.0800000  0  4G 6G13G11G 9
  21194209.030    21194214.324    -1141399.511 9   -578434.863 9
  21184119.685    21184120.739   -37532314.090 9  19053269.333 8
  20991805.805    20991810.470    -8661145.596 9  -6436169.579 8
  20112528.789    20112531.006   -21056451.433 8 -16116520.924 8
 88  3 21  5 51 59.0800000  0  4G 6G13G11G 9
  21207489.366    21207493.641    -1071610.060 9   -524053.515 9
  21175136.439    21175140.301   -37579518.122 9  19016486.984 9
  20999702.937    20999706.639    -8619647.984 9  -6403833.777 8
  20109381.825    20109382.481   -21072992.502 7 -16129410.076 8
 88  3 21  5 52 29.0800000  0  4G 6G13G11G 9
  21220869.015    21220871.732    -1001303.707 9   -469269.370 8
  21166240.539    21166244.126   -37626267.485 9  18980058.916 9
  21007664.171    21007665.800    -8577817.222 9  -6371238.350 8
  20106347.585    20106350.342   -21088931.395 8 -16141830.003 8
 88  3 21  5 52 59.0800000  0  4G 6G13G11G 9
  21234344.678    21234351.038     -930481.720 9   -414083.436 9
  21157429.291    21157433.912   -37672562.032 9  18943985.253 9
  21015686.967    21015690.554    -8535655.427 9  -6338384.991 9
  20103429.845    20103433.499   -21104266.985 8 -16153779.815 9
 88  3 21  5 53 29.0800000  0  4G 6G13G11G 9
  21247920.893    21247923.597     -859145.521 9   -358496.818 9
  21148705.780    21148711.754   -37718401.877 9  18908265.920 8
  21023771.345    21023776.494    -8493164.755 9  -6305275.396 9
  20100625.259    20100628.909   -21118997.143 8 -16165257.869 7
 88  3 21  5 53 59.0800000  0  4G 6G13G11G 9
  21261593.180    21261596.041     -787296.635 9   -302510.673 9
  21140070.342    21140073.431   -37763787.902 9  18872900.195 8
  21031919.630    21031924.822    -8450347.776 9  -6271911.540 9
  20097938.465    20097941.438   -21133120.408 8 -16176263.023 8
 88  3 21  5 54 29.0800000  0  4G 6G13G11G 9
  21275362.197    21275367.715     -714936.450 9   -246126.157 8
  21131519.419    21131522.603   -37808719.490 9  18837888.575 8
  21040127.899    21040132.605    -8407206.648 9  -6238295.062 8
  20095366.688    20095369.296   -21146635.210 7 -16186794.035 7
 88  3 21  5 54 59.0800000  0  4G 6G13G11G 9
  21289229.137    21289233.189     -642066.421 9   -189344.338 8
  21123056.122    21123060.176   -37853196.740 9  18803230.987 9
  21048399.328    21048403.321    -8363743.418 9  -6204427.621 8
  20092910.677    20092912.975   -21159540.137 9 -16196849.819 8
 88  3 21  5 55 29.0800000  0  4G 6G13G11G 9
  21303193.440    21303195.766     -568687.983 9   -132166.344 8
  21114678.843    21114683.526   -37897219.879 9  18768927.247 9
  21056732.803    21056734.616    -8319960.360 9  -6170310.948 8
  20090572.246    20090574.542   -21171833.409 8 -16206428.999 7
 88  3 21  5 55 59.0800000  0  4G 6G13G11G 9
  21317253.268    21317254.976     -494802.398 9    -74593.179 8
  21106388.458    21106391.588   -37940789.234 9  18734977.127 9
  21065124.859    21065127.819    -8275859.476 9  -6135946.628 8
  20088349.208    20088351.127   -21183513.541 8 -16215530.391 7
 88  3 21  5 56 29.0800000  0  4G 6G13G11G 9
  21331408.268    21331411.380     -420411.492 9    -16626.262 9
  21098184.275    21098187.644   -37983904.643 9  18701380.723 8
  21073575.668    21073580.734    -8231443.545 9  -6101336.817 8
  20086243.574    20086245.320   -21194579.167 8 -16224152.955 8
 88  3 21  5 56 59.0800000  0  4G 6G13G11G 9
  21345660.389    21345664.862     -345516.493 9     41733.439 9
  21090065.251    21090068.781   -38026566.272 9  18668137.903 8
  21082086.091    21082092.428    -8186714.490 8  -6066482.999 8
  20084255.830    20084259.004   -21205028.640 7 -16232295.381 7
 88  3 21  5 57 29.0800000  0  4G 6G13G11G 9
  21360008.020    21360012.923     -270119.125 9    100484.612 9
  21082032.270    21082036.281   -38068774.246 9  18635248.589 8
  21090657.757    21090663.492    -8141675.086 9  -6031387.355 8
  20082386.704    20082388.318   -21214860.808 8 -16239956.824 8
 88  3 21  5 57 59.0800000  0  4G 6G13G11G 9
  21374451.180    21374456.522     -194220.969 9    159626.000 8
  21074085.956    21074091.571   -38110529.223 9  18602712.233 9
  21099288.263    21099291.707    -8096326.812 9  -5996051.040 9
  20080631.680    20080633.872   -21224073.999 7 -16247135.933 8
 88  3 21  5 58 29.0800000  0  4G 6G13G11G 9
  21388989.867    21388994.088     -117823.731 9    219156.285 8
  21066227.220    21066232.257   -38151831.316 9  18570528.803 8
  21107974.945    21107979.207    -8050672.226 9  -5960476.039 8
  20078994.629    20078998.968   -21232666.861 7 -16253831.716 8
 88  3 21  5 58 59.0800000  0  4G 6G13G11G 9
  21403621.920    21403626.192      -40928.992 9    279074.235 9
  21058454.127    21058458.280   -38192680.411 9  18538698.364 9
  21116720.151    21116723.581    -8004713.598 9  -5924664.153 8
  20077476.819    20077482.382   -21240638.310 7 -16260043.256 8
 88  3 21  5 59 29.0800000  0  4G 6G13G11G 9
  21418349.246    21418353.245       36461.577 9    339378.537 8
  21050767.681    21050770.626   -38233077.380 9  18507220.214 8
  21125523.567    21125526.716    -7958453.693 9  -5888617.468 8
  20076080.311    20076082.260   -21247986.931 8 -16265769.446 7
 88  3 21  5 59 59.0800000  0  4G 6G13G11G 9
  21433170.828    21433174.420      114346.677 9    400068.228 8
  21043165.766    21043169.986   -38273022.178 9  18476094.405 8
  21134384.221    21134387.612    -7911894.159 9  -5852337.324 9
  20074799.759    20074802.209   -21254711.184 8 -16271009.109 7
 88  3 21  6  0 29.0800000  0  4G 6G13G11G 9
  21448084.301    21448089.669      192724.536 9    461141.859 7
  21035649.987    21035655.080   -38312515.229 9  18445320.619 7
  21143300.251    21143302.579    -7865037.272 9  -5815825.455 8
  20073638.647    20073643.662   -21260809.943 7 -16275761.390 8
 88  3 21  6  0 59.0800000  0  4G 6G13G11G 9
  21463093.280    21463097.303      271593.292 9    522597.994 9
  21028219.891    21028223.845   -38351556.577 9  18414898.780 9
  21152273.835    21152278.367    -7817885.283 9  -5779083.638 9
  20072599.203    20072603.482   -21266281.791 7 -16280025.195 7
 88  3 21  6  1 29.0800000  0  4G 6G13G11G 9
  21478193.961    21478196.579      350951.246 9    584435.326 8
  21020877.961    21020881.652   -38390146.644 9  18384828.615 8
  21161301.761    21161306.024    -7770440.405 9  -5742113.617 9
  20071676.947    20071681.157   -21271125.491 8 -16283799.533 7
 88  3 21  6  1 59.0800000  0  4G 6G13G11G 9
  21493388.190    21493392.229      430796.481 9    646652.358 8
  21013619.287    21013624.561   -38428285.612 9  18355109.957 9
  21170384.752    21170389.515    -7722705.466 9  -5704917.555 9
  20070875.200    20070877.613   -21275340.278 8 -16287083.769 6
 88  3 21  6  2 29.0800000  0  4G 6G13G11G 9
  21508675.502    21508676.426      511127.299 9    709247.768 8
  21006448.362    21006452.730   -38465973.988 9  18325742.400 8
  21179523.920    21179528.352    -7674682.558 9  -5667497.118 9
  20070192.806    20070195.592   -21278924.996 8 -16289877.081 8
 88  3 21  6  2 59.0800000  0  4G 6G13G11G 9
  21524054.281    21524056.603      591942.152 9    772220.374 9
  20999360.985    20999366.168   -38503212.511 9  18296725.399 8
  21188718.150    21188720.021    -7626373.675 9  -5629853.813 9
  20069630.919    20069634.369   -21281878.034 8 -16292178.142 8
 88  3 21  6  3 29.0800000  0  4G 6G13G11G 9
  21539523.943    21539527.614      673239.027 9    835568.561 8
  20992361.487    20992364.825   -38540001.922 9  18268058.321 7
  21197963.950    21197967.567    -7577781.291 9  -5591989.633 9
  20069189.203    20069191.929   -21284198.709 8 -16293986.470 8
 88  3 21  6  3 59.0800000  0  4G 6G13G11G 9
  21555085.141    21555089.891      755016.101 9    899290.929 9
  20985445.291    20985449.694   -38576341.646 9  18239741.653 9
  21207263.781    21207268.172    -7528907.729 9  -5553906.342 9
  20068867.981    20068871.014   -21285885.751 7 -16295301.048 8
 88  3 21  6  4 29.0800000  0  4G 6G13G11G 9
  21570738.253    21570741.215      837271.516 9    963386.054 8
  20978615.625    20978619.914   -38612232.949 9  18211774.414 9
  21216617.815    21216621.603    -7479754.852 9  -5515605.408 8
  20068666.573    20068671.613   -21286938.208 6 -16296121.166 7
 88  3 21  6  4 59.0800000  0  4G 6G13G11G 9
  21586481.647    21586485.796      920003.515 9   1027852.526 8
  20971870.406    20971875.076   -38647676.226 9  18184156.298 9
  21226023.190    21226028.383    -7430325.670 9  -5477089.163 9
  20068586.390    20068592.761   -21287354.815 8 -16296445.799 8
 88  3 21  6  5 29.0800000  0  4G 6G13G11G 9
  21602314.447    21602321.159     1003210.485 9   1092689.089 8
  20965211.491    20965216.940   -38682671.542 9  18156887.231 9
  21235482.283    21235486.976    -7380621.659 9  -5438358.781 8
  20068629.732    20068633.906   -21287134.538 8 -16296274.160 7
 88  3 21  6  5 59.0800000  0  4G 6G13G11G 9
  21618239.443    21618243.683     1086890.171 9   1157894.002 7
  20958637.191    20958641.860   -38717219.759 9  18129966.552 8
  21244992.032    21244996.178    -7330645.326 9  -5399416.190 9
  20068796.152    20068796.744   -21286276.448 7 -16295605.531 7
 88  3 21  6  6 29.0800000  0  4G 6G13G11G 9
  21634253.077    21634257.559     1171040.887 9   1223465.951 8
  20952147.961    20952153.347   -38751320.742 9  18103394.349 8
  21254554.180    21254557.250    -7280398.649 9  -5360262.940 9
  20069079.292    20069081.607   -21284779.687 7 -16294439.237 7
 88  3 21  6  6 59.0800000  0  4G 6G13G11G 9
  21650355.882    21650358.665     1255660.440 9   1289403.264 8
  20945742.875    20945747.282   -38784975.614 9  18077169.795 8
  21264165.666    21264170.655    -7229884.509 9  -5320901.271 9
  20069484.974    20069489.374   -21282643.469 7 -16292774.663 7
 88  3 21  6  7 29.0800000  0  4G 6G13G11G 9
  21666545.725    21666549.470     1340747.075 9   1355704.524 8
  20939423.737    20939428.987   -38818184.795 9  18051292.545 7
  21273829.436    21273833.782    -7179104.804 9  -5281332.676 8
  20070013.117    20070017.931   -21279866.671 7 -16290610.949 6
 88  3 21  6  7 59.0800000  0  4G 6G13G11G 9
  21682826.912    21682831.345     1426298.919 9   1422368.266 8
  20933189.831    20933194.747   -38850948.575 9  18025762.329 8
  21283542.660    21283547.164    -7128061.698 9  -5241558.824 8
  20070665.766    20070668.005   -21276448.654 8 -16287947.582 8
 88  3 21  6  8 29.0800000  0  4G 6G13G11G 9
  21699193.976    21699199.055     1512314.015 9   1489392.969 8
  20927040.121    20927042.904   -38883267.565 9  18000578.699 8
  21293305.993    21293309.654    -7076757.455 9  -5201581.494 9
  20071437.800    20071440.796   -21272388.028 8 -16284783.453 8
 88  3 21  6  8 59.0800000  0  4G 6G13G11G 9
  21715650.196    21715654.111     1598790.123 9   1556776.927 8
  20920972.640    20920977.673   -38915142.951 9  17975740.734 8
  21303117.464    21303121.924    -7025194.622 9  -5161402.680 9
  20072331.550    20072335.005   -21267684.544 8 -16281118.393 8
 88  3 21  6  9 29.0800000  0  4G 6G13G11G 9
  21732194.150    21732198.528     1685725.179 9   1624518.497 8
  20914991.543    20914995.310   -38946575.522 9  17951247.842 8
  21312978.817    21312981.676    -6973375.549 9  -5121024.189 8
  20073349.891    20073352.752   -21262337.449 9 -16276951.839 8
 88  3 21  6  9 59.0800000  0  4G 6G13G11G 9
  21748822.860    21748828.603     1773117.357 9   1692616.261 9
  20909094.860    20909099.134   -38977565.695 9  17927099.659 7
  21322887.304    21322891.479    -6921302.178 9  -5080447.544 9
  20074488.794    20074493.178   -21256345.728 8 -16272282.999 7
 88  3 21  6 10 29.0800000  0  4G 6G13G11G 9
  21765540.388    21765545.252     1860964.511 9   1761068.577 9
  20903283.165    20903286.152   -39008113.480 9  17903296.203 7
  21332845.301    21332849.505    -6868976.969 9  -5039674.644 9
  20075751.988    20075755.597   -21249708.943 8 -16267111.485 7
 88  3 21  6 10 59.0800000  0  4G 6G13G11G 9
  21782344.696    21782349.171     1949264.543 9   1829873.785 9
  20897553.144    20897557.163   -39038219.587 9  17879836.915 8
  21342849.660    21342854.035    -6816401.977 9  -4998707.117 8
  20077138.589    20077142.202   -21242426.166 7 -16261436.594 8
 88  3 21  6 11 29.0800000  0  4G 6G13G11G 9
  21799232.850    21799237.931     2038015.363 9   1899030.260 9
  20891907.803    20891912.023   -39067885.196 9  17856720.882 9
  21352901.352    21352906.228    -6763579.255 9  -4957546.550 9
  20078648.664    20078649.990   -21234497.163 8 -16255258.155 8
 88  3 21  6 11 59.0800000  0  4G 6G13G11G 9
  21816206.793    21816211.637     2127214.729 9   1968536.238 8
  20886346.659    20886351.136   -39097111.532 9  17833947.126 8
  21362999.294    21363004.585    -6710511.617 8  -4916195.155 9
  20080280.453    20080283.617   -21225920.949 9 -16248575.416 7
 88  3 21  6 12 29.0800000  0  4G 6G13G11G 9
  21833265.605    21833269.579     2216860.618 9   2038390.141 9
  20880868.072    20880872.327   -39125898.489 9  17811515.745 8
  21373143.138    21373148.071    -6657201.117 9  -4874654.514 9
  20082033.708    20082037.462   -21216696.989 7 -16241387.928 8
 88  3 21  6 12 59.0800000  0  4G 6G13G11G 9
  21850409.633    21850415.413     2306950.932 9   2108590.348 9
  20875473.501    20875478.082   -39154246.738 9  17789426.192 8
  21383334.089    21383337.792    -6603649.982 9  -4832926.355 9
  20083913.213    20083916.401   -21206824.698 8 -16233695.250 7
 88  3 21  6 13 29.0800000  0  4G 6G13G11G 9
  21867637.195    21867640.256     2397483.476 9   2179135.194 8
  20870162.725    20870167.452   -39182157.840 8  17767677.294 8
  21393570.428    21393574.588    -6549860.338 9  -4791012.346 9
  20085916.472    20085917.611   -21196303.637 8 -16225497.010 8
 88  3 21  6 13 59.0800000  0  4G 6G13G11G 9
  21884948.214    21884954.104     2488456.143 9   2250022.953 8
  20864933.968    20864939.161   -39209631.789 9  17746269.047 9
  21403852.014    21403856.189    -6495834.212 9  -4748914.077 9
  20088042.049    20088043.295   -21185133.212 7 -16216792.783 7
 88  3 21  6 14 29.0800000  0  4G 6G13G11G 9
  21902343.177    21902347.332     2579866.843 9   2321252.060 8
  20859789.945    20859793.413   -39236669.565 9  17725200.674 9
  21414178.041    21414181.659    -6441574.082 9  -4706633.456 9
  20090291.221    20090291.816   -21173312.945 8 -16207582.214 8
 88  3 21  6 14 59.0800000  0  4G 6G13G11G 9
  21919820.689    21919825.368     2671713.208 9   2392820.637 8
  20854728.135    20854731.051   -39263272.450 9  17704471.155 8
  21424546.970    21424551.489    -6387082.365 9  -4664172.387 9
  20092663.608    20092666.574   -21160842.265 7 -16197864.817 8
 88  3 21  6 15 29.0800000  0  4G 6G13G11G 9
  21937381.070    21937385.934     2763992.924 9   2464726.880 9
  20849748.560    20849752.242   -39289441.093 9  17684080.018 9
  21434960.685    21434964.274    -6332361.038 9  -4621532.405 8
  20095159.236    20095164.529   -21147721.155 8 -16187640.569 8
 88  3 21  6 15 59.0800000  0  4G 6G13G11G 9
  21955024.466    21955027.359     2856703.901 9   2536969.160 8
  20844848.283    20844854.846   -39315175.911 9  17664026.913 8
  21445415.411    21445420.460    -6277412.113 9  -4578715.059 9
  20097780.273    20097784.223   -21133948.936 8 -16176908.971 7
 88  3 21  6 16 29.0800000  0  4G 6G13G11G 9
  21972747.393    21972752.097     2949844.118 9   2609545.938 9
  20840034.510    20840039.052   -39340477.930 9  17644311.061 8
  21455914.209    21455919.816    -6222238.088 9  -4535722.310 9
  20100525.780    20100529.298   -21119525.072 8 -16165669.616 8
 88  3 21  6 16 59.0800000  0  4G 6G13G11G 9
  21990552.849    21990557.540     3043410.849 9   2682455.054 9
  20835301.991    20835306.445   -39365347.876 9  17624931.915 8
  21466456.395    21466461.268    -6166841.268 9  -4492555.950 9
  20103396.213    20103396.922   -21104449.424 8 -16153922.381 8
 88  3 21  6 17 29.0800000  0  4G 6G13G11G 9
  22008439.218    22008442.248     3137402.055 9   2755694.955 8
  20830651.168    20830656.180   -39389786.570 9  17605888.785 8
  21477041.077    21477044.708    -6111223.597 9  -4449217.511 9
  20106387.623    20106390.175   -21088721.826 8 -16141667.115 8
 88  3 21  6 17 59.0800000  0  4G 6G13G11G 9
  22026405.888    22026409.624     3231815.558 9   2829263.878 9
  20826082.952    20826088.101   -39413795.297 9  17587180.690 8
  21487666.053    21487669.242    -6055387.092 9  -4405708.545 8
  20109503.151    20109506.472   -21072341.699 8 -16128903.391 7
 88  3 21  6 18 29.0800000  0  4G 6G13G11G 9
  22044453.058    22044455.862     3326648.834 9   2903159.904 9
  20821593.882    20821599.501   -39437375.140 9  17568806.792 8
  21498332.496    21498335.499    -5999334.429 9  -4362031.150 9
  20112744.923    20112748.203   -21055309.020 7 -16115631.175 8
 88  3 21  6 18 59.0800000  0  4G 6G13G11G 9
  22062577.517    22062581.292     3421899.577 9   2977381.221 8
  20817190.587    20817193.205   -39460526.465 8  17550766.818 7
  21509039.323    21509043.113    -5943067.601 9  -4318186.868 9
  20116111.489    20116115.270   -21037623.499 8 -16101850.257 7
 88  3 21  6 19 29.0800000  0  4G 6G13G11G 9
  22080782.263    22080785.857     3517565.540 9   3051926.127 9
  20812866.601    20812871.343   -39483250.312 9  17533059.944 8
  21519787.244    21519791.548    -5886588.837 9  -4274177.462 9
  20119599.915    20119605.875   -21019285.248 8 -16087560.723 7
 88  3 21  6 19 59.0800000  0  4G 6G13G11G 9
  22099065.366    22099069.683     3613644.195 9   3126792.589 8
  20808624.301    20808627.868   -39505548.113 9  17515685.066 7
  21530575.947    21530579.393    -5829900.047 9  -4230004.389 9
  20123213.624    20123218.451   -21000293.591 7 -16072762.060 8
 88  3 21  6 20 29.0800000  0  4G 6G13G11G 9
  22117425.586    22117430.088     3710133.444 9   3201979.000 9
  20804462.202    20804465.332   -39527420.293 9  17498641.828 8
  21541402.911    21541406.715    -5773003.576 9  -4185669.483 9
  20126952.601    20126955.696   -20980648.761 7 -16057454.399 7
 88  3 21  6 20 59.0800000  0  4G 6G13G11G 9
  22135864.386    22135870.120     3807030.877 9   3277483.459 8
  20800380.705    20800383.961   -39548868.180 9  17481929.207 7
  21552267.768    21552272.371    -5715901.662 9  -4141174.488 9
  20130816.849    20130818.099   -20960350.501 7 -16041637.557 7
 88  3 21  6 21 29.0800000  0  4G 6G13G11G 9
  22154381.830    22154385.109     3904333.917 9   3353304.015 9
  20796379.702    20796382.010   -39569891.800 9  17465547.171 9
  21563171.888    21563177.322    -5658596.485 9  -4096521.100 8
  20134804.075    20134805.003   -20939398.660 7 -16025311.446 8
 88  3 21  6 21 59.0800000  0  4G 6G13G11G 9
  22172974.933    22172978.941     4002040.555 9   3429439.025 9
  20792458.985    20792462.902   -39590492.940 9  17449494.309 9
  21574115.275    21574119.606    -5601089.525 9  -4051710.491 8
  20138914.927    20138916.982   -20917793.165 8 -16008476.028 8
 88  3 21  6 22 29.0800000  0  4G 6G13G11G 9
  22191644.038    22191648.241     4100148.183 9   3505886.493 9
  20788617.856    20788623.440   -39610672.834 9  17433769.731 9
  21585097.006    21585100.781    -5543383.616 9  -4006744.836 8
  20143150.280    20143153.178   -20895534.307 9 -15991131.470 8
 88  3 21  6 22 59.0800000  0  4G 6G13G11G 9
  22210389.307    22210394.077     4198654.182 9   3582644.361 8
  20784858.191    20784862.876   -39630432.090 9  17418372.932 8
  21596115.257    21596120.965    -5485480.811 9  -3961625.789 9
  20147510.585    20147513.180   -20872621.928 8 -15973277.676 8
 88  3 21  6 23 29.0800000  0  4G 6G13G11G 9
  22229210.176    22229212.706     4297556.082 9   3659710.794 8
  20781178.850    20781182.648   -39649771.949 9  17403302.902 8
  21607171.485    21607175.602    -5427383.534 9  -3916355.193 9
  20151995.020    20151997.137   -20849056.442 8 -15954914.991 8
 88  3 21  6 23 59.0800000  0  4G 6G13G11G 9
  22248105.416    22248108.704     4396851.496 9   3737083.856 8
  20777577.042    20777581.762   -39668693.463 8  17388558.861 8
  21618264.201    21618267.502    -5369093.780 9  -3870934.600 9
  20156602.939    20156607.010   -20824837.402 8 -15936043.018 7
 88  3 21  6 24 29.0800000  0  4G 6G13G11G 9
  22267074.075    22267078.045     4496538.067 9   3814761.695 9
  20774055.074    20774060.667   -39687197.665 9  17374140.010 8
  21629391.829    21629395.332    -5310613.659 9  -3825365.671 9
  20161336.065    20161338.549   -20799965.230 7 -15916662.135 7
 88  3 21  6 24 59.0800000  0  4G 6G13G11G 9
  22286117.642    22286121.676     4596613.226 9   3892742.298 8
  20770614.708    20770618.604   -39705285.648 9  17360045.500 9
  21640556.922    21640560.482    -5251944.796 9  -3779649.687 8
  20166193.802    20166196.982   -20774439.973 8 -15896772.347 7
 88  3 21  6 25 29.0800000  0  4G 6G13G11G 9
  22305236.293    22305239.104     4697074.631 9   3971023.888 9
  20767251.863    20767254.414   -39722958.949 9  17346274.122 8
  21651756.155    21651759.629    -5193089.250 9  -3733788.228 8
  20171174.850    20171177.553   -20748261.901 8 -15876373.841 7
 88  3 21  6 25 59.0800000  0  4G 6G13G11G 9
  22324424.920    22324430.466     4797919.796 9   4049604.502 9
  20763967.721    20763970.223   -39740218.135 9  17332825.414 8
  21662991.591    21662994.092    -5134049.395 9  -3687783.129 9
  20176279.965    20176282.893   -20721430.874 8 -15855466.579 7
 88  3 21  6 26 29.0800000  0  4G 6G13G11G 9
  22343688.744    22343692.570     4899146.166 9   4128482.163 9
  20760761.160    20760764.462   -39757064.317 9  17319698.551 8
  21674261.310    21674264.598    -5074827.588 9  -3641636.274 9
  20181509.940    20181515.127   -20693947.358 7 -15834050.857 8
 88  3 21  6 26 59.0800000  0  4G 6G13G11G 9
  22363023.169    22363025.914     5000751.248 9   4207654.953 8
  20757632.925    20757638.085   -39773498.613 9  17306892.605 8
  21685564.255    21685569.604    -5015425.884 9  -3595349.246 9
  20186864.506    20186868.453   -20665811.463 8 -15812126.805 8
 88  3 21  6 27 29.0800000  0  4G 6G13G11G 9
  22382429.090    22382433.224     5102732.430 9   4287120.771 8
  20754585.827    20754587.346   -39789522.116 9  17294406.776 8
  21696901.028    21696905.233    -4955846.218 9  -3548923.537 9
  20192342.576    20192345.782   -20637023.880 8 -15789694.948 8
 88  3 21  6 27 59.0800000  0  4G 6G13G11G 9
  22401906.597    22401909.875     5205087.030 9   4366877.599 9
  20751612.496    20751617.076   -39805136.462 9  17282239.764 8
  21708272.718    21708277.077    -4896090.740 9  -3502360.839 9
  20197946.607    20197946.347   -20607584.685 8 -15766755.309 8
 88  3 21  6 28 29.0800000  0  4G 6G13G11G 9
  22421453.673    22421458.294     5307812.615 9   4446923.495 9
  20748717.402    20748724.349   -39820342.742 8  17270390.709 9
  21719676.828    21719680.746    -4836161.166 9  -3455662.464 9
  20203672.075    20203673.593   -20577494.261 8 -15743308.219 8
 88  3 21  6 28 59.0800000  0  4G 6G13G11G 9
  22441072.799    22441075.532     5410906.633 9   4527256.511 8
  20745902.016    20745907.457   -39835141.291 8  17258859.377 9
  21731114.168    21731117.556    -4776059.668 9  -3408830.135 9
  20209521.026    20209524.343   -20546753.064 7 -15719354.050 8
 88  3 21  6 29 29.0800000  0  4G 6G13G11G 9
  22460760.096    22460765.181     5514366.352 9   4607874.465 9
  20743164.363    20743170.361   -39849534.421 9  17247643.946 8
  21742583.099    21742586.673    -4715788.906 9  -3361865.921 8
  20215493.266    20215497.580   -20515361.496 8 -15694893.135 8
 88  3 21  6 29 59.0800000  0  4G 6G13G11G 9
  22480517.987    22480521.435     5618189.493 9   4688775.591 9
  20740501.937    20740508.225   -39863522.865 9  17236743.874 9
  21754084.028    21754088.287    -4655350.623 9  -3314771.172 8
  20221593.599    20221596.076   -20483319.696 8 -15669925.511 7
 88  3 21  6 30 29.0800000  0  4G 6G13G11G 9
  22500343.166    22500347.923     5722373.131 9   4769957.646 9
  20737918.698    20737922.621   -39877107.604 9  17226158.388 7
  21765616.351    21765621.156    -4594746.808 9  -3267547.434 9
  20227813.249    20227817.030   -20450628.679 9 -15644451.992 7
 88  3 21  6 30 59.0800000  0  4G 6G13G11G 9
  22520237.611    22520242.317     5826914.653 9   4851418.547 9
  20735410.096    20735412.989   -39890289.891 9  17215886.489 8
  21777180.584    21777184.212    -4533979.418 9  -3220196.213 8
  20234158.104    20234161.234   -20417288.513 8 -15618472.660 8
 88  3 21  6 31 29.0800000  0  4G 6G13G11G 9
  22540108.901    22540204.151     5817249.490 9   4933161.356 9
  20732977.670    20732982.786   -39941208.404 9  17205931.544 9
  21788776.381    21788780.085    -4563170.815 9  -3172714.310 9
  20240527.480    20240630.020   -20469528.128 8 -15591983.245 7
 88  3 21  6 31 59.0800000  0  4G 6G13G11G 9
  22560229.209    22560233.413     5864723.701 9   5015181.173 9
  20730623.303    20730628.199   -39953581.500 9  17196290.173 9
  21800402.860    21800405.685    -4502072.798 1  -3125105.855 1
  20247218.847    20247221.895   -20434882.097 8 -15524310.667 8
 88  3 21  6 32 29.0800000  0  4G 6G13G11G 9
  22580326.633    22580329.101     5970331.697 9   5097473.099 8
  20728345.266    20728348.452   -39965556.928 8  17186958.677 8
  21812058.117    21812063.637    -4440818.512 9  -3077375.257 8
  20253936.071    20253939.490   -20399590.185 9 -15496810.478 9
 88  3 21  6 32 59.0800000  0  4G 6G13G11G 9
  22600488.766    22600493.416     6076288.669 9   5180036.979 9
  20726140.640    20726146.252   -39977133.812 9  17177937.733 8
  21823745.876    21823748.800    -4379407.254 9  -3029522.323 8
  20260774.324    20260777.040   -20363650.028 8 -15468805.171 8
 88  3 21  6 33 29.0800000  0  4G 6G13G11G 9
  22620717.415    22620721.850     6182589.519 9   5262868.767 9
  20724013.824    20724017.404   -39988315.665 9  17169224.592 8
  21835461.046    21835464.250    -4317843.289 9  -2981550.420 9
  20267736.261    20267738.438   -20327064.849 8 -15440297.242 7
 88  3 21  6 33 59.0800000  0  4G 6G13G11G 9
  22641010.836    22641014.921     6289232.588 9   5345967.264 9
  20721959.408    20721965.770   -39999102.660 9  17160819.158 7
  21847203.792    21847208.917    -4256127.878 9  -2933460.499 9
  20274820.575    20274823.406   -20289834.108 8 -15411286.306 8
 88  3 21  6 34 29.0800000  0  4G 6G13G11G 9
  22661369.153    22661373.604     6396214.463 9   5429329.728 9
  20719983.120    20719987.140   -40009497.146 9  17152719.594 8
  21858976.429    21858981.112    -4194263.450 9  -2885254.466 9
  20282027.799    20282031.865   -20251959.287 8 -15381773.484 8
 88  3 21  6 34 59.0800000  0  4G 6G13G11G 9
  22681789.416    22681793.774     6503532.822 9   5512954.372 9
  20718079.413    20718082.928   -40019500.047 9  17144925.113 8
  21870776.463    21870780.896    -4132251.796 9  -2836933.689 8
  20289358.374    20289361.080   -20213440.742 8 -15351759.060 8
 88  3 21  6 35 29.0800000  0  4G 6G13G11G 9
  22702276.224    22702280.810     6611184.963 9   5596839.145 9
  20716251.172    20716253.514   -40029112.465 9  17137434.916 9
  21882604.321    21882608.092    -4070094.601 9  -2788499.517 9
  20296811.348    20296812.078   -20174279.473 8 -15321243.786 7
 88  3 21  6 35 59.0800000  0  4G 6G13G11G 9
  22722825.344    22722828.506     6719168.210 9   5680981.917 8
  20714494.478    20714498.557   -40038335.630 9  17130248.033 8
  21894459.246    21894463.884    -4007794.072 9  -2739953.649 9
  20304383.662    20304386.365   -20134476.005 7 -15290228.103 8
 88  3 21  6 36 29.0800000  0  4G 6G13G11G 9
  22743435.880    22743440.805     6827479.787 9   5765380.563 8
  20712813.037    20712818.885   -40047171.048 8  17123363.308 9
  21906342.566    21906346.536    -3945352.073 9  -2691297.560 9
  20312079.204    20312084.701   -20094031.252 7 -15258712.752 8
 88  3 21  6 36 59.0800000  0  4G 6G13G11G 9
  22764108.016    22764115.120     6936116.846 9   5850032.769 9
  20711207.321    20711211.206   -40055620.434 9  17116779.375 9
  21918250.384    21918255.514    -3882770.843 9  -2642532.974 9
  20319898.897    20319902.400   -20052946.275 8 -15226698.505 8
 88  3 21  6 37 29.0800000  0  4G 6G13G11G 9
  22784842.989    22784847.380     7045077.052 9   5934936.803 9
  20709673.175    20709674.919   -40063684.778 9  17110495.462 8
  21930185.245    21930189.959    -3820051.975 9  -2593661.131 9
  20327838.039    20327842.702   -20011221.614 8 -15194185.802 8
 88  3 21  6 37 59.0800000  0  4G 6G13G11G 9
  22805637.887    22805643.189     7154357.357 8   6020090.270 9
  20708210.534    20708214.084   -40071365.284 8  17104510.664 8
  21942147.461    21942149.944    -3757197.498 9  -2544683.619 8
  20335900.701    20335905.408   -19968858.429 8 -15161175.523 8
 88  3 21  6 38 29.0800000  0  4G 6G13G11G 9
  22826495.210    22826499.080     7263955.078 9   6105491.081 9
  20706820.976    20706826.059   -40078663.474 9  17098823.777 8
  21954134.380    21954137.616    -3694209.353 9  -2495601.947 9
  20344083.784    20344087.092   -19925857.498 8 -15127668.330 8
 88  3 21  6 38 59.0800000  0  4G 6G13G11G 9
  22847409.949    22847414.763     7373867.534 9   6191137.161 8
  20705504.678    20705508.818   -40085581.230 9  17093433.318 8
  21966145.875    21966149.229    -3631089.101 9  -2446417.346 9
  20352387.613    20352391.332   -19882219.793 8 -15093664.958 8
 88  3 21  6 39 29.0800000  0  4G 6G13G11G 9
  22868386.181    22868389.916     7484091.452 9   6277025.910 9
  20704260.968    20704263.927   -40092120.105 9  17088338.096 8
  21978182.666    21978185.724    -3567839.161 9  -2397131.678 9
  20360812.952    20360815.169   -19837946.997 8 -15059166.683 9
 88  3 21  6 39 59.0800000  0  4G 6G13G11G 9
  22889418.578    22889422.784     7594624.267 9   6363155.371 8
  20703088.370    20703092.200   -40098281.162 9  17083537.286 8
  21990242.304    21990245.156    -3504461.570 9  -2347746.542 9
  20369358.233    20369360.535   -19793039.760 9 -15024174.047 8
 88  3 21  6 40 29.0800000  0  4G 6G13G11G 9
  22910510.392    22910515.030     7705463.038 9   6449523.237 9
  20701987.985    20701991.261   -40104065.847 9  17079029.754 8
  22002325.558    22002329.612    -3440958.477 9  -2298263.621 8
  20378023.682    20378027.014   -19747499.399 9 -14988688.076 8
 88  3 21  6 40 59.0800000  0  4G 6G13G11G 9
  22931659.330    22931664.531     7816604.729 9   6536127.123 9
  20700958.868    20700961.910   -40109475.303 9  17074814.598 8
  22014433.874    22014437.646    -3377331.052 9  -2248683.816 9
  20386811.306    20386813.580   -19701326.751 8 -14952709.399 8
 88  3 21  6 41 29.0800000  0  4G 6G13G11G 9
  22952866.520    22952872.030     7928048.374 9   6622966.305 9
  20699999.857    20700002.477   -40114510.500 9  17070891.078 8
  22026564.504    22026569.062    -3313580.803 8  -2199008.323 9
  20395716.289    20395721.140   -19654522.114 8 -14916238.259 8
 88  3 21  6 41 59.0800000  0  4G 6G13G11G 9
  22974129.793    22974135.761     8039789.800 9   6710037.553 9
  20699113.010    20699114.475   -40119173.514 9  17067257.584 9
  22038719.006    22038723.201    -3249709.792 9  -2149238.724 9
  20404745.591    20404747.408   -19607087.055 9 -14879275.898 8
 88  3 21  6 42 29.0800000  0  4G 6G13G11G 9
  22995450.671    22995455.493     8151827.106 9   6797339.344 9
  20698295.922    20698299.335   -40123465.714 9  17063913.023 9
  22050895.985    22050899.497    -3185719.226 9  -2099375.961 9
  20413890.798    20413893.602   -19559022.228 9 -14841822.811 8
 88  3 21  6 42 59.0800000  0  4G 6G13G11G 9
  23016826.759    23016829.734     8264156.679 9   6884868.896 9
  20697548.042    20697552.692   -40127388.282 8  17060856.472 8
  22063096.254    22063099.079    -3121611.904 9  -2049422.214 9
  20423158.122    20423158.966   -19510329.422 9 -14803880.397 8
 88  3 21  6 43 29.0800000  0  4G 6G13G11G 9
  23038257.086    23038260.886     8376774.660 8   6972623.172 9
  20696871.512    20696877.158   -40130943.922 8  17058085.842 8
  22075316.539    22075319.927    -3057390.412 9  -1999379.482 9
  20432541.005    20432544.195   -19461011.110 8 -14765450.549 8
 88  3 21  6 43 59.0800000  0  4G 6G13G11G 9
  23059741.173    23059745.231     8489679.308 9   7060600.770 9
  20696265.591    20696269.760   -40134133.249 9  17055600.639 8
  22087559.272    22087563.000    -2993055.447 9  -1949248.360 8
  20442043.914    20442047.949   -19411067.634 8 -14726533.575 9
 88  3 21  6 44 29.0800000  0  4G 6G13G11G 9
  23081280.668    23081285.138     8602867.697 9   7148799.512 9
  20695729.074    20695731.037   -40136957.309 9  17053400.064 8
  22099823.194    22099826.210    -2928609.185 9  -1899030.515 9
  20451668.079    20451671.970   -19360499.892 8 -14687130.163 8
 88  3 21  6 44 59.0800000  0  4G 6G13G11G 9
  23102874.455    23102878.204     8716336.681 9   7237216.918 9
  20695259.548    20695263.165   -40139418.266 9  17051482.447 8
  22112107.647    22112111.478    -2864053.561 9  -1848727.448 9
  20461409.492    20461413.155   -19309309.776 8 -14647241.771 9
 88  3 21  6 45 29.0800000  0  4G 6G13G11G 9
  23124519.019    23124523.025     8830083.489 9   7325850.793 9
  20694859.765    20694864.767   -40141517.873 9  17049846.403 8
  22124413.528    22124416.521    -2799390.273 9  -1798340.475 9
  20471268.156    20471270.519   -19257498.574 8 -14606869.437 9
 88  3 21  6 45 59.0800000  0  4G 6G13G11G 9
  23146216.885    23146221.228     8944105.541 9   7414699.137 9
  20694529.292    20694532.828   -40143257.160 9  17048491.129 8
  22136737.984    22136742.027    -2734620.930 9  -1747870.857 9
  20481245.672    20481248.705   -19205067.429 8 -14566014.008 8
 88  3 21  6 46 29.0800000  0  4G 6G13G11G 9
  23167966.960    23167971.473     9058399.709 9   7503759.518 9
  20694266.567    20694269.769   -40144638.100 9  17047415.069 8
  22149082.615    22149086.164    -2669747.703 9  -1697320.287 9
  20491340.610    20491343.816   -19152017.897 9 -14524676.744 8
 88  3 21  6 46 59.0800000  0  4G 6G13G11G 9
  23189766.514    23189771.778     9172963.284 9   7593029.775 9
  20694070.756    20694073.836   -40145661.983 9  17046617.250 8
  22161445.746    22161450.962    -2604772.094 9  -1646689.956 9
  20501554.170    20501554.786   -19098351.229 9 -14482858.568 7
 88  3 21  6 47 29.0800000  0  4G 6G13G11G 9
  23211618.240    23211622.504     9287793.009 9   7682507.500 9
  20693944.798    20693948.221   -40146330.278 9  17046096.529 8
  22173831.009    22173833.403    -2539696.161 9  -1595981.450 8
  20511882.490    20511884.179   -19044069.137 9 -14440560.845 8
 88  3 21  6 47 59.0800000  0  4G 6G13G11G 9
  23233518.825    23233525.091     9402885.888 9   7772190.227 9
  20693884.765    20693887.998   -40146645.123 9  17045851.217 9
  22186232.856    22186237.069    -2474521.819 9  -1545196.247 9
  20522329.207    20522330.220   -18989173.546 8 -14397785.073 7
 88  3 21  6 48 29.0800000  0  4G 6G13G11G 9
  23255470.185    23255474.858     9518239.364 9   7862076.020 9
  20693891.911    20693894.786   -40146607.805 9  17045880.308 9
  22198652.977    22198656.198    -2409250.630 9  -1494335.586 9
  20532890.336    20532894.129   -18933665.269 9 -14354531.895 8
 88  3 21  6 48 59.0800000  0  4G 6G13G11G 9
  23277469.982    23277474.527     9633850.403 9   7952162.541 9
  20693967.067    20693969.603   -40146219.601 9  17046182.802 8
  22211091.694    22211096.495    -2343884.060 9  -1443400.603 9
  20543570.807    20543574.239   -18877546.067 8 -14310802.694 8
 88  3 21  6 49 29.0800000  0  4G 6G13G11G 9
  23299519.297    23299524.070     9749716.007 9   8042447.411 9
  20694105.923    20694110.499   -40145482.933 9  17046756.824 8
  22223548.070    22223553.241    -2278424.094 9  -1392392.840 9
  20554365.320    20554369.111   -18820817.698 9 -14266598.784 8
 88  3 21  6 49 59.0800000  0  4G 6G13G11G 9
  23321615.553    23321620.196     9865833.218 9   8132928.347 9
  20694311.558    20694316.576   -40144398.849 9  17047601.573 9
  22236022.312    22236026.723    -2212872.395 9  -1341313.602 9
  20565276.081    20565279.085   -18763481.760 8 -14221921.443 8
 88  3 21  6 50 29.0800000  0  4G 6G13G11G 9
  23343759.351    23343763.156     9982199.357 9   8223603.295 8
  20694584.786    20694586.854   -40142968.752 9  17048715.951 8
  22248512.920    22248519.087    -2147230.514 9  -1290164.095 8
  20576301.860    20576305.639   -18705539.616 9 -14176771.727 8
 88  3 21  6 50 59.0800000  0  4G 6G13G11G 9
  23365949.767    23365955.770    10098811.179 9   8314469.653 9
  20694922.843    20694926.051   -40141194.154 9  17050098.751 8
  22261022.137    22261026.020    -2081500.533 9  -1238945.926 9
  20587442.857    20587447.578   -18646993.105 8 -14131151.092 8
 88  3 21  6 51 29.0800000  0  4G 6G13G11G 9
  23388185.252    23388191.841    10215666.188 9   8405525.463 9
  20695325.025    20695329.203   -40139076.591 9  17051748.803 8
  22273546.876    22273551.645    -2015683.741 9  -1187660.115 9
  20598699.729    20598702.916   -18587843.771 8 -14085060.744 9
 88  3 21  6 51 59.0800000  0  4G 6G13G11G 9
  23410468.562    23410473.400    10332761.344 9   8496768.416 8
  20695791.799    20695796.305   -40136617.959 9  17053664.635 8
  22286087.641    22286091.671    -1949782.003 9  -1136308.126 8
  20610068.468    20610072.133   -18528093.359 8 -14038501.996 8
 88  3 21  6 52 29.0800000  0  4G 6G13G11G 9
  23432796.263    23432799.918    10450093.444 9   8588196.033 9
  20696325.282    20696328.045   -40133820.291 9  17055844.651 8
  22298644.471    22298648.353    -1883796.967 9  -1084891.225 9
  20621552.087    20621557.852   -18467743.589 9 -13991476.235 9
 88  3 21  6 52 59.0800000  0  4G 6G13G11G 9
  23455169.215    23455172.049    10567659.782 9   8679806.159 9
  20696921.526    20696924.613   -40130684.202 9  17058288.350 8
  22311216.332    22311219.939    -1817729.924 9  -1033410.440 9
  20633150.977    20633154.509   -18406796.299 8 -13943984.841 8
 88  3 21  6 53 29.0800000  0  4G 6G13G11G 9
  23477585.338    23477587.872    10685457.453 9   8771596.548 8
  20697581.568    20697584.733   -40127211.975 9  17060994.004 7
  22323803.144    22323807.601    -1751582.844 9   -981867.278 9
  20644862.681    20644865.600   -18345253.019 8 -13896029.051 8
 88  3 21  6 53 59.0800000  0  4G 6G13G11G 9
  23500044.712    23500048.068    10803483.505 9   8863564.920 9
  20698307.174    20698310.522   -40123405.186 9  17063960.327 8
  22336405.822    22336409.965    -1685357.517 9   -930263.149 9
  20656685.625    20656689.317   -18283115.542 8 -13847610.269 8
 88  3 21  6 54 29.0800000  0  4G 6G13G11G 9
  23522544.665    23522551.126    10921734.872 9   8955708.803 9
  20699095.280    20699098.766   -40119265.329 9  17067186.202 8
  22349022.796    22349026.971    -1619055.166 9   -878598.999 9
  20668624.558    20668628.264   -18220386.106 8 -13798730.210 8
 88  3 21  6 54 59.0800000  0  4G 6G13G11G 9
  23545090.766    23545096.382    11040208.745 8   9048026.104 9
  20699945.544    20699949.027   -40114794.055 9  17070670.311 9
  22361654.093    22361657.504    -1552677.363 9   -826876.048 9
  20680674.132    20680677.381   -18157066.236 9 -13749390.064 8
 88  3 21  6 55 29.0800000  0  4G 6G13G11G 9
  23567677.929    23567683.170    11158901.915 8   9140514.261 9
  20700859.656    20700863.110   -40109992.847 9  17074411.525 9
  22374298.331    22374303.765    -1486226.260 9   -775095.984 9
  20692835.489    20692838.719   -18093157.931 8 -13699591.398 9
 88  3 21  6 55 59.0800000  0  4G 6G13G11G 9
  23590306.549    23590311.057    11277811.373 9   9233170.948 9
  20701836.091    20701838.281   -40104863.932 9  17078408.072 9
  22386956.740    22386962.923    -1419703.259 9   -723259.899 9
  20705108.743    20705111.275   -18028663.195 9 -13649335.763 8
 88  3 21  6 56 29.0800000  0  4G 6G13G11G 9
  23612975.272    23612979.043    11396934.288 9   9325993.961 9
  20702873.613    20702877.261   -40099408.529 9  17082659.040 8
  22399629.790    22399634.886    -1353109.795 9   -671368.903 9
  20717491.778    20717494.766   -17963583.838 9 -13598624.617 9
 88  3 21  6 56 59.0800000  0  4G 6G13G11G 9
  23635682.579    23635687.638    11516267.849 8   9418981.106 9
  20703974.509    20703977.846   -40093628.201 9  17087163.195 9
  22412315.897    22412318.411    -1286447.476 9   -619424.244 9
  20729987.681    20729990.471   -17897921.435 9 -13547459.143 9
 88  3 21  6 57 29.0800000  0  4G 6G13G11G 9
  23658430.483    23658436.301    11635808.872 9   9512129.950 8
  20705135.598    20705139.064   -40087525.137 9  17091918.823 9
  22425013.748    22425017.650    -1219718.255 9   -567427.438 9
  20742594.483    20742596.571   -17831678.612 9 -13495841.381 8
 88  3 21  6 57 59.0800000  0  4G 6G13G11G 9
  23681216.714    23681223.204    11755554.482 9   9605438.222 9
  20706357.362    20706360.237   -40081100.433 9  17096925.109 8
  22437723.618    22437728.480    -1152923.507 9   -515379.603 8
  20755309.319    20755312.181   -17764857.025 9 -13443772.630 9
 88  3 21  6 58 29.0800000  0  4G 6G13G11G 9
  23704042.056    23704048.498    11875501.958 8   9698903.799 9
  20707641.992    20707643.379   -40074355.864 9  17102180.641 8
  22450447.214    22450451.546    -1086064.585 9   -463281.756 9
  20768134.191    20768137.656   -17697458.875 9 -13391254.609 8
 88  3 21  6 58 59.0800000  0  4G 6G13G11G 9
  23726904.583    23726909.951    11995648.008 8   9792524.113 9
  20708985.788    20708988.925   -40067293.406 8  17107683.867 8
  22463182.149    22463186.161    -1019142.750 9   -411134.879 9
  20781067.156    20781072.151   -17629485.822 9 -13338288.611 8
 88  3 21  6 59 29.0800000  0  4G 6G13G11G 9
  23749806.650    23749810.068    12115989.654 9   9886296.800 8
  20710389.614    20710393.008   -40059914.579 9  17113433.591 8
  22475927.890    22475933.032     -952159.955 9   -358940.500 9
  20794112.048    20794115.812   -17560940.159 8 -13284876.420 8
 88  3 21  6 59 59.0800000  0  4G 6G13G11G 9
  23772743.203    23772748.062    12236523.949 9   9980219.592 9
  20711852.688    20711855.387   -40052220.871 9  17119428.689 8
  22488686.093    22488691.057     -885117.632 9   -306699.734 9
  20807266.148    20807268.123   -17491823.963 9 -13231019.646 8
 88  3 21  7  0 29.0800000  0  4G 6G13G11G 9
  23795716.083    23795719.847    12357247.816 9  10074290.158 8
  20713376.159    20713378.856   -40044213.818 9  17125667.961 8
  22501454.991    22501459.661     -818017.176 9   -254413.668 9
  20820526.507    20820529.011   -17422139.557 9 -13176720.135 8
 88  3 21  7  0 59.0800000  0  4G 6G13G11G 9
  23818724.657    23818727.821    12478158.227 9  10168506.096 8
  20714960.256    20714961.833   -40035895.931 9  17132149.432 8
  22514234.091    22514239.732     -750860.172 8   -202083.540 9
  20833896.162    20833897.518   -17351888.876 9 -13121979.363 9
 88  3 21  7  1 29.0800000  0  4G 6G13G11G 9
  23841767.537    23841773.526    12599252.155 9  10262865.012 8
  20716601.144    20716605.708   -40027268.855 9  17138871.830 9
  22527025.334    22527029.014     -683648.258 9   -149710.639 8
  20847370.128    20847373.562   -17281074.352 9 -13066799.262 9
 88  3 21  7  1 59.0800000  0  4G 6G13G11G 9
  23864844.818    23864850.174    12720526.550 8  10357364.539 9
  20718300.528    20718305.380   -40018334.139 9  17145833.947 9
  22539825.375    22539828.691     -616383.014 9    -97296.167 9
  20860952.386    20860956.448   -17209698.141 9 -13011181.466 8
 88  3 21  7  2 29.0800000  0  4G 6G13G11G 9
  23887955.423    23887962.161    12841978.632 8  10452002.488 9
  20720060.460    20720064.589   -40009092.710 9  17153035.084 8
  22552634.616    22552638.675     -549065.565 9    -44841.026 8
  20874642.165    20874643.723   -17137762.270 9 -12955127.550 8
 88  3 21  7  2 59.0800000  0  4G 6G13G11G 9
  23911099.160    23911107.173    12963605.441 8  10546776.600 9
  20721877.118    20721880.989   -39999547.063 9  17160473.254 9
  22565454.976    22565459.717     -481697.353 9      7653.668 8
  20888436.056    20888438.288   -17065268.689 9 -12898639.052 7
 88  3 21  7  3 29.0800000  0  4G 6G13G11G 9
  23934278.693    23934284.960    13085403.826 9  10641684.420 9
  20723750.719    20723754.649   -39989698.794 9  17168147.229 8
  22578284.340    22578287.831     -414280.116 9     60186.580 8
  20902336.408    20902339.400   -16992220.071 9 -12841718.078 8
 88  3 21  7  3 59.0800000  0  4G 6G13G11G 9
  23957488.609    23957493.391    13207370.826 9  10736723.640 9
  20725681.475    20725684.889   -39979549.566 9  17176055.724 9
  22591122.484    22591126.808     -346814.745 9    112756.982 8
  20916341.675    20916345.381   -16918618.488 9 -12784366.203 8
 88  3 21  7  4 29.0800000  0  4G 6G13G11G 9
  23980729.788    23980733.743    13329503.644 9  10831892.064 8
  20727669.794    20727674.543   -39969100.590 9  17184197.797 9
  22603969.970    22603972.908     -279302.820 9    165363.679 8
  20930452.832    20930458.040   -16844466.061 8 -12726585.113 8
 88  3 21  7  4 59.0800000  0  4G 6G13G11G 9
  24004002.057    24004005.907    13451799.122 9  10927187.257 8
  20729715.693    20729719.632   -39958354.189 9  17192571.625 8
  22616824.930    22616829.113     -211746.052 9    218005.310 8
  20944668.672    20944672.636   -16769765.364 8 -12668376.814 9
 88  3 21  7  5 29.0800000  0  4G 6G13G11G 9
  24027304.413    24027309.023    13574253.950 9  11022606.611 8
  20731817.264    20731821.073   -39947312.003 9  17201175.931 8
  22629688.551    22629692.759     -144145.912 9    270680.739 8
  20958986.852    20958990.530   -16694518.837 8 -12609743.176 9
 88  3 21  7  5 59.0800000  0  4G 6G13G11G 9
  24050636.003    24050640.726    13696865.080 9  11118147.753 9
  20733973.332    20733976.724   -39935975.749 9  17210009.379 8
  22642560.624    22642565.000      -76503.961 9    323388.742 9
  20973410.206    20973413.971   -16618729.042 9 -12550686.203 9
 88  3 21  7  6 29.0800000  0  4G 3G13G11G 9
                  22770755.997   -81072954.320 9
  20736186.727    20736189.967   -39924346.656 9  17219071.002 8
  22655440.027    22655445.641       -8821.125 9    376128.614 8
  20987935.331    20987939.593   -16542398.063 9 -12491207.546 8
 88  3 21  7  6 59.0800000  0  4G 3G13G11G 9
  23058950.246    23058954.440   -81134024.869 8 102872757.315 8
  20738454.670    20738458.048   -39912427.342 9  17228358.813 8
  22668326.297    22668332.489       58901.130 8    428899.186 8
  21002563.507    21002566.608   -16465528.099 9 -12431308.899 8
 88  3 21  7  7 29.0800000  0  4G 3G13G11G 9
  23047375.586    23047379.470   -81194855.789 9 102825356.632 8
  20740778.758    20740781.753   -39900219.256 9  17237871.628 8
  22681221.467    22681226.359      126661.281 9    481699.276 8
  21017293.333    21017297.912   -16388121.811 9 -12370992.315 7
 88  3 21  7  7 59.0800000  0  4G 3G13G11G 9
  23035845.111    23035849.812   -81255447.573 8 102778142.291 8
  20743156.674    20743159.117   -39887723.874 9  17247608.269 8
  22694122.995    22694128.154      194457.951 8    534527.838 9
  21032124.728    21032128.088   -16310181.500 8 -12310259.632 8
 88  3 21  7  8 29.0800000  0  4G 3G13G11G 9
  23024359.891    23024364.424   -81315800.983 8 102731113.682 8
  20745588.619    20745592.714   -39874943.066 9  17257567.348 8
  22707030.107    22707036.219      262289.640 8    587383.693 9
  21047057.918    21047060.191   -16231710.108 9 -12249113.110 8
 88  3 21  7  8 59.0800000  0  4G 3G13G11G 9
  23012921.688    23012924.707   -81375916.352 9 102684270.528 9
  20748073.570    20748077.498   -39861878.957 9  17267747.171 8
  22719944.623    22719950.103      330155.425 8    640266.104 9
  21062090.585    21062092.358   -16152709.684 9 -12187554.368 8
 88  3 21  7  9 29.0800000  0  4G 3G13G11G 9
  23001525.634    23001530.349   -81435793.622 9 102637612.952 8
  20750612.827    20750616.694   -39848532.348 9  17278147.135 8
  22732865.451    22732870.024      398054.081 9    693174.128 9
  21077224.189    21077226.317   -16073182.529 9 -12125585.173 8
 88  3 21  7  9 59.0800000  0  4G 3G13G11G 9
  22990177.695    22990181.263   -81495432.658 9 102591141.016 9
  20753207.965    20753210.197   -39834904.995 9  17288765.856 9
  22745792.662    22745797.547      465984.174 9    746106.670 8
  21092457.930    21092460.085   -15993131.238 9 -12063207.554 8
 88  3 21  7 10 29.0800000  0  4G 3G13G11G 9
  22978873.187    22978878.018   -81554834.288 8 102544854.052 9
  20755854.134    20755856.914   -39820999.193 9  17299601.566 8
  22758725.845    22758729.815      533944.583 8    799062.828 9
  21107789.799    21107792.302   -15912558.637 9 -12000423.722 8
 88  3 21  7 10 59.0800000  0  4G 3G13G11G 9
  22967614.897    22967619.717   -81613998.902 9 102498751.786 8
  20758551.199    20758554.941   -39806816.774 9  17310652.819 8
  22771663.501    22771667.577      601933.832 9    852041.461 9
  21123220.491    21123225.171   -15831467.021 9 -11937235.449 8
 88  3 21  7 11 29.0800000  0  4G 3G13G11G 9
  22956401.177    22956404.962   -81672926.241 9 102452834.384 7
  20761302.754    20761306.064   -39792359.279 9  17321918.405 9
  22784606.513    22784609.833      669950.541 9    905041.479 9
  21138749.288    21138753.550   -15749858.968 9 -11873644.803 8
 88  3 21  7 11 59.0800000  0  4G 3G13G11G 9
  22945232.261    22945237.176   -81731616.897 9 102407101.412 8
  20764107.061    20764109.633   -39777628.505 9  17333396.915 8
  22797555.118    22797559.239      737993.463 9    958061.909 9
  21154378.134    21154381.092   -15667737.231 9 -11809653.849 8
 88  3 21  7 12 29.0800000  0  4G 3G13G11G 9
  22934109.763    22934114.118   -81790070.997 8 102361552.788 9
  20766960.217    20766964.784   -39762626.166 9  17345087.038 8
  22810506.989    22810511.441      806061.503 9   1011101.930 9
  21170101.821    21170105.237   -15585104.294 9 -11745264.561 8
 88  3 21  7 12 59.0800000  0  4G 3G13G11G 9
  22923031.322    22923034.742   -81848289.335 9 102316187.896 9
  20769866.298    20769872.838   -39747354.042 9  17356987.397 8
  22823464.764    22823469.265      874153.275 9   1064160.448 9
  21185923.925    21185927.587   -15501963.059 9 -11680479.192 8
 88  3 21  7 13 29.0800000  0  4G 3G13G11G 9
  22911997.382    22912000.960   -81906272.218 9 102271006.466 9
  20772822.892    20772827.829   -39731813.325 9  17369097.055 9
  22836426.349    22836431.018      942267.444 9   1117236.406 9
  21201841.672    21201845.220   -15418315.812 9 -11615299.548 8
 88  3 21  7 13 59.0800000  0  4G 3G13G11G 9
  22901008.768    22901011.630   -81964019.910 8 102226008.269 9
  20775832.189    20775835.063   -39716006.457 9  17381414.111 8
  22849391.994    22849397.454     1010402.977 9   1170329.018 9
  21217855.406    21217858.409   -15334165.581 9 -11549727.955 7
 88  3 21  7 14 29.0800000  0  4G 3G13G11G 9
  22890062.788    22890067.988   -82021532.668 9 102181193.166 9
  20778890.253    20778893.726   -39699934.635 9  17393937.603 8
  22862360.726    22862366.658     1078558.574 9   1223437.257 9
  21233963.952    21233967.056   -15249514.894 9 -11483766.404 8
 88  3 21  7 14 59.0800000  0  4G 3G13G11G 9
  22879164.808    22879169.188   -82078811.302 9 102136560.497 9
  20781999.427    20782003.171   -39683599.911 9  17406665.946 8
  22875333.672    22875339.267     1146733.018 9   1276560.181 9
  21250167.857    21250169.774   -15164366.221 9 -11417416.788 8
 88  3 21  7 15 29.0800000  0  4G 3G13G11G 9
  22868310.461    22868313.527   -82135855.587 8 102092110.413 9
  20785157.310    20785161.292   -39667003.763 9  17419598.014 8
  22888311.108    22888315.519     1214925.671 9   1329697.304 9
  21266465.572    21266465.970   -15078722.365 9 -11350681.332 7
 88  3 21  7 15 59.0800000  0  4G 3G13G11G 9
  22857497.451    22857502.201   -82192666.176 9 102047842.437 8
  20788363.852    20788369.687   -39650148.118 8  17432732.279 9
  22901291.867    22901295.970     1283134.808 9   1382847.278 9
  21282855.377    21282857.880   -14992586.174 9 -11283562.245 8
 88  3 21  7 16 29.0800000  0  4G 3G13G11G 9
  22846731.238    22846736.032   -82249242.970 8 102003756.645 9
  20791619.472    20791624.955   -39633034.761 9  17446067.387 8
  22914273.297    22914279.068     1351359.646 9   1436009.468 9
  21299339.427    21299342.730   -14905960.427 8 -11216061.687 9
 88  3 21  7 16 59.0800000  0  4G 3G13G11G 9
  22836008.339    22836013.501   -82305586.981 8 101959852.235 9
  20794927.214    20794929.606   -39615665.554 9  17459601.829 8
  22927259.478    22927264.032     1419598.354 9   1489182.465 9
  21315915.539    21315919.744   -14818847.869 9 -11148181.788 8
 88  3 21  7 17 29.0800000  0  4G 3G13G11G 9
  22825330.276    22825337.274   -82361698.569 9 101916128.942 9
  20798279.862    20798283.665   -39598042.184 9  17473334.333 9
  22940247.155    22940251.703     1487849.979 9   1542365.552 8
  21332585.752    21332588.381   -14731251.399 9 -11079924.828 8
 88  3 21  7 17 59.0800000  0  4G 3G13G11G 9
  22814698.893    22814702.461   -82417578.231 9 101872586.384 9
  20801680.253    20801686.340   -39580166.709 9  17487263.268 9
  22953237.514    22953241.790     1556113.239 9   1595557.696 9
  21349346.481    21349348.869   -14643173.692 9 -11011292.863 8
 88  3 21  7 18 29.0800000  0  4G 3G13G11G 9
  22804109.574    22804112.507   -82473225.903 9 101829224.584 9
  20805130.410    20805135.513   -39562040.111 9  17501387.888 8
  22966229.504    22966234.136     1624387.396 9   1648758.328 9
  21366198.676    21366200.307   -14554617.696 9 -10942288.181 8
 88  3 21  7 18 59.0800000  0  4G 3G13G11G 9
  22793564.853    22793567.263   -82528642.193 8 101786043.082 9
  20808627.850    20808633.409   -39543664.502 9  17515706.535 9
  22979222.986    22979228.428     1692671.307 9   1701966.554 9
  21383140.105    21383142.634   -14465586.266 8 -10872913.061 8
 88  3 21  7 19 29.0800000  0  4G 3G13G11G 9
  22783063.189    22783066.731   -82583827.638 8 101743041.436 8
  20812171.470    20812176.555   -39525042.293 9  17530217.359 9
  22992218.611    22992223.376     1760963.799 9   1755181.466 9
  21400171.250    21400174.782   -14376082.230 9 -10803169.672 8
 88  3 21  7 19 59.0800000  0  4G 3G13G11G 9
  22772604.521    22772609.221   -82638782.347 8 101700219.585 8
  20815763.505    20815765.851   -39506174.256 9  17544919.729 8
  23005216.321    23005220.779     1829264.014 9   1808402.392 9
  21417293.144    21417296.521   -14286107.925 9 -10733059.854 9
 88  3 21  7 20 29.0800000  0  4G 3G13G11G 9
  22762191.057    22762194.506   -82693507.078 9 101657576.953 9
  20819399.746    20819401.919   -39487062.095 9  17559812.318 8
  23018214.247    23018218.989     1897570.688 9   1861628.339 8
  21434503.355    21434507.604   -14195666.497 9 -10662586.033 8
 88  3 21  7 20 59.0800000  0  4G 3G13G11G 9
  22751821.841    22751825.837   -82748002.202 9 101615113.245 9
  20823083.298    20823085.461   -39467707.935 9  17574893.493 8
  23031214.038    23031217.701     1965882.615 9   1914858.395 9
  21451801.884    21451805.545   -14104761.080 9 -10591750.670 8
 88  3 21  7 21 29.0800000  0  4G 3G13G11G 9
  22741495.145    22741499.360   -82802268.231 9 101572828.059 8
  20826811.957    20826815.581   -39448112.903 9  17590162.339 8
  23044214.258    23044218.984     2034199.176 9   1968092.056 9
  21469190.273    21469191.729   -14013393.970 9 -10520555.532 8
 88  3 21  7 21 59.0800000  0  4G 3G13G11G 9
  22731211.981    22731216.694   -82856305.407 9 101530721.184 8
  20830584.363    20830588.566   -39428279.417 9  17605617.009 8
  23057215.005    23057219.431     2102519.051 9   2021328.317 9
  21486664.059    21486665.545   -13921568.441 9 -10449003.188 7
 88  3 21  7 22 29.0800000  0  4G 3G13G11G 9
  22720971.480    22720975.922   -82910114.296 8 101488792.202 9
  20834404.168    20834407.619   -39408208.570 9  17621256.650 8
  23070216.431    23070219.874     2170841.333 9   2074566.442 9
  21504222.842    21504226.017   -13829287.374 9 -10377095.871 9
 88  3 21  7 22 59.0800000  0  4G 3G13G11G 9
  22710775.995    22710779.665   -82963695.318 9 101447040.769 8
  20838268.823    20838271.556   -39387902.763 9  17637079.377 8
  23083218.360    23083222.113     2239164.988 9   2127805.643 9
  21521870.228    21521873.159   -13736553.826 9 -10304835.993 8
 88  3 21  7 23 29.0800000  0  4G 3G13G11G 9
  22700625.228    22700626.330   -83017049.230 9 101405466.315 8
  20842177.138    20842179.979   -39367363.387 9  17653084.082 8
  23096219.696    23096223.690     2307488.871 9   2181045.023 8
  21539602.868    21539603.679   -13643370.819 9 -10232225.880 9
 88  3 21  7 23 59.0800000  0  4G 3G13G11G 9
  22690514.280    22690517.194   -83070176.229 8 101364068.667 8
  20846129.061    20846132.702   -39346591.639 9  17669269.851 8
  23109219.904    23109224.978     2375811.893 9   2234283.738 9
  21557419.702    21557422.934   -13549740.895 9 -10159267.523 8
 88  3 21  7 24 29.0800000  0  4G 3G13G11G 9
  22680446.570    22680451.099   -83123076.782 9 101322847.468 8
  20850127.153    20850129.708   -39325589.678 9  17685634.998 7
  23122220.807    23122227.176     2444133.298 9   2287521.179 8
  21575322.364    21575325.066   -13455667.681 9 -10085963.742 8
 88  3 21  7 24 59.0800000  0  4G 3G13G11G 9
  22670422.639    22670426.489   -83175751.801 9 101281802.018 8
  20854166.550    20854170.338   -39304358.999 9  17702178.398 8
  23135221.579    23135226.253     2512452.006 9   2340756.513 8
  21593306.674    21593309.190   -13361153.768 9 -10012316.571 9
 88  3 21  7 25 29.0800000  0  4G 3G13G11G 9
  22660441.759    22660446.702   -83228201.642 8 101240932.035 9
  20858248.276    20858252.715   -39282901.559 9  17718898.479 9
  23148222.531    23148226.396     2580767.292 9   2393989.214 8
  21611374.291    21611378.767   -13266202.185 9  -9938328.337 8
 88  3 21  7 25 59.0800000  0  4G 3G13G11G 9
  22650503.673    22650507.235   -83280427.211 9 101200236.807 9
  20862374.073    20862379.919   -39261219.690 9  17735793.444 9
  23161220.805    23161225.866     2649077.320 9   2447217.801 7
  21629526.619    21629530.740   -13170816.771 8  -9864002.056 8
 88  3 21  7 26 29.0800000  0  4G 3G13G11G 9
  22640609.377    22640611.887   -83332428.541 9 101159716.309 9
  20866545.094    20866547.223   -39239314.093 9  17752862.737 8
  23174220.236    23174223.958     2717381.914 9   2500442.149 8
  21647759.680    21647766.319   -13074999.617 8  -9789339.363 8
 88  3 21  7 26 59.0800000  0  4G 3G13G11G 9
  22630755.310    22630759.230   -83384206.094 8 101119370.164 8
  20870755.367    20870759.436   -39217186.781 9  17770104.790 9
  23187216.171    23187220.672     2785680.229 9   2553661.638 9
  21666074.389    21666079.883   -12978753.717 9  -9714342.572 9
 88  3 21  7 27 29.0800000  0  4G 3G13G11G 9
  22620944.591    22620949.844   -83435760.438 9 101079197.969 9
  20875007.126    20875010.278   -39194839.045 9  17787518.606 8
  23200211.493    23200216.203     2853971.163 9   2606875.340 9
  21684471.145    21684475.036   -12882082.225 9  -9639014.132 9
 88  3 21  7 27 59.0800000  0  4G 3G13G11G 9
  22611177.810    22611179.678   -83487092.042 8 101039199.334 8
  20879300.140    20879305.267   -39172272.453 9  17805102.956 8
  23213204.563    23213209.685     2922253.885 9   2660082.632 8
  21702945.890    21702951.912   -12784988.284 9  -9563356.548 9
 88  3 21  7 28 29.0800000  0  4G 3G13G11G 9
  22601450.063    22601454.086   -83538201.340 9 100999373.921 8
  20883637.222    20883640.674   -39149489.057 9  17822856.242 9
  23226196.819    23226202.082     2990527.910 9   2713283.156 9
  21721502.423    21721506.770   -12687474.856 9  -9487372.085 9
 88  3 21  7 28 59.0800000  0  4G 3G13G11G 9
  22591764.639    22591770.705   -83589089.150 8 100959721.100 9
  20888014.626    20888016.962   -39126490.716 9  17840777.040 8
  23239187.779    23239192.069     3058791.814 9   2766475.807 9
  21740138.373    21740142.649   -12589545.190 9  -9411063.274 8
 88  3 21  7 29 29.0800000  0  4G 3G13G11G 9
  22582123.083    22582129.625   -83639756.234 8 100920240.273 8
  20892431.444    20892434.461   -39103278.843 9  17858864.201 8
  23252175.545    23252180.419     3127044.757 9   2819659.913 9
  21758852.222    21758856.759   -12491202.355 9  -9334432.511 8
 88  3 21  7 29 59.0800000  0  4G 3G13G11G 9
  22572524.256    22572528.978   -83690202.666 8 100880931.385 8
  20896887.996    20896890.391   -39079854.852 9  17877116.674 8
  23265162.078    23265166.562     3195286.080 9   2872834.952 8
  21777646.176    21777648.421   -12392449.116 9  -9257481.929 9
 88  3 21  7 30 29.0800000  0  4G 3G13G11G 9
  22562968.349    22562971.633   -83740429.146 9 100841793.871 8
  20901385.197    20901388.114   -39056220.994 9  17895532.686 8
  23278145.388    23278149.865     3263514.673 9   2926000.079 8
  21796515.309    21796518.096   -12293289.138 9  -9180214.411 9
 88  3 21  7 30 59.0800000  0  4G 3G13G11G 9
  22553451.551    22553455.835   -83790436.274 9 100802827.280 9
  20905922.555    20905926.004   -39032378.284 9  17914111.426 7
  23291126.221    23291129.420     3331730.229 8   2979155.051 9
  21815460.481    21815465.872   -12193724.715 9  -9102631.788 8
 88  3 21  7 31 29.0800000  0  4G 3G13G11G 9
  22543977.100    22543981.692   -83840224.420 9 100764031.361 7
  20910500.077    20910502.424   -39008328.783 9  17932851.303 8
  23304104.499    23304108.334     3399931.799 8   3032299.131 8
  21834481.291    21834487.253   -12093759.458 9  -9024736.819 8
 88  3 21  7 31 59.0800000  0  4G 3G13G11G 9
  22534543.556    22534547.873   -83889794.202 8 100725405.591 7
  20915115.082    20915118.579   -38984074.133 9  17951751.042 8
  23317082.417    23317083.642     3468118.668 9   3085431.746 9
  21853581.603    21853586.838   -11993396.791 9  -8946532.166 9
 88  3 21  7 32 29.0800000  0  4G 3G13G11G 9
  22525152.843    22525156.264   -83939146.750 9 100686949.088 8
  20919769.050    20919771.474   -38959615.691 9  17970809.564 8
  23330054.170    23330056.672     3536289.708 9   3138552.031 9
  21872756.494    21872758.910   -11892639.562 9  -8868020.045 9
 88  3 21  7 32 59.0800000  0  4G 3G13G11G 9
  22515804.192    22515805.543   -83988282.626 9 100648661.410 8
  20924462.505    20924464.288   -38934955.546 9  17990025.275 8
  23343022.060    23343026.420     3604443.902 9   3191659.173 8
  21892002.989    21892006.863   -11791491.328 9  -8789203.247 8
 88  3 21  7 33 29.0800000  0  4G 3G13G11G 9
  22506495.382    22506497.752   -84037201.805 9 100610542.577 8
  20929193.461    20929195.117   -38910094.881 9  18009397.229 8
  23355987.664    23355991.985     3672580.749 8   3244752.815 8
  21911325.181    21911328.196   -11689954.594 9  -8710083.719 9
 88  3 21  7 33 59.0800000  0  4G 3G13G11G 9
  22497226.662    22497231.133   -84085905.213 8 100572591.870 8
  20933961.043    20933963.913   -38885035.298 9  18028924.178 8
  23368950.001    23368954.081     3740699.424 8   3297832.299 8
  21930720.032    21930723.592   -11588032.883 9  -8630664.241 8
 88  3 21  7 34 29.0800000  0  4G 3G13G11G 9
  22488000.526    22488003.459   -84134393.439 9 100534808.884 9
  20938765.858    20938770.288   -38859778.352 9  18048604.897 8
  23381909.305    23381913.724     3808799.206 9   3350897.056 9
  21950187.459    21950191.866   -11485729.446 9  -8550947.311 9
 88  3 21  7 34 59.0800000  0  4G 3G13G11G 9
  22478813.789    22478815.491   -84182667.115 9 100497193.047 8
  20943609.467    20943614.605   -38834326.368 9  18068437.622 9
  23394865.739    23394869.193     3876879.084 9   3403946.268 9
  21969727.953    21969731.844   -11383047.523 9  -8470935.454 8
 88  3 21  7 35 29.0800000  0  4G 3G13G11G 9
  22469666.944    22469670.694   -84230727.025 9 100459743.779 8
  20948491.791    20948496.062   -38808680.242 9  18088421.607 9
  23407816.727    23407821.179     3944938.577 9   3456979.616 8
  21989339.846    21989342.950   -11279990.317 9  -8390631.143 8
 88  3 21  7 35 59.0800000  0  4G 3G13G11G 9
  22460562.123    22460565.978   -84278574.141 9 100422460.321 8
  20953407.789    20953411.670   -38782841.704 9  18108555.523 8
  23420763.819    23420767.341     4012977.005 9   3509996.567 8
  22009020.423    22009025.232   -11176561.130 9  -8310036.991 8
 88  3 21  7 36 29.0800000  0  4G 3G13G12G 9
  22451497.936    22451500.257   -84326211.480 9 100385340.339 9
  20958360.552    20958364.447   -38756815.419 9  18128835.746 9
                  20672602.427   -91807764.058 9
  22028770.396    22028776.821   -11072765.752 9  -8229157.504 8
 88  3 21  7 36 59.0800000  0  4G 3G13G12G 9
  22442472.449    22442475.506   -84373643.260 9 100348380.544 8
  20963347.435    20963351.016   -38730606.739 9  18149258.097 8
  20675083.796    20675087.760   -91794904.077 8 116631217.425 8
  22048591.146    22048598.058   -10968611.463 9  -8147998.338 8
 88  3 21  7 37 29.0800000  0  4G 3G13G12G 9
  22433484.336    22433490.036   -84420863.798 9 100311585.321 9
  20968371.386    20968373.929   -38704210.381 9  18169826.692 8
  20677656.164    20677658.439   -91781397.140 9 116641742.303 8
  22068480.811    22068485.591   -10864094.704 9  -8066556.713 9
 88  3 21  7 37 59.0800000  0  4G 3G13G12G 9
  22424539.719    22424545.171   -84467873.687 8 100274954.241 8
  20973428.234    20973431.678   -38677628.286 9  18190540.017 8
  20680347.665    20680350.519   -91767243.438 9 116652771.151 8
  22088438.471    22088442.437   -10759218.695 9  -7984835.155 9
 88  3 21  7 38 29.0800000  0  4G 3G13G12G 9
  22415632.867    22415637.893   -84514673.352 9 100238486.978 8
  20978522.043    20978525.173   -38650861.866 9  18211396.974 8
  20683162.721    20683167.165   -91752443.315 9 116664303.712 8
  22108462.815    22108466.306   -10653986.724 9  -7902836.231 9
 88  3 21  7 38 59.0800000  0  4G 3G13G12G 9
  22406768.239    22406772.609   -84561262.890 9 100202183.466 7
  20983649.719    20983654.840   -38623912.627 8  18232396.385 8
  20686103.636    20686106.383   -91736996.876 9 116676339.891 8
  22128553.665    22128559.147   -10548401.863 9  -7820562.367 8
 88  3 21  7 39 29.0800000  0  4G 3G13G12G 9
  22397942.988    22397946.161   -84607643.649 9 100166042.629 8
  20988813.107    20988816.538   -38596781.959 9  18253537.173 9
  20689164.506    20689167.810   -91720904.937 9 116688879.053 9
  22148713.744    22148717.608   -10442467.712 9  -7738016.292 9
 88  3 21  7 39 59.0800000  0  4G 3G13G12G 9
  22389157.621    22389159.063   -84653816.599 9 100130063.739 7
  20994010.614    20994014.552   -38569471.265 9  18274818.235 8
  20692348.240    20692352.586   -91704167.518 8 116701921.179 7
  22168939.047    22168944.155   -10336187.137 9  -7655200.276 8
 88  3 21  7 40 29.0800000  0  4G 3G13G12G 9
  22380409.057    22380412.276   -84699782.083 9 100094246.498 9
  20999241.820    20999245.258   -38541982.447 9  18296238.113 9
  20695656.243    20695661.830   -91686784.857 8 116715466.099 8
  22189227.334    22189232.343   -10229563.689 9  -7572117.109 8
 88  3 21  7 40 59.0800000  0  4G 3G13G12G 9
  22371702.426    22371704.417   -84745540.581 8 100058590.533 8
  21004505.836    21004508.800   -38514316.840 9  18317795.732 9
  20699087.763    20699093.360   -91668757.124 8 116729513.664 8
  22209582.906    22209587.013   -10122600.548 9  -7488769.228 9
 88  3 21  7 41 29.0800000  0  4G 3G13G12G 9
  22363034.579    22363037.219   -84791093.261 9 100023094.933 9
  21009803.715    21009807.418   -38486476.294 9  18339489.659 9
  20702642.832    20702645.316   -91650085.673 9 116744062.836 8
  22230003.357    22230005.432   -10015301.230 9  -7405159.363 9
 88  3 21  7 41 59.0800000  0  4G 3G13G12G 9
  22354404.555    22354407.482   -84836440.591 8  99987759.375 8
  21015134.855    21015138.050   -38458462.297 9  18361318.750 9
  20706316.361    20706320.848   -91630770.800 9 116759113.383 8
  22250484.017    22250488.069    -9907668.859 9  -7321289.993 9
 88  3 21  7 42 29.0800000  0  4G 3G13G12G 9
  22345814.433    22345818.057   -84881583.017 9  99952583.487 8
  21020498.684    21020502.410   -38430275.773 9  18383282.261 9
  20710114.479    20710119.552   -91610812.782 9 116774665.089 9
  22271027.555    22271031.790    -9799706.737 9  -7237163.708 8
 88  3 21  7 42 59.0800000  0  4G 3G13G12G 9
  22337262.271    22337265.625   -84926521.482 9  99917566.527 8
  21025894.554    21025899.302   -38401918.895 9  18405378.512 9
  20714033.026    20714038.503   -91590212.489 9 116790717.231 8
  22291634.366    22291639.375    -9691418.061 9  -7152782.954 8
 88  3 21  7 43 29.0800000  0  4G 3G13G12G 9
  22328749.265    22328752.536   -84971256.610 8  99882707.991 7
  21031323.862    21031327.495   -38373392.953 9  18427606.510 9
  20718076.550    20718080.865   -91568970.197 9 116807269.635 8
  22312302.944    22312307.080    -9582806.491 9  -7068150.584 8
 88  3 21  7 43 59.0800000  0  4G 3G13G12G 9
  22320274.837    22320277.865   -85015788.986 9  99848007.455 9
  21036783.706    21036787.770   -38344699.601 9  18449964.961 8
  20722242.614    20722246.020   -91547086.103 9 116824322.178 9
  22333031.735    22333035.263    -9473875.143 9  -6983269.012 9
 88  3 21  7 44 29.0800000  0  4G 3G13G12G 9
  22311838.697    22311843.191   -85060119.422 8  99813464.271 7
  21042275.447    21042279.492   -38315840.040 9  18472452.928 7
  20726529.501    20726532.712   -91524560.981 9 116841874.220 8
  22353820.316    22353824.476    -9364627.300 9  -6898140.838 9
 88  3 21  7 44 59.0800000  0  4G 3G13G12G 9
  22303442.473    22303446.047   -85104248.522 9  99779077.970 8
  21047798.151    21047802.183   -38286815.724 9  18495069.287 8
  20730936.135    20730939.399   -91501395.973 9 116859924.859 8
  22374669.663    22374673.146    -9255066.152 9  -6812768.524 8
 88  3 21  7 45 29.0800000  0  4G 3G13G12G 9
  22295081.966    22295085.981   -85148176.897 9  99744848.070 9
  21053352.309    21053355.955   -38257627.987 9  18517812.975 8
  20735466.036    20735470.237   -91477591.274 9 116878473.941 8
  22395577.926    22395581.669    -9145195.224 9  -6727154.855 9
 88  3 21  7 45 59.0800000  0  4G 3G13G12G 9
  22286761.978    22286765.655   -85191905.490 8  99710773.853 8
  21058937.701    21058941.264   -38228278.934 9  18540682.346 8
  20740118.240    20740120.882   -91453147.797 9 116897520.806 8
  22416544.527    22416547.757    -9035017.958 9  -6641302.478 8
 88  3 21  7 46 29.0800000  0  4G 3G13G12G 9
  22278477.481    22278481.153   -85235435.330 5  99676854.531 5
  21064552.827    21064556.789   -38198769.601 9  18563676.628 9
  20744890.148    20744894.414   -91428066.312 9 116917064.814 9
  22437567.740    22437571.346    -8924537.631 9  -6555213.925 8
 88  3 21  7 46 59.0800000  0  4G 3G13G12G 9
  22270231.770    22270234.769   -85278766.864 8  99643089.718 8
  21070197.646    21070202.224   -38169101.338 9  18586794.763 9
  20749785.219    20749789.206   -91402347.731 9 116937105.245 9
  22458647.667    22458651.823    -8813757.473 9  -6468891.722 8
 88  3 21  7 47 29.0800000  0  4G 3G13G12G 9
  22262022.586    22262027.589   -85321900.784 8  99609478.875 9
  21075874.088    21075876.921   -38139276.233 9  18610035.122 9
  20754800.283    20754804.256   -91375992.476 9 116957641.798 8
  22479784.294    22479790.357    -8702680.843 9  -6382338.512 8
 88  3 21  7 47 59.0800000  0  4G 3G13G12G 9
  22253851.780    22253858.199   -85364837.507 9  99576021.688 9
  21081579.034    21081581.888   -38109295.621 9  18633396.628 9
  20759936.153    20759940.767   -91349001.282 9 116978673.885 9
  22500978.454    22500982.481    -8591311.041 9  -6295556.865 9
 88  3 21  7 48 29.0800000  0  4G 3G13G12G 9
  22245720.009    22245723.910   -85407577.829 8  99542717.533 9
  21087313.228    21087315.775   -38079160.464 9  18656878.586 8
  20765193.383    20765197.617   -91321375.368 9 117000200.562 9
  22522226.370    22522230.748    -8479651.623 9  -6208549.556 9
 88  3 21  7 48 59.0800000  0  4G 3G13G12G 9
  22237623.611    22237627.512   -85450122.797 9  99509565.619 9
  21093076.706    21093080.068   -38048872.292 9  18680479.752 8
  20770570.380    20770574.704   -91293116.024 8 117022220.832 8
  22543528.382    22543533.039    -8367705.935 9  -6121319.189 8
 88  3 21  7 49 29.0800000  0  4G 3G13G12G 9
  22229564.817    22229568.575   -85492472.932 9  99476565.525 9
  21098871.385    21098872.057   -38018432.590 9  18704199.017 9
  20776069.413    20776072.989   -91264223.865 9 117044734.197 8
  22564885.885    22564888.943    -8255477.225 9  -6033868.273 9
 88  3 21  7 49 59.0800000  0  4G 3G13G12G 9
  22221543.313    22221547.370   -85534629.157 9  99443716.531 9
  21104692.465    21104694.253   -37987842.679 9  18728035.323 9
  20781686.720    20781690.514   -91234699.915 9 117067739.859 9
  22586295.048    22586299.176    -8142968.982 9  -5946199.502 9
 88  3 21  7 50 29.0800000  0  4G 3G13G12G 9
  22213557.696    22213561.754   -85576591.845 9  99411018.343 9
  21110541.225    21110544.824   -37957104.240 9  18751987.342 9
  20787425.099    20787429.265   -91204544.953 8 117091237.190 8
  22607757.202    22607760.310    -8030184.477 9  -5858315.494 8
 88  3 21  7 50 59.0800000  0  4G 3G13G12G 9
  22205609.798    22205611.066   -85618361.694 9  99378470.427 9
  21116417.689    21116421.172   -37926218.647 9  18776054.026 9
  20793284.796    20793287.638   -91173759.985 9 117115225.473 8
  22629270.153    22629274.893    -7917127.268 9  -5770218.983 9
 88  3 21  7 51 29.0800000  0  4G 3G13G12G 9
  22197696.872    22197700.143   -85659939.784 9  99346071.931 8
  21122322.842    21122326.376   -37895187.010 9  18800234.507 9
  20799262.632    20799266.684   -91142346.258 9 117139703.710 8
  22650836.481    22650840.444    -7803800.502 9  -5681912.445 8
 88  3 21  7 51 59.0800000  0  4G 3G13G12G 9
  22189821.064    22189825.265   -85701326.613 9  99313822.471 9
  21128256.134    21128258.502   -37864010.630 9  18824527.780 9
  20805358.624    20805364.307   -91110304.592 9 117164671.232 9
  22672452.670    22672456.565    -7690207.793 9  -5593398.687 8
 88  3 21  7 52 29.0800000  0  4G 3G13G12G 9
  22181982.403    22181984.772   -85742523.121 9  99281721.315 9
  21134215.662    21134220.248   -37832691.085 9  18848932.607 9
  20811574.884    20811579.562   -91077636.131 9 117190127.160 8
  22694118.214    22694122.635    -7576352.314 9  -5504680.139 9
 88  3 21  7 52 59.0800000  0  4G 3G13G12G 9
  22174178.828    22174181.984   -85783530.262 9  99249767.714 8
  21140201.877    21140207.300   -37801229.998 9  18873447.734 9
  20817911.828    20817915.722   -91044342.329 9 117216070.383 8
  22715832.950    22715837.496    -7462237.502 9  -5415759.528 9
 88  3 21  7 53 29.0800000  0  4G 3G13G12G 9
  22166410.654    22166414.654   -85824348.619 8  99217961.221 8
  21146216.495    21146219.794   -37769628.440 9  18898072.323 9
  20824366.766    20824370.088   -91010424.304 9 117242500.000 9
  22737597.907    22737600.640    -7347866.551 9  -5326639.314 8
 88  3 21  7 53 59.0800000  0  4G 3G13G12G 9
  22158679.082    22158682.525   -85864978.776 9  99186301.363 8
  21152255.290    21152258.852   -37737888.192 9  18922804.986 9
  20830939.146    20830941.796   -90975882.890 9 117269415.386 9
  22759409.960    22759413.046    -7233243.310 9  -5237322.518 9
 88  3 21  7 54 29.0800000  0  4G 3G13G12G 9
  22150983.341    22150986.269   -85905421.540 9  99154787.525 9
  21158321.729    21158324.955   -37706010.127 9  18947645.063 9
  20837630.343    20837632.201   -90940719.732 9 117296815.231 8
  22781270.749    22781273.146    -7118370.901 9  -5147811.570 8
 88  3 21  7 54 59.0800000  0  4G 3G13G12G 9
  22143323.573    22143326.229   -85945677.380 9  99123419.367 8
  21164413.903    21164417.359   -37673995.600 9  18972591.439 9
  20844438.062    20844442.493   -90904936.210 9 117324698.497 9
  22803176.588    22803179.753    -7003252.700 9  -5058109.096 8
 88  3 21  7 55 29.0800000  0  4G 3G13G12G 9
  22135698.835    22135701.290   -85985747.412 9  99092195.999 9
  21170532.829    21170534.760   -37641846.115 9  18997642.987 9
  20851365.064    20851370.103   -90868533.142 9 117353064.515 8
  22825128.524    22825131.958    -6887892.231 9  -4968217.863 8
 88  3 21  7 55 59.0800000  0  4G 3G13G12G 9
  22128109.354    22128111.780   -86025632.835 9  99061116.457 8
  21176675.729    21176677.560   -37609562.780 9  19022798.813 9
  20858410.960    20858415.313   -90831512.145 9 117381912.042 7
  22847125.033    22847129.583    -6772292.842 9  -4878140.438 8
 88  3 21  7 56 29.0800000  0  4G 3G13G12G 9
  22120552.955    22120557.242   -86065333.644 9  99030180.756 9
  21182843.163    21182847.226   -37577146.849 9  19048057.968 9
  20865574.332    20865579.002   -90793874.435 9 117411240.119 9
  22869168.300    22869172.822    -6656457.925 8  -4787879.467 8
 88  3 21  7 56 59.0800000  0  4G 3G13G12G 9
  22113031.672    22113035.930   -86104850.981 9  98999388.031 9
  21189036.288    21189041.282   -37544599.882 9  19073419.238 9
  20872853.346    20872858.571   -90755621.266 9 117441047.755 9
  22891255.165    22891259.464    -6540390.651 9  -4697437.443 8
 88  3 21  7 57 29.0800000  0  4G 3G13G12G 9
  22105547.306    22105551.965   -86144185.475 9  98968737.785 9
  21195254.627    21195259.670   -37511923.099 9  19098881.642 9
  20880249.915    20880254.067   -90716754.173 9 117471333.795 9
  22913385.218    22913390.633    -6424094.726 9  -4606817.297 9
 88  3 21  7 57 59.0800000  0  4G 3G13G12G 9
  22098099.429    22098101.555   -86183337.379 9  98938229.813 9
  21201497.434    21201502.435   -37479117.885 9  19124444.140 9
  20887762.516    20887764.926   -90677274.289 9 117502097.336 8
  22935558.788    22935562.329    -6307573.454 9  -4516021.560 9
 88  3 21  7 58 29.0800000  0  4G 3G13G12G 9
  22090682.889    22090685.359   -86222308.163 9  98907862.977 9
  21207763.930    21207769.253   -37446185.892 9  19150105.424 9
  20895390.628    20895393.957   -90637183.396 9 117533336.958 8
  22957775.651    22957779.604    -6190830.033 9  -4425052.674 8
 88  3 21  7 58 59.0800000  0  4G 3G13G12G 9
  22083299.603    22083303.189   -86261098.670 9  98877636.628 9
  21214056.183    21214059.602   -37413127.754 9  19175865.013 9
  20903137.428    20903139.688   -90596482.925 9 117565051.606 8
  22980032.834    22980036.261    -6073868.316 9  -4333913.663 8
 88  3 21  7 59 29.0800000  0  4G 3G13G12G 9
  22075953.092    22075956.048   -86299709.342 9  98847550.395 9
  21220371.030    21220373.762   -37379944.690 9  19201721.948 9
  20910998.276    20911001.681   -90555174.157 9 117597240.249 9
  23002330.040    23002334.035    -5956691.521 9  -4242607.049 8
 88  3 21  7 59 59.0800000  0  4G 3G13G12G 9
  22068639.893    22068643.808   -86338141.234 9  98817603.489 9
  21226708.456    21226711.668   -37346638.016 9  19227675.199 9
  20918973.494    20918977.471   -90513258.662 9 117629901.654 8
  23024667.730    23024672.623    -5839302.856 9  -4151135.382 9
 88  3 21  8  0 29.0800000  0  4G 3G13G12G 9
  22061359.405    22061363.219   -86376394.717 9  98787795.597 9
  21233068.792    21233074.515   -37313209.488 9  19253723.384 9
  20927064.072    20927068.253   -90470738.592 9 117663034.146 9
  23047046.541    23047050.197    -5721705.472 9  -4059501.108 8
 88  3 21  8  0 59.0800000  0  4G 3G13G12G 9
  22054114.603    22054118.261   -86414470.387 9  98758126.256 8
  21239453.146    21239458.447   -37279659.285 9  19279866.376 9
  20935270.820    20935273.755   -90427614.640 9 117696637.214 8
  23069463.826    23069467.353    -5603903.108 8  -3967707.084 8
 88  3 21  8  1 29.0800000  0  4G 3G13G12G 9
  22046902.170    22046906.728   -86452369.569 9  98728594.445 9
  21245861.360    21245864.551   -37245989.443 9  19306102.615 9
  20943591.007    20943593.506   -90383888.922 9 117730709.193 9
  23091919.896    23091922.268    -5485899.302 9  -3875756.062 9
 88  3 21  8  1 59.0800000  0  4G 3G13G12G 9
  22039723.362    22039728.422   -86490092.708 9  98699199.801 9
  21252290.237    21252293.757   -37212201.164 9  19332431.149 9
  20952026.255    20952030.263   -90339562.645 9 117765249.160 8
  23114411.514    23114415.710    -5367697.256 9  -3783650.580 9
 88  3 21  8  2 29.0800000  0  4G 3G13G12G 9
  22032577.323    22032581.754   -86527640.680 9  98669941.645 8
  21258742.538    21258745.593   -37178294.648 9  19358851.815 9
  20960573.947    20960579.573   -90294638.186 9 117800255.206 9
  23136941.695    23136946.266    -5249300.249 9  -3691393.197 8
 88  3 21  8  2 59.0800000  0  4G 3G13G12G 9
  22025467.029    22025469.312   -86565014.068 8  98640819.533 9
  21265217.641    21265220.058   -37144272.163 9  19385362.834 8
  20969238.528    20969242.544   -90249116.835 9 117835726.351 8
  23159508.382    23159512.696    -5130712.077 9  -3598986.873 9
 88  3 21  8  3 29.0800000  0  4G 3G13G12G 9
  22018388.042    22018392.072   -86602214.092 9  98611832.511 9
  21271713.277    21271716.646   -37110135.006 9  19411963.207 8
  20978013.769    20978017.968   -90203000.379 9 117871661.252 9
  23182110.506    23182114.033    -5011935.994 9  -3506434.105 9
 88  3 21  8  3 59.0800000  0  4G 3G13G12G 9
  22011341.738    22011345.453   -86639241.210 9  98582980.222 9
  21278230.936    21278235.757   -37075883.492 9  19438652.700 8
  20986901.795    20986907.113   -90156290.481 9 117908058.570 9
  23204748.313    23204752.953    -4892975.177 9  -3413737.356 8
 88  3 21  8  4 29.0800000  0  4G 3G13G12G 9
  22004329.061    22004333.004   -86676095.967 8  98554262.234 9
  21284770.637    21284774.271   -37041519.704 9  19465429.678 9
  20995902.012    20995906.515   -90108989.104 9 117944916.778 9
  23227419.332    23227424.226    -4773833.365 9  -3320899.596 8
 88  3 21  8  4 59.0800000  0  4G 3G13G12G 9
  21997347.778    21997351.850   -86712779.456 9  98525677.697 9
  21291330.507    21291334.499   -37007044.358 9  19492293.583 9
  21005016.653    21005020.251   -90061098.379 9 117982234.214 9
  23250125.573    23250130.116    -4654513.797 9  -3227923.324 8
 88  3 21  8  5 29.0800000  0  4G 3G13G12G 9
  21990397.803    21990403.778   -86749292.171 8  98497226.234 8
  21297912.757    21297915.053   -36972458.427 9  19519243.651 9
  21014242.147    21014245.337   -90012619.671 9 118020009.816 9
  23272864.611    23272868.507    -4535019.594 8  -3134810.987 8
 88  3 21  8  5 59.0800000  0  4G 3G13G12G 9
  21983484.946    21983488.375   -86785635.103 9  98468907.086 9
  21304514.017    21304517.565   -36937763.193 9  19546278.893 8
  21023578.090    21023583.069   -89963555.001 9 118058242.003 9
  23295636.253    23295640.023    -4415354.620 8  -3041565.569 9
 88  3 21  8  6 29.0800000  0  4G 3G13G12G 9
  21976600.937    21976604.738   -86821808.981 9  98440719.656 8
  21311137.706    21311141.977   -36902959.847 9  19573398.379 9
  21033025.502    21033031.324   -89913905.931 9 118096929.572 9
  23318440.927    23318444.028    -4295521.874 9  -2948189.414 9
 88  3 21  8  6 59.0800000  0  4G 3G13G12G 9
  21969748.208    21969751.822   -86857814.772 9  98412663.221 8
  21317781.679    21317783.961   -36868049.693 9  19600601.088 9
  21042583.442    21042588.670   -89863674.561 9 118136070.906 8
  23341275.636    23341278.397    -4175525.011 9  -2854685.381 8
 88  3 21  8  7 29.0800000  0  4G 3G13G12G 9
  21962929.020    21962931.560   -86893653.490 9  98384736.962 8
  21324443.867    21324447.823   -36833033.702 9  19627886.272 9
  21052254.331    21052258.615   -89812862.593 9 118175664.630 7
  23364140.112    23364143.882    -4055367.611 9  -2761056.289 8
 88  3 21  8  7 59.0800000  0  4G 3G13G12G 9
  21956140.423    21956144.854   -86929325.609 8  98356940.511 9
  21331127.662    21331131.368   -36797913.205 9  19655252.896 8
  21062034.184    21062037.750   -89761472.313 9 118215709.000 9
  23387034.240    23387039.734    -3935052.649 9  -2667304.410 9
 88  3 21  8  8 29.0800000  0  4G 3G13G12G 9
  21949383.881    21949388.411   -86964831.727 8  98329273.416 8
  21337829.744    21337832.985   -36762689.014 9  19682700.316 9
  21071922.605    21071925.891   -89709505.771 9 118256202.385 8
  23409959.319    23409963.074    -3814583.485 8  -2573432.361 9
 88  3 21  8  8 59.0800000  0  4G 3G13G12G 9
  21942657.988    21942662.332   -87000172.570 8  98301735.119 9
  21344551.752    21344554.370   -36727362.624 9  19710227.401 8
  21081920.452    21081924.132   -89656964.887 9 118297143.313 9
  23432913.281    23432917.297    -3693963.777 8  -2479443.005 9
 88  3 21  8  9 29.0800000  0  4G 3G13G12G 9
  21935964.691    21935968.020   -87035348.592 8  98274325.246 9
  21351294.072    21351297.541   -36691934.427 9  19737833.792 9
  21092027.185    21092031.727   -89603851.555 9 118338530.320 9
  23455893.793    23455898.826    -3573196.653 9  -2385338.784 9
 88  3 21  8  9 59.0800000  0  4G 3G13G12G 9
  21929303.019    21929305.531   -87070361.047 9  98247042.809 8
  21358054.814    21358059.257   -36656405.325 9  19765518.791 8
  21102242.400    21102246.741   -89550167.996 9 118380361.657 9
  23478903.328    23478908.164    -3452285.437 9  -2291122.291 9
 88  3 21  8 10 29.0800000  0  4G 3G13G12G 9
  21922670.851    21922675.839   -87105210.539 9  98219887.359 9
  21364834.903    21364838.981   -36620776.872 9  19793281.217 8
  21112566.020    21112571.002   -89495916.269 9 118422635.703 8
  23501939.826    23501943.349    -3331233.727 9  -2196796.290 9
 88  3 21  8 10 59.0800000  0  4G 3G13G12G 9
  21916069.134    21916074.208   -87139897.776 7  98192858.359 9
  21371635.218    21371636.842   -36585049.952 9  19821120.374 8
  21122998.373    21123002.153   -89441098.254 9 118465351.029 9
  23525001.711    23525003.660    -3210044.600 9  -2102363.221 9
 88  3 21  8 11 29.0800000  0  4G 3G13G12G 9
  21909499.812    21909505.172   -87174423.073 9  98165955.543 8
  21378451.924    21378453.290   -36549225.606 9  19849035.442 8
  21133537.834    21133541.610   -89385716.574 9 118508505.567 8
  23548088.344    23548091.227    -3088721.640 9  -2007825.868 8
 88  3 21  8 11 59.0800000  0  4G 3G13G12G 9
  21902961.198    21902964.355   -87208787.764 9  98139177.866 8
  21385287.182    21385289.163   -36513304.649 9  19877025.797 9
  21144183.726    21144187.742   -89329773.332 9 118552097.674 9
  23571199.535    23571202.422    -2967268.184 9  -1913186.826 9
 88  3 21  8 12 29.0800000  0  4G 3G13G12G 9
  21896451.718    21896454.760   -87242993.173 9  98112524.292 8
  21392139.196    21392143.159   -36477288.540 9  19905090.280 8
  21154935.535    21154939.616   -89273270.048 9 118596126.202 9
  23594335.660    23594338.794    -2845687.613 9  -1818448.762 9
 88  3 21  8 12 59.0800000  0  4G 3G13G12G 9
  21889974.204    21889975.085   -87277039.657 9  98085994.584 8
  21399011.543    21399013.997   -36441178.214 9  19933228.191 9
  21165794.245    21165797.792   -89216209.414 9 118640589.042 9
  23617493.718    23617498.389    -2723983.340 8  -1723614.304 9
 88  3 21  8 13 29.0800000  0  4G 3G13G12G 9
  21883525.051    21883528.294   -87310927.953 9  98059588.132 9
  21405900.775    21405904.245   -36404974.582 9  19961438.822 8
  21176755.730    21176762.891   -89158593.552 9 118685484.502 9
  23640676.101    23640680.579    -2602158.818 9  -1628686.150 9
 88  3 21  8 13 59.0800000  0  4G 3G13G12G 9
  21877106.091    21877108.346   -87344658.529 9  98033304.577 8
  21412807.185    21412812.072   -36368678.316 9  19989721.614 8
  21187826.960    21187830.013   -89100424.849 9 118730810.758 9
  23663882.008    23663885.278    -2480217.187 9  -1533666.725 8
 88  3 21  8 14 29.0800000  0  4G 3G13G12G 9
  21870716.121    21870721.753   -87378232.102 9  98007143.369 9
  21419731.911    21419737.156   -36332290.688 9  20018075.597 9
  21199002.060    21199004.884   -89041705.453 9 118776566.131 8
  23687108.578    23687110.510    -2358161.840 9  -1438558.627 8
 88  3 21  8 14 59.0800000  0  4G 3G13G12G 9
  21864358.747    21864360.973   -87411649.783 9  97981103.643 8
  21426673.465    21426678.158   -36295812.866 9  20046499.853 9
  21210279.478    21210282.735   -88982437.636 9 118822748.831 8
  23710356.236    23710358.143    -2235996.032 9  -1343364.494 8
 88  3 21  8 15 29.0800000  0  4G 3G13G12G 9
  21858028.417    21858031.831   -87444911.919 9  97955185.100 9
  21433632.891    21433635.731   -36259245.483 9  20074993.921 8
  21221661.370    21221664.993   -88922623.707 9 118869357.067 8
  23733623.494    23733626.188    -2113723.330 9  -1248087.091 9
 88  3 21  8 15 59.0800000  0  4G 3G13G12G 9
  21851728.682    21851731.737   -87478019.554 9  97929386.928 8
  21440607.421    21440612.014   -36222589.431 9  20103557.064 9
  21233145.824    21233151.436   -88862265.927 9 118916389.080 9
  23756910.857    23756913.883    -1991346.978 9  -1152728.939 9
 88  3 21  8 16 29.0800000  0  4G 3G13G12G 9
  21845456.333    21845461.221   -87510973.018 9  97903708.918 9
  21447598.999    21447603.893   -36185845.864 9  20132188.404 9
  21244735.483    21244740.511   -88801366.232 9 118963843.386 9
  23780217.630    23780220.699    -1868870.215 9  -1057292.500 9
 88  3 21  8 16 59.0800000  0  4G 3G13G12G 9
  21839214.377    21839218.922   -87543773.468 8  97878150.122 8
  21454608.507    21454612.077   -36149015.726 9  20160887.218 9
  21256427.728    21256431.493   -88739927.811 9 119011717.473 8
  23803543.066    23803547.058    -1746296.412 9   -961780.447 9
 88  3 21  8 17 29.0800000  0  4G 3G13G12G 9
  21833000.982    21833005.670   -87576421.388 8  97852710.192 9
  21461631.309    21461637.733   -36112099.696 9  20189652.945 8
  21268221.050    21268225.112   -88677952.688 9 119060009.752 9
  23826885.376    23826889.786    -1623628.815 9   -866195.309 9
 88  3 21  8 17 59.0800000  0  4G 3G13G12G 9
  21826818.038    21826821.108   -87608917.819 9  97827388.295 9
  21468673.306    21468676.990   -36075098.511 9  20218485.030 9
  21280117.165    21280117.993   -88615443.005 9 119108718.592 9
  23850244.774    23850249.621    -1500870.905 8   -770539.802 9
 88  3 21  8 18 29.0800000  0  4G 3G13G12G 9
  21820664.112    21820666.911   -87641263.254 9  97802184.063 8
  21475731.987    21475733.625   -36038013.248 9  20247382.641 8
  21292112.249    21292115.618   -88552401.645 9 119157841.722 9
  23873622.116    23873627.443    -1378025.809 9   -674816.360 8
 88  3 21  8 18 59.0800000  0  4G 3G13G12G 9
  21814537.403    21814539.171   -87673458.305 9  97777097.048 9
  21482804.542    21482808.276   -36000844.593 9  20276345.218 9
  21304208.003    21304212.605   -88488831.105 9 119207377.199 9
  23897014.440    23897019.534    -1255097.166 9   -579027.805 9
 88  3 21  8 19 29.0800000  0  4G 3G13G12G 9
  21808438.481    21808441.395   -87705503.671 9  97752126.652 8
  21489893.816    21489896.091   -35963593.741 9  20305371.832 8
  21316405.670    21316409.135   -88424733.774 9 119257323.159 8
  23920422.161    23920426.797    -1132087.748 9   -483176.316 9
 88  3 21  8 19 59.0800000  0  4G 3G13G12G 9
  21802368.465    21802373.124   -87737400.493 8  97727272.005 9
  21496998.187    21496999.754   -35926261.340 9  20334462.010 8
  21328703.122    21328707.199   -88360111.963 9 119307677.784 8
  23943844.541    23943849.900    -1009001.138 8   -387264.684 9
 88  3 21  8 20 29.0800000  0  4G 3G13G12G 9
  21796326.494    21796331.726   -87769149.448 9  97702532.566 9
  21504116.438    21504119.521   -35888848.963 9  20363614.508 8
  21341100.725    21341104.068   -88294968.344 9 119358439.031 9
  23967279.786    23967285.652     -885840.851 8   -291295.657 8
 88  3 21  8 20 59.0800000  0  4G 3G13G12G 9
  21790313.199    21790317.529   -87800751.094 8  97677907.904 9
  21511250.393    21511254.277   -35851356.794 9  20392829.174 9
  21353596.481    21353599.913   -88229305.439 9 119409604.922 9
  23990731.150    23990736.937     -762609.840 8   -195271.529 9
 88  3 21  8 21 29.0800000  0  4G 3G13G12G 9
  21784328.523    21784331.923   -87832206.400 9  97653397.281 9
  21518400.696    21518403.965   -35813785.513 9  20422105.484 8
  21366190.086    21366193.476   -88163125.466 9 119461173.721 9
  24014194.580    24014198.325     -639311.758 9    -99195.114 9
 88  3 21  8 21 59.0800000  0  4G 3G13G12G 9
  21778370.032    21778373.375   -87863515.689 8  97629000.423 9
  21525564.543    21525567.863   -35776135.833 9  20451442.884 8
  21378881.657    21378884.113   -88096431.296 9 119513143.199 9
  24037668.330    24037673.137     -515949.763 9     -3068.874 8
 88  3 21  8 22 29.0800000  0  4G 3G13G12G 9
  21772440.103    21772444.805   -87894679.954 9  97604716.596 9
  21532744.138    21532748.673   -35738408.878 9  20480840.500 9
  21391670.186    21391672.990   -88029225.543 9 119565511.290 9
  24061153.692    24061158.707     -392526.854 8     93104.822 9
 88  3 21  8 22 59.0800000  0  4G 3G13G12G 9
  21766536.387    21766541.819   -87925699.719 9  97580545.348 9
  21539938.413    21539941.718   -35700605.757 9  20510297.471 8
  21404555.389    21404558.192   -87961510.981 9 119618275.857 9
  24084651.493    24084655.692     -269046.493 8    189323.260 8
 88  3 21  8 23 29.0800000  0  4G 3G13G12G 9
  21760661.176    21760666.035   -87956575.390 9  97556486.407 9
  21547146.368    21547149.938   -35662726.956 9  20539813.414 9
  21417537.335    21417540.110   -87893290.513 9 119671434.647 9
  24108160.837    24108164.339     -145512.052 9    285583.807 9
 88  3 21  8 23 59.0800000  0  4G 3G13G12G 9
  21754813.611    21754816.194   -87987308.276 9  97532538.709 9
  21554369.248    21554372.767   -35624773.082 9  20569387.850 9
  21430614.939    21430617.105   -87824566.476 9 119724985.845 8
  24131679.712    24131683.207      -21926.667 9    381884.100 9
 88  3 21  8 24 29.0800000  0  4G 3G13G12G 9
  21748992.460    21748994.514   -88017899.075 9  97508701.748 8
  21561605.564    21561609.842   -35586745.282 9  20599019.891 8
  21443787.738    21443791.758   -87755341.403 9 119778927.441 9
  24155205.691    24155209.947      101706.166 9    478221.347 9
 88  3 21  8 24 59.0800000  0  4G 3G13G12G 9
  21743198.067    21743200.508   -88048348.159 8  97484975.196 9
  21568857.197    21568860.095   -35548644.063 9  20628709.107 9
  21457056.058    21457059.581   -87685617.814 9 119833257.493 8
  24178739.755    24178744.140      225383.414 9    574593.208 9
 88  3 21  8 25 29.0800000  0  4G 3G13G12G 9
  21737429.717    21737432.143   -88078656.561 9  97461358.264 8
  21576120.608    21576123.412   -35510470.364 9  20658454.839 8
  21470418.730    21470422.592   -87615398.838 9 119887973.549 8
  24202282.254    24202287.558      349101.893 8    670997.195 9
 88  3 21  8 25 59.0800000  0  4G 3G13G12G 9
  21731689.183    21731692.784   -88108824.143 9  97437851.049 9
  21583397.691    21583401.046   -35472224.734 9  20688256.621 8
  21483875.091    21483878.284   -87544686.876 9 119943073.772 9
  24225833.313    24225837.609      472858.306 8    767430.740 9
 88  3 21  8 26 29.0800000  0  4G 3G13G12G 9
  21725973.691    21725979.409   -88138852.104 9  97414452.646 9
  21590689.247    21590692.738   -35433908.120 9  20718113.709 8
  21497423.499    21497428.646   -87473484.779 9 119998555.913 9
  24249389.889    24249394.349      596649.341 8    863891.272 9
 88  3 21  8 26 59.0800000  0  4G 3G13G12G 9
  21720286.446    21720290.518   -88168741.565 8  97391162.183 9
  21597994.040    21597997.674   -35395520.919 9  20748025.794 8
  21511065.221    21511069.781   -87401795.582 9 120054417.617 9
  24272952.331    24272958.255      720471.837 8    960376.285 9
 88  3 21  8 27 29.0800000  0  4G 3G13G12G 9
  21714626.702    21714628.471   -88198492.949 8  97367979.290 9
  21605312.719    21605315.888   -35357063.753 9  20777992.421 9
  21524799.302    21524803.765   -87329622.428 9 120110656.426 9
  24296520.526    24296525.190      844322.360 8   1056883.145 9
 88  3 21  8 27 59.0800000  0  4G 3G13G12G 9
  21708990.855    21708994.312   -88228106.608 9  97344903.704 9
  21612642.145    21612647.525   -35318537.028 9  20808013.230 9
  21538625.559    21538628.881   -87256967.491 9 120167270.645 9
  24320093.060    24320097.609      968198.108 8   1153409.662 9
 88  3 21  8 28 29.0800000  0  4G 3G13G12G 9
  21703381.051    21703384.365   -88257583.082 9  97321935.023 9
  21619987.161    21619991.825   -35279941.930 9  20838087.301 8
  21552541.678    21552545.776   -87183833.427 9 120224258.213 9
  24343669.854    24343674.722     1092095.451 9   1249953.023 9
 88  3 21  8 28 59.0800000  0  4G 3G13G12G 9
  21697797.948    21697801.877   -88286923.644 9  97299072.242 8
  21627344.633    21627348.861   -35241279.784 9  20868213.632 9
  21566550.026    21566553.706   -87110223.305 9 120281616.731 9
  24367252.072    24367255.151     1216011.358 9   1346510.868 9
 88  3 21  8 29 29.0800000  0  4G 3G13G12G 9
  21692239.198    21692244.416   -88316128.811 8  97276314.989 9
  21634714.961    21634718.481   -35202550.648 9  20898392.166 8
  21580647.035    21580652.103   -87036140.371 9 120339343.677 9
  24390833.824    24390837.848     1339942.489 9   1443080.570 9
 88  3 21  8 29 59.0800000  0  4G 3G13G12G 9
  21686708.066    21686712.067   -88345198.832 9  97253663.037 8
  21642098.018    21642100.922   -35163754.611 9  20928622.835 8
  21594833.165    21594840.007   -86961587.315 9 120397436.929 8
  24414418.789    24414424.026     1463885.765 8   1539659.709 9
 88  3 21  8 30 29.0800000  0  4G 3G13G12G 9
  21681201.689    21681204.473   -88374134.651 9  97231115.640 8
  21649493.073    21649496.614   -35124892.836 9  20958904.724 9
  21609110.122    21609114.828   -86886566.425 9 120455894.752 9
  24438007.203    24438012.061     1587838.210 9   1636246.003 9
 88  3 21  8 30 59.0800000  0  4G 3G13G12G 9
                  21675724.711                    97208672.550 8
  21656901.586    21656904.090   -35085965.723 9  21068828.549 8
  21623475.631    21623479.755   -86811080.760 9 120514714.742 9
  24461594.955    24461599.673     1711796.509 8   1732836.840 9
 88  3 21  8 31 29.0800000  0  4G 3G13G12G 9
  21670268.910    21670273.281   -88553750.984 6  97186333.123 7
  21664319.428    21664323.828   -35046974.146 8  21099211.520 7
                  21637926.449  -111698176.042 7
                  24486867.021  -111756635.009 1
 88  3 21  8 31 59.0800000  0  3G 3G12G 9
  21664837.042    21664839.156   -88582288.401 9  97164096.648 9
  21652466.509    21652470.480  -111621770.608 9 141652662.692 9
                  24508744.617  -111679800.871 9
 88  3 21  8 32 29.0800000  0  4G 3G13G12G 9
  21659429.935    21659434.853   -88610693.827 9  97141962.549 8
  21679195.143    21679200.166  -111738306.462 9 141989061.568 8
  21667091.655    21667096.714  -111544909.613 9 141712554.359 9
  24532362.298    24532365.840  -111555844.452 9 141980773.999 9
 88  3 21  8 32 59.0800000  0  4G 3G13G12G 9
  21654047.865    21654053.580   -88638968.348 1  97119930.473 1
  21686651.463    21686656.056  -111699125.082 9 142019592.022 9
  21681803.766    21681809.393  -111467596.036 9 141772798.658 9
  24555948.812    24555953.452  -111431894.489 9 142077358.392 8
 88  3 21  8 33 29.0800000  0  4G 3G13G12G 9
  21648693.913    21648697.432   -88667112.600 8  97097999.911 9
  21694119.001    21694123.823  -111659881.643 9 142050171.308 9
  21696602.948    21696605.703  -111389832.345 9 141833393.724 8
  24579532.665    24579537.179  -111307954.656 9 142173934.904 9
 88  3 21  8 33 59.0800000  0  4G 3G13G12G 9
  21643363.453    21643366.371   -88695126.894 9  97076170.567 8
  21701599.990    21701603.539  -111620576.624 9 142080798.573 9
  21711486.353    21711490.174  -111311622.040 9 141894336.825 9
  24603115.676    24603120.302  -111184027.860 8 142270501.227 9
 88  3 21  8 34 29.0800000  0  4G 3G13G12G 9
  21638056.459    21638060.415   -88723012.137 9  97054441.831 8
  21709090.566    21709094.615  -111581210.271 9 142111473.627 9
  21726453.501    21726457.551  -111232968.066 9 141955625.612 9
  24626695.240    24626699.003  -111060117.400 8 142367054.819 9
 88  3 21  8 34 59.0800000  0  4G 3G13G12G 9
  21632775.108    21632777.640   -88750768.533 9  97032813.463 8
  21716592.475    21716596.567  -111541783.930 9 142142195.442 9
  21741505.004    21741508.749  -111153873.404 9 142017257.794 9
  24650271.591    24650274.374  -110936226.402 9 142463593.247 9
 88  3 21  8 35 29.0800000  0  4G 3G13G12G 9
  21627516.709    21627521.080   -88778397.013 9  97011284.776 9
  21724106.375    21724111.297  -111502297.579 9 142172964.015 8
  21756638.877    21756643.378  -111074340.746 9 142079231.274 9
  24673843.016    24673846.232  -110812357.922 9 142560114.146 9
